GFSCGP_500_spd_000.txt.gz
Wind_Speed
53 48 47 39 36 42 36 33 28 30 30 25 26 25 27 24 23 24 23 21 18 20 22 25 27 30 33 35 34 33 32 30 28 26 28 29 31 33 35 36 37 38 40 42
51 48 45 43 43 40 34 28 27 30 29 24 25 24 25 24 20 22 21 22 23 25 27 29 31 32 32 31 29 28 28 29 28 29 31 33 35 36 38 40 41 42 43 45
42 41 48 43 37 39 35 30 29 30 29 25 25 25 25 24 22 21 22 24 27 30 31 31 30 27 27 27 28 28 28 29 30 31 31 34 36 36 38 40 40 41 42 43
43 46 40 40 39 37 34 30 29 29 27 26 25 27 25 25 26 25 28 30 31 30 28 26 24 25 26 26 25 26 28 29 30 31 31 33 34 35 37 38 39 40 40 41
46 41 43 38 34 33 26 28 31 29 25 23 24 25 25 25 26 26 28 28 26 25 22 23 24 24 25 26 26 28 30 32 34 36 38 39 40 42 44 46 47 48 49 48
41 42 40 31 28 25 26 27 28 25 22 25 23 24 25 25 26 22 20 19 19 20 23 24 26 27 28 29 31 34 36 38 40 42 44 45 46 48 50 52 53 54 55 56
37 32 27 26 24 23 23 24 23 21 20 21 21 23 26 23 21 20 18 20 21 23 25 27 30 32 33 35 38 39 41 43 45 47 50 51 53 54 55 56 56 56 57 59
29 30 27 23 20 18 20 22 23 23 22 21 19 19 22 22 23 21 22 23 26 28 31 33 35 36 38 40 42 44 45 47 47 48 48 49 51 53 54 56 58 61 63 64
28 25 23 21 20 19 21 19 18 18 18 17 18 19 23 21 23 27 29 30 32 35 37 38 39 40 41 41 43 44 45 47 49 51 52 55 57 59 61 63 65 66 68 68
20 19 21 20 20 19 18 17 16 17 17 18 18 19 25 25 27 30 32 34 33 36 37 38 38 39 40 43 46 48 50 52 54 56 58 59 60 61 63 64 65 65 66 65
20 18 19 19 19 18 17 16 16 16 18 20 21 19 25 29 30 31 34 34 35 35 38 40 41 42 43 47 49 51 52 55 57 58 58 59 59 60 60 61 62 62 63 64
18 18 17 17 19 19 18 17 18 20 19 23 25 20 25 28 29 33 35 35 35 35 41 45 45 47 49 51 51 51 53 55 56 57 58 59 61 62 64 64 65 67 69 70
18 17 18 20 20 18 17 17 18 21 23 24 27 19 23 26 28 33 37 37 36 39 43 47 49 49 50 51 52 55 57 59 61 62 63 64 65 66 66 68 70 71 71 71
18 20 20 19 17 18 19 19 20 21 19 24 22 23 24 26 33 35 38 40 40 38 39 44 50 54 56 59 61 63 64 67 68 69 69 69 69 69 68 68 68 68 69 71
16 17 21 21 22 22 20 16 18 21 21 30 23 31 27 32 32 33 36 39 43 46 50 53 55 59 63 66 68 70 71 72 72 73 74 74 74 74 74 72 72 73 73 72
11 14 15 15 17 19 19 18 23 25 26 30 32 27 33 34 33 36 41 46 50 54 55 59 64 66 68 69 70 72 73 74 75 76 78 78 76 73 71 70 72 72 74 75
15 16 17 17 21 23 21 21 24 26 26 28 28 32 34 37 41 44 49 54 59 61 62 65 69 72 74 76 77 78 79 80 80 80 77 75 76 76 75 71 71 74 75 77
19 21 22 22 25 27 23 19 20 23 24 29 33 37 41 44 48 54 57 58 62 67 70 73 76 78 81 83 84 84 83 81 79 78 77 75 74 74 75 75 76 78 79 80
22 23 22 22 26 25 20 23 27 29 32 36 40 44 49 52 54 58 64 67 72 75 77 79 82 84 85 85 85 83 82 81 79 75 73 74 75 77 79 80 79 80 81 80
14 16 18 21 24 26 27 29 33 38 42 46 50 52 56 59 63 66 68 70 73 78 81 84 87 87 86 85 83 79 76 75 75 74 74 76 76 74 75 76 72 70 71 71
17 19 20 24 29 31 33 38 40 43 50 53 55 57 61 62 63 66 68 73 77 82 86 87 86 84 80 75 73 72 73 73 74 76 77 76 74 73 70 68 68 69 70 72
20 24 26 30 34 37 39 43 48 52 55 58 60 61 63 68 72 74 77 80 82 84 83 81 76 75 72 71 69 68 69 70 71 72 69 67 66 66 67 69 70 73 77 79
24 31 34 38 38 42 47 53 57 58 59 60 61 63 68 73 77 80 81 81 82 81 74 71 69 67 65 66 67 68 67 65 62 61 61 61 62 67 71 74 78 80 83 86
33 38 40 46 42 47 54 56 61 62 61 63 66 69 74 76 78 80 83 82 79 70 64 62 60 62 64 66 65 62 59 58 58 59 62 66 69 72 76 79 81 82 82 83
45 46 49 51 53 58 59 60 62 63 65 69 72 73 77 80 82 84 82 77 69 62 59 59 61 62 63 59 57 59 61 61 63 66 69 72 74 77 79 80 82 82 80 79
48 49 53 56 56 59 60 63 65 68 72 74 76 79 82 84 83 80 73 66 62 59 58 58 60 59 57 59 62 64 65 68 71 73 76 78 81 83 85 86 82 80 76 69

GFSCGP_500_spd_003.txt.gz
Wind_Speed
54 54 51 42 35 39 36 35 36 35 29 25 25 24 27 24 21 21 22 18 17 18 17 19 22 27 30 32 34 34 32 30 26 25 26 28 29 29 31 33 36 38 39 40
59 55 46 36 39 41 37 36 35 31 27 26 24 21 23 25 23 16 15 18 18 19 21 24 27 31 33 34 31 28 26 25 25 24 24 26 28 29 32 35 36 38 39 39
60 48 44 42 41 38 35 34 31 26 25 26 24 22 24 23 20 15 15 16 18 22 25 28 30 31 31 29 27 26 26 27 27 27 27 27 30 31 34 37 38 41 42 43
45 45 47 42 39 34 35 31 30 27 26 24 23 24 24 22 18 17 18 19 24 28 31 32 31 29 27 26 25 26 27 28 30 31 32 33 35 37 40 42 44 45 47 49
56 53 47 40 34 37 32 28 30 29 28 25 24 25 24 22 18 18 20 24 28 31 31 30 26 23 24 25 26 28 29 31 34 36 39 41 43 45 47 50 52 53 55 57
50 44 39 36 34 32 30 30 30 31 32 29 24 27 23 21 18 21 25 27 27 26 24 24 23 24 25 27 30 32 35 38 40 42 45 47 49 50 51 52 53 54 55 57
44 40 36 34 32 30 30 31 30 32 32 25 27 29 24 22 19 22 23 22 22 24 23 23 25 28 30 32 34 37 39 42 43 45 46 47 49 51 53 55 57 59 60 63
39 40 36 35 30 29 31 29 31 31 27 25 29 27 22 21 20 20 21 20 20 24 25 27 29 32 34 35 36 37 39 41 43 46 48 51 53 56 58 59 61 62 63 65
38 34 33 31 31 30 28 25 26 23 21 19 21 23 20 19 17 19 19 21 23 27 30 30 30 30 30 33 35 37 40 43 46 49 52 54 56 58 59 60 62 62 63 64
32 31 33 32 30 27 24 23 19 16 19 19 17 18 18 16 19 23 25 24 25 27 28 29 30 32 33 35 37 41 44 47 49 52 53 54 55 57 59 61 62 64 65 67
28 27 29 28 25 24 21 17 16 17 18 16 14 17 17 21 23 24 25 26 25 25 28 31 35 36 36 38 40 43 45 46 48 52 55 57 59 60 63 64 65 66 68 69
28 26 25 22 25 22 20 19 17 18 16 15 14 17 21 22 25 28 28 26 25 27 30 34 37 39 39 40 43 47 50 52 56 60 62 64 65 67 68 68 70 71 72 73
24 22 23 24 20 18 17 16 16 15 14 16 15 15 18 23 27 29 28 31 32 34 36 36 37 40 44 48 51 55 60 61 63 66 67 69 71 73 75 76 76 76 76 75
22 20 16 13 12 15 15 14 14 16 14 18 12 17 18 23 27 30 32 34 34 35 37 40 44 50 55 58 60 63 65 67 69 71 74 77 79 81 82 84 84 84 83 81
21 18 15 14 15 12 11 12 16 14 16 19 15 16 18 27 29 30 32 35 38 40 44 49 52 56 60 63 65 68 71 73 76 79 81 84 86 87 88 87 86 85 85 82
17 17 16 17 16 12 11 12 15 16 17 19 20 15 27 24 27 30 33 37 42 46 51 55 58 62 66 68 71 73 75 79 83 86 89 90 90 90 89 90 88 87 85 82
8 9 11 13 13 12 9 14 15 16 15 16 19 21 24 28 31 36 40 44 48 51 56 60 64 67 69 71 74 78 82 85 88 92 94 94 93 91 88 86 85 84 82 81
12 13 15 17 17 14 14 17 16 13 17 22 25 28 31 35 41 45 48 51 55 59 62 64 66 69 74 78 80 84 88 91 92 92 92 88 85 83 81 80 78 77 77 77
17 18 20 21 21 16 16 17 18 22 23 29 31 34 37 41 45 51 55 58 61 63 65 68 72 75 78 80 85 89 91 92 90 88 85 82 77 72 71 71 72 73 72 71
12 14 17 18 17 16 20 22 27 29 31 33 35 39 44 48 52 55 57 59 62 65 69 73 76 79 83 87 90 93 91 86 83 81 76 71 69 69 70 68 66 65 66 67
14 15 16 19 20 20 24 26 29 32 35 39 44 48 52 56 56 57 58 61 67 71 74 75 80 85 88 88 88 82 77 74 70 66 65 67 65 62 61 62 64 66 69 72
17 18 21 22 24 26 29 34 35 38 43 48 52 55 59 61 62 62 64 68 71 73 75 81 85 88 86 80 74 68 65 61 61 62 61 59 60 63 65 67 69 73 76 77
22 25 26 25 28 33 36 39 43 48 51 53 56 59 62 65 66 68 69 72 73 77 82 86 87 83 76 68 65 62 59 60 60 59 60 62 63 66 70 74 76 78 79 82
27 33 29 31 32 37 40 45 49 51 53 56 58 61 62 65 68 71 74 75 78 83 85 84 80 72 65 63 62 61 60 60 60 61 64 67 69 72 76 79 81 83 85 88
38 35 35 35 38 41 43 48 51 53 55 58 59 61 64 67 70 72 74 78 83 83 84 79 69 64 62 61 61 61 61 61 64 67 70 73 76 79 82 84 86 87 88 90
41 38 40 39 43 47 48 51 54 56 57 59 61 64 67 70 72 74 77 80 81 81 78 71 65 62 61 60 60 60 63 66 70 73 76 79 83 85 88 90 88 87 86 83

GFSCGP_500_spd_006.txt.gz
Wind_Speed
49 50 47 39 33 27 34 29 30 27 26 26 28 27 27 29 22 23 21 22 22 21 19 18 19 20 22 25 29 32 33 33 31 29 28 26 26 25 26 29 31 32 33 35
51 47 41 33 32 32 35 32 27 27 26 26 28 29 26 24 21 20 19 19 19 19 18 18 21 24 27 31 34 34 33 29 26 25 25 26 27 29 30 32 33 35 37 40
51 43 39 36 35 37 35 32 28 27 25 26 31 26 22 21 22 16 16 18 17 17 18 20 24 28 32 35 36 35 30 28 27 27 27 28 29 31 34 37 39 42 44 46
52 44 50 45 39 39 31 29 30 28 26 29 30 25 23 23 20 16 17 19 18 19 21 25 28 32 34 35 33 29 29 30 29 30 31 34 36 37 39 41 44 46 48 49
55 55 51 47 36 31 25 28 29 28 25 28 28 24 22 20 19 18 19 21 22 23 25 28 31 32 30 28 27 27 28 30 32 34 36 38 39 40 41 42 45 47 49 52
55 51 48 43 37 31 28 28 30 28 27 29 29 26 19 19 20 21 23 25 26 27 29 28 25 24 24 25 27 29 30 31 32 34 36 37 39 42 44 47 49 52 55 57
53 47 51 46 36 33 30 32 33 31 30 29 30 29 23 23 23 24 27 28 28 27 26 24 24 24 25 26 27 28 30 32 34 36 38 41 44 47 49 52 54 55 56 57
45 50 43 40 38 31 30 33 32 29 29 30 29 30 25 24 24 27 28 29 26 25 25 23 22 23 23 26 29 31 33 36 38 40 43 46 48 50 51 52 54 57 59 61
42 38 41 35 34 34 34 32 30 29 29 29 29 28 24 22 24 25 23 23 23 24 22 22 24 25 27 31 33 34 36 39 42 43 44 45 47 51 54 58 60 62 63 65
37 34 35 35 36 36 32 30 29 28 28 28 27 23 19 18 19 19 19 20 22 23 23 26 27 30 32 34 36 37 39 40 41 45 48 50 54 57 58 59 61 64 68 71
36 36 36 36 36 32 30 28 26 26 25 20 19 15 15 16 18 20 20 22 23 25 26 28 31 34 36 38 39 39 40 44 49 53 56 59 61 63 65 66 69 72 75 78
38 35 34 32 31 31 28 27 26 22 18 15 13 14 18 20 23 23 23 22 22 23 27 31 33 34 35 37 40 44 49 52 55 59 62 64 66 68 70 74 77 80 83 86
32 32 33 34 32 29 26 24 21 20 18 15 15 16 20 22 23 23 23 23 26 31 33 34 34 35 39 43 47 51 54 57 61 64 66 68 70 73 77 81 84 87 91 94
30 29 26 22 19 21 22 21 20 18 16 16 13 18 19 23 24 23 24 27 29 31 32 33 36 40 45 49 53 57 61 64 66 68 70 74 78 81 84 87 91 95 98 99
26 23 22 23 23 22 21 20 19 16 19 17 18 17 24 25 21 20 24 27 30 32 35 39 42 46 51 55 59 62 65 68 70 74 78 80 82 85 90 94 97 100 101 99
21 22 19 20 19 18 18 19 19 19 21 19 20 16 23 20 23 25 27 30 33 35 38 43 48 52 58 62 65 67 70 73 77 80 81 84 88 92 96 98 98 97 94 94
36 30 29 25 21 19 20 20 20 21 21 20 15 17 19 21 24 28 30 33 37 41 46 51 55 60 64 67 69 72 74 76 78 82 87 90 94 96 96 92 89 88 84 78
15 16 16 18 17 20 21 23 22 22 22 17 17 21 23 26 27 30 36 40 45 49 54 58 60 63 65 67 70 73 74 77 82 87 91 94 95 91 86 82 78 72 69 67
15 16 18 19 20 20 21 21 20 19 21 22 22 24 28 31 34 39 43 47 50 54 57 59 60 63 66 70 72 74 77 82 87 91 94 92 85 80 75 70 67 66 64 64
19 20 21 20 20 20 20 20 20 23 24 25 28 31 34 38 42 45 49 52 54 57 58 61 63 66 69 70 73 78 84 87 91 92 86 79 74 70 67 66 65 65 67 69
17 17 16 15 16 17 19 19 23 24 26 30 34 37 40 43 47 50 53 56 59 60 62 65 69 70 71 74 80 85 88 91 88 78 72 70 68 68 67 66 68 69 72 76
19 18 18 18 18 20 19 24 27 29 31 34 37 41 45 49 52 55 57 59 61 63 65 68 70 71 76 82 85 89 92 86 76 71 68 67 67 68 69 70 73 76 80 83
22 20 20 22 23 23 27 29 30 33 37 40 43 47 49 52 55 58 60 62 65 68 71 72 72 76 82 86 89 90 84 75 68 66 66 66 66 69 73 75 78 82 88 92
23 25 24 26 28 32 33 34 37 38 41 44 46 48 50 53 56 59 62 65 68 71 73 74 76 82 87 90 89 83 75 68 65 66 67 68 69 72 76 81 87 91 94 97
29 28 28 29 31 36 37 40 41 43 45 47 49 50 52 54 57 62 65 67 70 73 73 76 82 86 89 87 79 73 68 66 66 66 68 70 74 79 84 87 91 92 92 90
34 31 30 30 34 36 39 43 46 48 50 52 53 55 57 59 61 64 67 70 72 73 76 82 85 87 85 78 69 66 65 66 68 69 72 77 82 86 89 90 88 81 74 69

GFSCGP_500_spd_009.txt.gz
Wind_Speed
59 54 49 43 34 31 31 30 26 25 24 22 22 21 19 16 17 19 21 27 28 22 25 21 22 21 20 21 22 25 29 32 36 38 38 36 33 32 31 30 29 30 31 33
53 53 42 37 37 34 33 31 25 26 25 23 22 23 23 21 22 20 25 25 22 21 21 20 19 20 21 23 26 29 32 34 36 36 34 32 31 29 29 31 32 34 36 38
53 47 39 37 37 30 32 28 25 24 23 23 23 23 22 23 20 20 21 23 20 20 20 20 20 22 24 27 31 33 34 35 33 30 29 28 29 30 31 33 35 36 38 40
48 45 38 37 34 31 33 25 28 29 24 23 24 22 20 19 20 22 21 21 19 19 17 20 22 26 30 32 34 35 33 30 27 27 28 30 30 32 33 35 37 40 42 45
52 46 41 37 29 28 18 23 28 29 28 27 22 24 19 20 22 24 21 21 20 21 20 24 28 31 34 35 33 28 26 26 28 29 31 32 33 34 36 39 42 45 48 50
49 45 42 30 35 30 27 26 29 29 29 28 20 24 17 18 22 22 22 22 24 25 24 27 31 34 34 30 28 27 27 29 30 32 34 35 38 39 41 44 47 49 50 50
50 46 40 38 43 40 34 31 29 28 30 23 21 24 16 21 23 25 25 25 28 29 29 31 34 31 28 27 28 29 30 32 34 36 38 40 42 44 45 45 46 49 53 56
53 52 42 46 44 37 33 31 28 28 28 25 25 23 20 22 24 27 29 29 31 32 32 32 31 26 28 30 31 32 34 36 37 40 42 42 40 43 46 49 53 57 59 60
49 43 44 43 42 38 35 33 29 30 29 28 27 22 21 24 25 29 31 32 31 31 31 29 27 28 30 33 34 35 37 39 40 42 41 42 48 52 54 58 61 64 65 67
40 39 42 42 41 43 39 33 34 32 29 28 27 22 22 22 24 27 26 26 27 27 25 26 27 30 33 35 35 37 38 38 38 40 45 50 53 57 61 64 67 68 70 72
36 36 39 42 40 36 34 34 34 30 30 25 23 21 17 18 20 20 21 23 24 27 28 28 29 32 34 35 35 35 37 39 43 47 51 55 59 63 66 67 68 71 75 78
36 34 33 35 35 35 35 33 32 31 25 24 20 16 15 17 21 23 24 25 26 28 27 27 30 33 34 34 36 39 42 46 49 53 58 62 65 67 68 71 74 78 80 83
33 37 34 36 37 35 32 31 29 28 24 20 18 15 18 23 26 25 25 25 24 24 28 30 31 32 34 36 39 43 47 52 58 62 65 67 70 72 75 78 80 81 82 86
33 34 34 30 24 25 26 26 26 26 22 16 19 21 26 28 26 25 22 21 23 27 28 30 32 35 37 40 43 48 52 57 61 65 69 72 74 76 77 78 80 83 89 94
36 33 28 25 26 28 27 26 26 23 21 24 21 24 28 30 24 22 24 26 28 28 29 32 34 37 42 46 51 54 58 62 66 68 70 72 73 75 77 82 88 93 97 101
24 26 25 26 28 27 27 26 26 25 24 24 26 27 34 27 24 25 26 28 28 31 33 36 40 44 48 52 55 59 63 65 67 69 69 70 74 79 85 90 94 98 101 98
24 25 26 24 25 28 29 25 24 25 26 26 27 25 25 26 28 28 28 30 32 35 39 42 46 50 54 56 59 62 65 67 68 69 72 76 81 87 91 97 100 100 94 87
29 28 26 24 25 28 25 28 28 28 26 26 21 21 25 28 29 31 32 35 38 41 43 47 51 55 59 61 63 65 68 70 72 74 78 83 87 92 97 100 97 90 84 80
36 30 29 28 31 32 30 25 24 24 23 22 24 24 26 28 30 35 37 40 43 46 49 52 57 58 59 62 65 68 70 73 75 78 84 89 95 99 97 91 83 79 76 75
12 12 17 18 19 18 24 23 24 26 28 24 25 27 29 32 34 37 41 43 46 50 52 54 56 59 62 65 68 71 73 75 79 85 91 96 99 95 87 80 75 73 74 75
14 18 21 24 25 25 24 25 25 27 22 24 26 29 31 35 38 40 44 47 49 51 54 57 59 62 64 67 70 71 74 78 83 89 95 95 87 80 74 71 71 72 75 78
17 19 19 20 18 17 18 20 23 23 25 27 30 33 35 39 43 45 48 51 52 54 57 59 61 64 67 70 71 74 79 83 89 93 90 83 76 70 69 69 73 78 84 88
19 19 19 21 19 19 21 23 25 27 29 31 34 38 41 44 47 49 51 53 55 57 60 63 65 67 70 72 75 80 84 89 91 87 80 73 67 65 68 73 79 85 90 93
20 21 22 24 22 25 26 28 30 32 34 37 40 43 46 48 50 52 55 57 60 62 62 65 67 70 73 76 80 83 87 89 86 80 73 67 64 65 71 78 84 89 92 90
26 26 22 25 27 30 32 33 35 36 38 41 44 47 49 50 53 57 59 61 62 62 64 66 69 72 75 79 84 87 88 85 79 72 67 64 64 69 75 81 87 89 85 80
30 30 29 27 30 33 34 37 38 41 44 46 47 50 52 56 59 61 63 62 62 62 65 68 71 74 77 82 84 86 83 79 73 69 65 64 67 72 78 84 85 82 76 71

GFSCGP_500_spd_012.txt.gz
Wind_Speed
56 57 60 49 36 32 34 37 32 32 33 26 23 21 20 17 14 17 17 16 17 20 26 29 26 23 23 22 24 22 23 27 30 32 34 36 37 36 35 34 32 31 32 34
58 56 44 40 40 39 37 35 30 31 30 25 22 19 20 18 16 17 18 19 21 22 22 23 22 23 21 20 22 24 27 31 34 37 37 36 33 31 30 31 32 34 36 38
58 52 44 40 41 38 32 31 30 29 29 23 24 20 21 20 20 20 18 18 18 18 18 22 23 21 19 21 23 26 30 35 37 37 33 30 29 30 31 33 36 38 39 41
55 37 43 43 40 35 29 28 30 30 28 23 24 21 19 20 22 22 20 19 19 16 17 22 23 22 21 22 27 31 34 35 33 30 29 30 31 33 35 37 39 41 44 46
58 52 41 41 36 29 23 29 27 29 26 25 19 21 14 20 24 24 23 20 19 18 19 23 24 26 27 28 31 34 35 31 30 30 32 33 35 37 38 40 42 43 43 43
55 53 36 32 31 28 27 28 26 27 28 28 20 22 11 21 23 21 20 21 20 20 22 25 26 29 32 33 32 32 31 31 32 35 37 37 39 40 42 42 41 41 45 49
52 47 44 37 32 31 37 27 24 24 24 18 22 25 13 19 21 20 20 21 21 23 25 27 30 32 34 34 33 31 32 35 37 39 40 41 42 41 40 39 44 47 51 55
51 51 46 43 34 33 30 26 21 21 20 22 21 22 16 19 23 23 23 23 25 26 28 30 31 32 35 35 32 34 36 39 40 42 43 42 40 39 42 46 50 54 58 62
50 44 41 36 34 28 34 31 25 24 23 22 22 20 19 19 22 24 24 26 29 29 29 27 28 32 33 33 36 38 40 41 42 41 40 40 42 46 50 55 59 64 67 70
45 43 41 38 36 40 36 31 30 29 27 23 21 20 19 20 22 23 25 27 28 27 26 26 29 32 34 35 38 39 39 39 40 40 41 44 48 52 55 60 64 68 71 73
40 39 40 37 36 36 35 34 31 30 30 27 22 22 20 20 22 24 23 23 25 24 24 28 31 32 35 37 36 36 38 38 39 41 44 47 51 55 59 64 67 71 74 76
37 36 34 37 38 38 39 37 33 32 32 27 24 20 20 19 22 24 23 24 25 26 28 31 31 33 36 37 35 36 36 38 40 44 49 53 57 61 65 68 71 72 75 77
33 37 38 37 37 39 37 33 33 31 29 27 25 19 21 23 23 23 23 26 27 29 29 31 34 35 34 35 35 36 39 44 47 51 57 59 63 65 68 69 73 75 77 79
32 33 35 33 29 26 31 27 27 28 30 25 24 20 22 26 24 23 26 27 28 29 32 34 34 34 34 35 38 42 47 52 56 60 61 63 65 69 71 73 74 78 81 84
27 29 32 26 26 29 29 29 29 30 26 29 21 26 29 27 22 26 26 26 30 32 33 33 33 34 37 41 45 50 54 57 59 61 63 66 69 71 73 76 79 82 85 90
23 25 25 26 26 26 27 29 30 29 28 27 24 25 27 26 25 26 26 28 32 32 32 33 35 39 44 47 51 53 55 57 60 63 65 67 71 74 76 79 82 86 91 96
24 23 27 28 28 27 30 28 27 26 26 26 26 24 26 26 26 25 27 32 34 34 34 37 40 45 48 51 53 54 57 61 63 65 68 71 74 76 80 83 88 92 96 97
22 21 23 21 24 28 23 25 25 26 25 26 25 24 23 23 24 28 33 34 34 35 38 42 45 49 51 53 55 58 61 63 66 69 72 74 76 80 83 88 93 95 95 93
25 23 21 21 23 21 24 25 25 27 27 28 28 23 23 25 30 33 34 34 35 39 43 46 48 50 53 55 58 61 64 67 70 72 74 76 79 83 88 92 94 93 90 83
26 28 27 25 25 26 23 27 26 26 24 22 21 23 27 31 34 35 35 37 40 43 46 48 50 53 56 59 63 65 68 70 71 73 76 79 83 88 92 93 91 88 81 73
15 20 21 29 33 36 32 23 27 26 25 24 28 29 31 32 32 34 38 40 43 46 49 51 54 58 61 63 66 68 69 70 72 75 79 83 88 91 92 90 85 78 72 72
20 22 22 24 24 25 23 26 28 27 26 26 26 29 31 32 35 38 40 44 46 49 53 56 59 62 64 66 66 67 68 71 74 78 82 87 90 90 89 84 76 72 72 74
16 16 16 19 18 19 19 20 22 23 24 26 28 31 33 36 38 41 44 47 51 54 58 61 63 65 65 64 65 68 70 72 76 81 86 88 88 88 82 76 72 71 74 78
13 14 15 18 18 20 21 23 25 27 29 30 32 33 36 39 43 47 49 53 56 60 62 63 63 62 62 64 66 68 70 75 80 84 87 89 87 80 74 72 73 74 76 80
17 19 19 21 23 25 26 29 30 31 32 34 36 38 41 44 48 52 54 58 61 63 64 62 61 61 63 65 66 70 74 79 83 87 89 88 80 74 71 71 73 74 77 82
27 27 25 24 27 29 31 31 31 32 34 37 40 43 47 50 53 55 59 62 64 62 59 59 60 60 61 64 69 74 79 83 86 89 86 80 75 72 70 71 70 73 77 80

GFSCGP_500_spd_015.txt.gz
Wind_Speed
66 60 61 58 51 39 36 36 36 34 38 33 31 23 28 22 17 17 16 18 18 19 21 23 25 26 25 24 25 26 25 24 24 25 29 33 38 41 40 38 35 34 34 35
65 60 53 45 45 41 37 38 34 35 35 31 29 23 27 22 19 18 17 17 19 21 24 27 27 21 20 22 24 25 24 24 25 29 32 36 39 39 37 35 35 36 37 38
62 56 47 45 46 44 38 34 32 35 35 31 27 24 28 23 21 20 18 17 17 20 23 22 20 20 17 19 23 25 26 25 28 31 34 36 34 32 34 36 38 39 40 41
58 47 46 42 43 40 35 30 34 36 35 29 27 24 25 22 21 23 23 20 21 20 20 19 19 19 19 18 22 24 28 31 32 34 33 33 33 34 37 39 41 42 43 43
54 32 48 40 36 36 32 33 36 37 32 27 26 23 23 25 22 23 24 23 23 22 21 20 19 21 23 22 24 27 30 32 34 34 34 34 36 39 41 41 43 42 41 41
49 44 43 39 34 34 34 38 36 32 30 26 23 22 23 20 19 22 23 23 23 24 22 22 23 24 26 27 28 30 31 32 34 34 34 37 39 40 42 43 42 41 41 45
48 51 30 35 36 38 38 37 34 31 30 23 24 24 17 19 18 22 23 23 21 21 22 23 25 26 29 30 29 30 32 33 34 35 38 39 41 41 40 39 39 42 46 48
48 57 47 40 43 45 40 35 30 27 24 25 21 22 20 20 20 21 23 22 21 23 25 26 27 28 29 30 30 31 32 34 36 38 39 39 39 39 39 40 44 46 48 52
52 52 57 39 38 35 37 37 29 26 23 22 20 18 22 18 20 21 23 23 25 28 27 27 27 28 29 31 31 31 33 36 38 37 38 38 39 39 42 44 48 52 56 59
47 48 50 49 33 32 34 28 34 30 22 20 18 15 20 22 22 23 23 26 27 27 26 26 26 29 31 30 31 33 35 36 37 37 37 38 40 43 46 51 55 60 65 69
43 43 44 43 41 34 30 33 32 29 25 23 21 18 18 20 22 24 24 25 26 25 24 25 27 28 30 33 35 35 34 36 35 35 37 41 45 49 55 58 62 66 69 72
42 42 41 39 37 36 35 32 30 30 27 25 23 19 19 22 21 23 25 24 25 24 24 26 29 30 33 35 35 35 33 33 35 39 44 49 53 56 60 64 67 69 71 73
36 39 40 42 43 40 38 35 35 33 29 27 26 24 23 24 24 24 24 24 23 24 25 27 30 32 33 34 32 33 34 37 42 47 51 54 58 61 65 67 69 70 72 74
34 34 33 35 33 32 31 31 31 33 33 28 26 20 22 23 26 28 25 24 26 26 28 29 31 32 32 30 33 36 40 44 49 53 56 58 62 64 65 67 69 72 75 78
31 31 33 36 35 34 33 33 33 33 29 31 21 24 26 29 27 25 25 27 27 28 29 31 30 29 30 33 38 42 46 50 53 56 59 61 64 66 69 70 73 75 78 81
28 28 31 32 35 34 35 32 32 34 33 30 25 23 26 26 26 25 26 25 27 29 30 29 30 34 38 40 44 48 51 54 56 59 61 64 67 69 71 73 76 77 80 84
17 17 19 22 27 26 27 23 26 27 27 26 25 20 27 26 24 25 26 27 28 29 30 34 35 37 40 43 47 50 53 57 59 62 65 67 69 71 73 75 77 79 83 86
19 19 20 23 25 27 20 23 24 25 26 25 23 23 25 25 24 25 25 26 28 30 34 35 37 40 43 47 50 54 57 59 62 65 68 69 70 72 74 76 79 82 85 88
28 26 23 23 25 20 17 18 21 21 23 25 23 24 27 27 26 25 25 28 32 35 35 37 40 43 47 51 54 57 59 63 66 68 69 69 70 72 74 78 82 84 86 89
23 19 20 23 24 18 14 15 18 23 23 23 24 29 32 33 32 25 29 33 34 34 36 39 43 47 51 54 57 61 64 66 67 68 68 69 71 73 77 81 83 85 87 87
20 21 23 20 20 20 20 20 25 27 20 24 27 27 24 24 28 31 32 33 34 37 40 44 48 52 55 59 63 66 67 66 65 66 67 69 72 76 79 81 83 86 87 84
16 19 22 22 23 26 22 19 27 31 29 23 23 27 29 29 29 31 32 35 38 41 45 49 52 55 60 65 66 67 66 64 65 66 67 71 75 78 81 83 86 86 84 80
15 16 15 19 18 19 19 21 22 25 27 26 26 27 27 28 30 32 35 38 43 46 50 52 56 61 65 66 66 64 63 64 64 65 69 73 76 80 84 86 85 83 79 74
12 12 11 13 14 17 18 20 22 24 24 24 24 26 28 30 33 37 41 44 47 49 53 57 62 65 67 65 62 62 62 62 64 68 71 74 79 83 85 85 83 78 73 71
13 13 13 13 15 18 20 23 24 25 26 28 29 31 32 35 38 41 44 47 50 53 57 62 66 67 63 61 61 60 61 64 67 71 74 79 82 85 84 82 78 73 69 71
17 19 20 20 19 19 22 26 28 29 30 31 33 34 36 39 42 44 47 50 54 58 63 66 63 59 59 58 58 60 63 67 71 75 79 83 85 85 83 79 71 67 67 69

GFSCGP_500_spd_018.txt.gz
Wind_Speed
58 69 72 66 62 61 57 44 41 36 40 40 37 29 26 27 22 22 22 22 27 27 25 24 25 25 27 29 31 31 25 26 27 26 26 28 31 33 37 40 40 39 37 37
54 67 69 51 57 56 49 45 41 41 38 37 37 29 30 30 23 25 23 24 27 26 24 24 25 27 30 33 32 26 25 25 25 26 27 32 34 37 39 38 37 37 37 39
54 64 63 61 54 55 52 47 41 36 34 37 35 29 31 30 24 27 25 26 25 24 23 24 26 29 31 29 26 22 22 24 24 26 29 32 35 36 35 35 36 37 39 40
53 59 57 56 53 51 47 43 40 37 33 37 34 29 28 30 27 27 27 27 25 24 23 23 25 26 26 26 26 26 27 26 28 30 31 32 33 34 35 36 38 40 40 42
50 59 60 42 47 45 42 43 39 37 35 34 31 29 27 31 28 27 29 29 27 25 26 26 26 25 26 26 25 26 27 29 31 32 34 34 34 34 37 39 39 40 41 42
48 49 48 40 42 45 45 44 39 35 33 31 30 28 27 31 29 28 28 29 28 28 29 29 28 27 27 26 26 28 29 31 32 33 35 35 35 37 38 39 39 40 41 42
59 33 58 46 41 46 47 43 38 35 34 28 28 29 24 31 28 27 26 27 27 28 27 28 28 28 26 27 29 30 30 31 33 34 34 34 36 38 39 39 40 41 43 45
60 32 44 54 46 43 47 42 38 35 29 28 30 29 27 25 29 26 25 25 25 25 27 28 29 28 28 29 29 30 31 33 33 33 34 36 36 37 38 39 40 42 44 49
53 50 42 50 44 41 45 43 39 33 29 29 27 28 25 28 28 27 23 23 25 26 28 28 29 29 28 30 31 31 31 31 33 34 35 35 35 35 36 39 43 47 52 55
54 52 35 44 45 42 37 38 36 34 29 28 24 27 26 23 26 28 24 23 23 25 26 28 28 29 30 30 29 29 31 32 32 33 33 34 35 37 41 46 50 53 57 60
50 46 52 37 43 43 42 41 40 34 31 29 24 23 24 23 22 22 23 24 26 27 28 28 28 28 28 28 29 31 31 30 31 32 33 35 39 44 48 52 55 58 62 65
43 45 49 42 36 35 41 39 35 36 33 30 23 22 22 23 21 22 23 25 27 27 29 27 26 27 28 29 30 30 30 31 32 34 37 41 46 50 53 56 60 63 65 68
42 41 40 43 43 45 28 28 31 32 32 30 27 22 21 24 25 22 22 24 26 26 26 25 25 27 29 30 30 31 31 33 36 40 44 48 51 55 58 61 64 66 69 71
40 38 38 38 39 32 33 30 28 27 29 28 28 24 24 26 27 26 25 28 28 26 26 26 27 29 30 30 30 31 33 38 43 46 49 52 56 60 63 65 67 70 72 73
35 34 33 34 33 35 36 37 37 36 31 34 26 29 26 29 28 29 30 29 28 27 27 27 28 30 29 29 32 36 39 43 46 49 53 57 60 63 66 68 70 72 73 74
24 27 28 32 34 37 40 40 38 36 36 32 33 30 28 32 31 30 31 29 28 27 28 29 30 29 30 33 36 39 43 46 49 53 57 61 64 67 69 71 71 71 73 76
28 27 28 31 33 33 34 36 36 35 35 30 33 21 32 34 33 30 28 27 27 29 30 29 29 31 33 37 39 42 46 49 53 58 62 65 69 70 71 70 70 72 73 75
22 23 27 26 32 33 27 30 32 33 32 29 24 25 28 29 28 27 27 28 30 30 29 29 32 34 36 39 42 45 49 53 58 62 66 70 71 70 69 69 71 72 74 77
23 19 19 19 20 20 21 24 23 23 22 24 25 26 27 27 28 29 30 30 30 31 31 31 35 37 39 42 45 49 53 58 62 67 71 71 68 67 68 70 71 73 76 80
24 23 21 18 18 18 20 21 23 24 21 20 22 24 26 26 28 28 30 31 33 30 30 35 38 38 41 45 49 53 58 62 67 70 70 66 65 67 68 70 72 75 80 84
26 28 30 26 16 18 23 25 22 18 16 20 23 26 26 25 26 26 27 28 29 32 35 35 37 40 45 49 54 58 62 67 71 68 64 65 65 66 68 71 74 79 84 88
24 22 22 19 20 16 14 18 21 20 23 23 24 23 25 25 28 28 29 30 31 32 33 37 41 45 49 54 59 62 67 69 64 62 62 63 64 66 69 73 79 85 90 92
18 20 17 13 13 13 14 14 21 21 20 23 25 25 27 27 27 28 28 28 30 34 38 42 46 50 54 58 61 66 65 60 59 59 60 61 65 69 74 79 85 91 93 93
15 15 14 14 12 12 13 16 18 20 21 22 23 25 26 26 26 27 29 32 36 40 43 46 50 54 57 61 64 58 56 56 57 58 61 64 69 75 81 87 92 93 93 90
18 15 13 12 11 11 12 15 18 20 22 23 24 25 27 28 29 31 34 38 40 43 46 50 54 57 60 56 53 53 53 55 58 61 65 70 75 82 87 90 92 92 89 84
16 15 13 12 13 15 16 17 19 22 25 28 30 31 31 32 34 36 39 41 43 46 49 53 56 54 51 50 50 51 54 58 61 66 71 77 82 87 90 92 91 88 80 71

GFSCGP_500_spd_021.txt.gz
Wind_Speed
59 64 59 66 64 58 55 62 58 52 45 47 42 41 36 36 31 26 26 27 25 25 30 29 29 28 27 28 29 29 31 33 36 38 32 31 31 31 31 33 37 39 39 37
57 66 61 59 62 60 61 55 55 50 49 46 42 42 35 36 32 24 24 26 24 26 32 31 30 29 28 30 30 31 33 36 35 30 30 31 31 33 35 38 39 39 37 36
47 49 52 59 60 54 57 54 50 52 52 41 44 40 34 32 37 24 26 27 25 26 30 32 30 30 30 30 31 33 34 30 28 29 29 31 33 35 38 41 40 38 36 37
38 41 48 53 56 54 58 53 52 52 47 41 44 39 39 36 35 28 26 28 26 27 29 30 30 30 30 30 30 30 29 28 30 31 32 33 35 38 39 39 37 38 38 40
39 43 46 58 41 44 56 49 50 48 45 44 43 40 30 34 35 30 27 28 27 27 29 31 31 30 29 29 29 28 28 29 30 31 34 36 37 38 38 38 37 38 40 41
37 35 47 59 41 41 57 53 48 48 45 43 36 33 31 33 36 31 27 28 28 30 30 31 32 32 31 31 29 28 28 30 31 33 35 36 38 38 38 37 39 40 41 41
27 43 51 60 46 41 41 51 51 46 46 37 38 33 28 33 32 30 27 27 29 31 32 33 34 32 32 31 28 29 29 31 33 35 36 38 37 37 37 38 39 40 40 41
31 51 51 52 48 47 43 50 51 47 43 35 31 31 33 29 29 30 27 27 28 30 31 32 33 33 33 31 31 31 31 32 34 36 36 36 36 36 37 38 39 39 42 45
44 41 44 46 44 47 49 51 43 43 39 32 32 29 30 28 29 27 28 26 28 29 29 30 31 30 31 31 32 33 33 33 33 33 34 35 35 35 36 37 40 43 48 51
49 44 47 41 39 42 42 48 41 37 33 29 29 27 30 27 28 29 28 29 30 29 28 28 29 30 32 33 33 31 31 30 31 34 34 34 34 36 38 41 45 49 52 55
42 23 55 55 44 41 41 43 41 38 34 27 24 26 29 26 27 28 29 30 28 28 27 27 29 31 32 32 31 31 30 30 32 33 33 34 36 39 43 47 51 53 57 60
27 26 41 57 48 43 37 36 36 34 34 33 29 28 27 24 25 25 26 29 29 28 28 29 31 31 31 30 30 30 31 32 33 33 34 37 40 45 48 51 54 58 62 65
21 41 32 47 42 40 38 36 36 37 37 33 29 28 23 20 20 22 25 25 26 27 28 29 29 28 29 30 31 31 32 33 33 34 38 43 46 48 51 55 59 63 67 71
34 38 28 23 26 34 36 32 32 32 34 33 30 31 25 24 24 24 24 26 27 29 30 30 29 29 30 32 33 33 33 35 37 40 43 47 49 51 56 60 64 68 72 75
35 36 35 30 30 26 23 35 19 33 32 31 30 32 28 28 28 26 28 29 33 33 32 30 30 31 31 33 34 34 35 38 40 42 46 50 52 56 61 65 69 73 75 74
26 28 27 25 25 25 27 28 29 26 27 28 27 26 30 32 32 34 32 32 33 34 32 30 31 32 33 35 34 36 38 40 42 46 49 53 57 62 66 70 75 76 72 70
22 28 25 25 23 24 28 30 31 30 30 31 29 27 33 35 36 39 37 33 33 31 31 31 32 35 34 34 37 39 40 42 45 48 53 57 62 67 71 75 75 70 68 68
20 18 25 27 26 27 26 27 31 33 34 33 31 33 36 34 39 37 34 32 32 32 33 33 34 34 36 38 38 39 42 45 48 52 57 62 67 71 75 70 66 66 67 69
23 23 23 24 24 26 23 25 27 31 31 35 34 35 30 30 31 33 32 32 32 32 32 33 35 37 37 37 39 42 44 48 52 57 61 66 71 73 66 63 64 66 69 73
22 23 21 20 18 17 20 24 25 27 23 24 24 25 27 30 32 29 29 30 30 32 34 36 38 39 36 39 41 44 47 52 57 62 66 70 68 61 61 62 66 69 74 78
22 23 21 20 17 15 17 21 21 20 19 22 23 24 25 27 27 25 29 28 29 31 33 33 34 36 37 40 43 47 52 56 61 66 68 61 58 59 62 65 69 73 79 85
20 24 24 20 21 16 16 18 20 19 20 19 20 21 24 23 24 24 28 31 32 31 32 32 34 37 39 43 47 51 55 61 65 63 56 55 57 61 64 69 74 80 86 92
26 23 24 26 21 18 16 16 15 17 21 21 21 23 24 25 26 26 27 28 29 31 32 34 36 38 42 46 50 55 60 63 56 53 54 56 60 64 69 74 80 85 91 95
16 27 24 20 19 14 14 14 15 15 17 20 19 19 20 22 24 25 26 27 29 31 33 36 39 42 46 50 55 60 57 51 51 53 56 59 64 69 73 79 85 92 96 97
23 20 17 16 13 14 14 13 13 14 15 17 19 21 23 24 25 27 29 31 33 35 37 39 43 46 50 55 56 50 48 50 53 55 59 64 69 74 79 85 91 96 98 100
23 16 15 16 15 11 10 10 12 14 16 18 20 23 26 28 30 32 33 34 35 36 39 42 45 50 53 49 46 46 49 52 55 60 64 69 74 79 85 90 93 97 99 91

GFSCGP_500_spd_024.txt.gz
Wind_Speed
53 57 54 52 51 52 51 50 53 54 54 52 50 45 42 39 40 37 33 31 33 28 26 27 28 29 30 28 26 25 27 28 30 32 35 37 38 33 33 32 32 33 36 40
57 61 53 55 53 53 54 55 52 48 54 48 50 46 47 40 38 37 31 31 34 28 30 28 28 27 27 28 26 27 29 31 33 35 35 37 31 32 31 33 35 38 40 42
59 54 52 55 57 55 55 55 53 49 44 47 52 48 46 38 35 38 32 30 32 27 27 27 28 29 28 27 28 29 29 32 35 37 31 31 32 34 34 36 38 40 41 41
52 49 53 57 62 60 58 53 45 35 44 51 48 47 44 39 41 41 37 31 33 26 26 26 27 28 28 28 28 29 30 33 34 31 30 31 34 36 36 38 41 41 41 41
38 36 42 53 54 52 57 54 54 31 35 47 45 50 42 40 41 38 35 32 31 26 28 26 27 26 26 27 28 29 31 32 32 32 33 35 37 38 39 40 41 39 39 40
29 30 31 33 44 52 51 46 41 49 47 53 51 43 39 39 35 36 36 34 29 25 27 27 26 26 26 28 29 30 32 33 33 34 36 36 38 39 39 40 41 40 40 40
26 26 20 35 45 62 67 54 39 46 51 50 42 42 34 36 37 35 32 32 28 26 27 27 26 27 27 30 31 33 33 34 35 36 37 37 39 39 39 39 39 40 40 39
18 19 31 34 47 57 45 38 38 43 46 44 43 45 38 37 30 32 32 30 27 25 27 26 26 27 29 32 32 33 34 34 35 37 37 39 39 38 38 38 39 39 39 41
3 13 26 39 39 52 58 44 38 42 39 40 38 36 35 30 29 29 28 26 24 25 26 25 26 27 29 31 32 31 32 35 36 37 37 38 37 38 38 39 38 40 42 46
9 11 34 47 43 27 45 38 52 47 36 31 37 33 34 27 26 27 23 22 23 23 24 25 25 25 27 30 32 33 33 34 35 36 35 36 37 37 38 39 41 43 47 51
22 28 30 26 33 31 42 42 42 44 38 28 35 35 32 24 22 25 23 23 22 24 27 27 25 26 29 31 31 31 33 34 34 34 35 37 37 38 39 41 45 49 51 54
24 11 17 29 34 29 42 37 39 40 35 30 27 28 23 20 20 21 22 25 28 28 28 28 27 28 31 32 31 33 33 33 34 34 36 37 37 39 42 45 48 51 55 59
19 9 23 34 29 28 41 37 34 40 33 28 25 24 21 20 19 21 24 25 25 25 26 28 28 30 32 32 32 32 32 34 35 36 38 38 40 43 46 48 51 55 59 64
9 7 12 38 33 27 29 29 29 32 29 26 26 26 24 19 20 21 21 20 20 22 25 27 29 32 33 33 32 33 33 35 37 38 39 41 43 46 49 51 56 60 65 69
13 15 15 38 38 26 24 22 27 30 29 31 31 27 24 25 25 23 22 23 23 25 26 29 32 33 33 33 33 33 35 37 38 39 41 43 45 49 51 56 60 65 70 74
20 23 12 12 30 27 31 29 28 28 31 30 30 25 28 29 29 20 28 27 27 29 31 33 32 33 34 34 35 36 37 38 39 41 42 44 47 52 56 60 65 70 73 68
14 21 22 17 14 12 14 13 24 30 19 28 25 20 26 26 27 28 29 31 32 32 33 32 33 33 34 35 36 36 37 39 40 41 43 47 51 56 60 65 70 71 64 62
18 20 20 19 16 16 13 15 16 22 21 22 25 25 28 27 26 26 30 32 33 34 31 32 34 35 35 35 36 37 39 41 42 43 46 51 55 59 64 69 66 62 61 63
14 12 10 16 17 15 15 15 19 20 22 25 26 28 33 27 28 31 32 29 29 29 30 32 33 33 34 36 38 39 42 40 43 46 50 54 58 63 67 61 59 60 63 68
21 18 15 15 14 12 14 15 18 20 22 25 28 30 29 29 31 29 29 28 28 29 29 29 31 33 36 39 38 36 39 42 46 50 54 58 63 65 58 58 60 64 69 74
22 21 17 15 14 13 10 15 15 16 18 21 22 23 23 25 25 25 27 28 27 27 28 30 31 33 34 35 34 38 42 45 49 52 57 63 61 57 58 60 65 69 74 77
19 21 17 17 16 15 16 14 14 13 17 20 22 22 22 23 24 23 21 24 24 26 27 28 30 32 33 35 38 41 45 47 51 56 60 55 55 57 60 64 69 73 78 82
20 18 18 20 18 16 15 11 14 16 18 19 19 18 17 21 23 24 24 23 24 25 28 30 31 33 35 37 41 43 46 50 56 55 51 53 56 59 64 67 72 77 83 87
21 20 18 19 18 17 17 17 14 12 12 14 15 16 17 16 17 18 21 23 25 27 28 29 32 35 37 40 42 45 50 54 49 49 51 54 57 62 66 71 77 82 87 91
19 17 17 18 14 16 16 12 12 11 11 11 12 14 15 16 18 20 22 24 26 29 31 33 35 36 38 40 44 50 50 46 48 50 53 57 62 65 70 76 82 87 92 97
21 17 15 19 19 14 13 12 8 8 9 10 11 13 15 18 21 23 26 27 28 30 32 33 34 36 39 45 48 45 44 46 49 52 56 61 65 70 74 80 84 90 94 97

GFSCGP_500_spd_027.txt.gz
Wind_Speed
49 51 53 46 43 42 43 44 46 46 51 48 51 50 42 40 42 42 38 33 36 28 27 29 28 28 27 26 28 28 25 26 26 27 28 29 33 35 36 30 30 31 32 34
56 55 47 43 47 50 51 50 46 45 45 46 49 53 44 44 43 40 35 35 38 27 27 31 27 28 27 24 24 25 27 27 28 28 29 32 36 32 27 29 31 35 38 40
52 51 46 48 49 51 53 51 46 44 42 42 43 48 48 47 46 38 36 35 38 27 26 32 30 30 28 25 24 25 26 27 28 29 31 33 31 28 29 31 35 38 40 42
48 48 50 53 54 54 55 48 49 47 45 43 40 49 47 47 41 40 39 38 36 29 24 28 29 30 26 26 26 25 27 27 28 30 31 31 30 31 33 34 37 40 42 43
49 50 50 53 50 51 52 47 48 49 45 41 43 47 46 41 45 44 38 38 34 30 24 27 28 28 25 25 25 26 27 26 29 30 31 32 33 35 36 37 40 40 42 44
44 44 45 44 45 48 45 51 48 46 45 45 48 45 45 41 44 39 36 38 34 31 25 27 30 27 25 25 25 26 26 27 30 32 34 35 36 36 37 38 41 41 40 39
34 31 29 32 35 39 46 47 52 51 52 51 47 49 44 43 40 34 37 34 32 28 25 26 30 28 25 25 26 27 28 30 32 34 35 36 37 38 39 41 41 39 39 40
22 26 26 21 28 29 42 51 54 55 57 64 41 41 46 36 32 36 35 32 30 28 26 28 30 25 24 24 26 28 30 32 33 34 34 36 38 40 40 40 39 40 41 41
17 25 25 14 18 32 36 56 47 40 41 48 42 36 32 36 30 32 29 28 25 27 26 26 25 24 23 24 27 29 30 31 32 33 34 37 38 40 39 38 41 41 41 43
14 7 17 21 18 30 45 53 61 59 31 41 36 40 32 32 26 27 24 25 27 25 23 22 21 22 21 23 26 27 29 30 31 33 34 37 38 37 38 40 41 41 43 46
10 5 7 8 16 30 48 57 56 24 17 32 28 32 30 27 24 21 24 22 22 21 21 22 21 20 21 24 25 27 27 29 32 33 35 36 37 38 40 41 41 43 47 49
6 6 10 22 31 31 47 42 29 26 15 20 31 29 30 26 21 19 23 22 21 21 19 18 20 23 24 26 27 28 30 32 33 34 35 36 37 40 41 42 44 46 48 52
15 4 8 12 16 25 30 31 15 16 24 32 27 26 28 22 21 21 21 21 20 20 19 19 21 24 25 26 28 29 30 31 33 35 37 38 40 41 42 44 46 48 52 55
8 12 1 11 10 11 21 32 36 32 30 25 21 24 25 23 18 19 19 20 19 18 18 19 21 23 25 26 28 29 32 33 35 37 38 39 40 40 43 46 47 51 55 60
19 14 9 13 10 10 39 33 31 31 29 25 26 19 17 16 16 17 18 17 16 15 15 16 19 24 26 28 29 30 32 35 37 37 37 39 40 42 46 47 51 55 60 63
17 14 25 12 19 20 24 27 26 30 31 26 20 17 17 18 17 17 17 16 15 15 18 21 23 25 26 27 28 31 35 36 36 37 39 40 44 47 47 51 55 59 63 66
14 15 16 26 23 22 17 17 18 24 28 24 22 21 21 21 21 19 20 21 19 21 22 24 26 26 27 29 31 33 34 35 37 39 41 44 44 46 50 54 58 61 63 60
12 14 7 8 12 9 23 21 24 22 24 20 18 23 21 22 20 21 19 19 22 24 24 26 27 27 28 30 31 33 34 37 39 41 43 43 46 49 54 56 61 59 58 60
9 8 8 9 10 11 12 15 19 24 26 23 22 28 27 21 19 18 19 21 23 25 26 26 24 25 26 28 30 33 35 38 38 38 41 45 49 52 55 60 56 56 58 62
10 8 4 3 8 8 10 12 14 17 19 21 20 21 20 20 20 22 22 23 24 23 22 22 23 24 26 28 31 33 34 36 37 40 44 47 50 55 57 54 55 57 61 67
13 8 5 6 9 11 10 13 13 15 17 19 20 21 21 22 22 21 21 21 21 21 21 22 23 25 28 29 31 33 36 38 41 43 46 48 54 53 52 53 57 60 66 70
19 17 11 8 6 12 13 12 13 12 14 14 15 16 17 17 18 18 18 18 18 19 20 22 25 27 30 32 33 35 37 40 43 45 48 52 50 49 52 56 61 65 68 72
14 12 12 13 12 13 12 11 11 13 13 12 14 15 15 13 13 14 17 19 21 23 24 25 28 30 32 33 35 37 40 42 43 47 49 46 48 51 55 60 64 68 73 79
16 14 11 11 13 15 13 12 11 9 13 12 14 15 15 14 12 13 13 16 19 23 26 28 29 31 33 35 36 38 39 41 45 45 44 46 50 55 59 64 67 73 79 84
16 16 16 14 15 16 16 14 13 13 13 11 10 10 9 10 12 14 16 18 21 23 26 27 29 31 32 34 35 37 41 43 43 43 45 49 54 57 61 66 71 77 84 89
13 16 14 11 15 15 14 12 12 13 12 9 7 7 9 11 13 14 17 20 23 26 27 27 28 29 31 33 37 41 41 41 42 44 49 53 57 60 64 70 76 83 88 92

GFSCGP_500_spd_030.txt.gz
Wind_Speed
43 49 48 46 48 51 53 51 49 47 48 52 54 52 50 47 45 43 39 37 42 35 32 29 32 31 30 31 30 26 25 27 25 24 25 25 25 27 29 32 31 26 27 30
46 47 47 49 52 53 53 54 50 49 49 51 53 55 54 51 47 45 43 37 41 36 33 30 30 33 31 30 27 24 23 29 30 28 27 26 26 28 31 32 29 29 32 35
48 49 52 54 54 57 57 56 51 51 46 50 50 53 56 51 47 49 47 40 43 38 33 30 30 34 31 28 26 24 23 25 28 28 28 27 27 29 31 29 30 33 35 38
49 50 51 52 55 53 57 53 51 49 50 51 51 56 56 51 53 49 44 41 40 38 33 28 30 33 34 31 27 26 25 26 27 28 29 28 28 30 31 31 33 36 38 39
45 45 47 54 49 45 49 50 52 52 52 53 49 54 51 46 53 54 45 41 40 37 35 30 31 32 32 30 27 26 27 29 30 29 29 29 30 32 34 34 36 39 40 42
46 49 50 49 49 49 48 48 51 54 52 58 49 51 51 42 46 48 45 44 41 36 33 30 29 28 26 28 26 25 26 29 31 31 30 31 32 33 35 37 38 41 43 44
34 36 39 39 40 39 41 45 49 52 55 60 52 50 42 36 36 35 43 42 37 34 31 30 29 30 27 28 27 26 27 28 29 31 32 33 33 35 37 38 40 42 42 42
14 17 23 26 31 31 32 37 46 48 55 54 51 54 45 40 36 36 40 41 36 31 31 29 30 31 28 28 27 26 27 28 30 32 34 34 35 36 38 39 41 42 41 41
20 19 21 24 29 34 35 38 30 40 48 50 48 52 47 43 41 38 39 35 33 30 29 29 31 29 26 26 27 27 27 28 30 32 33 34 35 36 38 40 42 42 42 43
21 25 24 24 28 35 32 30 37 45 43 43 47 47 45 40 41 33 34 29 28 28 28 28 27 27 26 25 25 26 26 28 29 31 33 34 35 37 39 41 41 42 44 45
19 17 15 15 20 28 41 39 33 41 42 39 45 50 42 32 40 31 25 23 26 29 26 26 26 25 24 24 24 24 25 27 28 30 32 34 37 38 39 40 42 44 45 46
12 10 9 7 9 6 13 32 35 46 47 36 39 38 27 26 33 27 24 25 26 27 26 26 24 23 22 21 22 23 25 27 29 31 34 36 37 37 39 41 43 45 45 47
9 4 11 8 2 6 1 22 33 43 46 40 21 30 25 25 26 27 26 29 26 25 26 23 20 19 19 21 23 23 25 28 29 31 33 35 37 39 40 42 44 46 48 51
8 3 3 5 9 9 15 27 45 42 24 13 26 24 24 25 26 23 25 27 25 22 20 19 19 19 20 21 21 22 25 28 30 32 34 37 39 40 41 43 46 48 51 51
9 20 19 5 11 12 15 19 12 13 13 14 18 27 26 25 27 26 23 21 20 18 18 18 18 18 18 19 22 24 26 29 31 33 36 38 39 40 42 44 47 50 50 54
13 25 15 3 4 6 18 14 14 8 21 23 26 32 36 29 25 24 21 19 18 16 15 16 17 17 19 21 23 25 28 30 32 35 37 38 39 41 42 46 48 50 53 58
11 21 19 9 24 22 14 23 10 23 27 23 25 22 20 23 22 20 19 17 16 17 16 16 18 19 21 24 26 28 29 31 33 34 36 38 41 43 46 46 48 54 56 61
8 14 19 16 13 16 18 20 20 18 18 18 16 20 21 19 18 15 13 15 19 19 21 20 20 21 24 25 25 27 29 31 32 34 37 39 40 42 44 48 52 54 60 58
5 6 8 15 13 10 16 17 16 16 20 24 21 19 19 19 18 15 13 16 19 19 19 21 22 23 23 23 25 27 28 30 33 36 38 41 41 44 47 51 54 58 55 56
3 7 6 5 8 10 13 14 15 18 17 17 15 15 18 18 15 16 18 17 17 18 20 20 21 20 22 23 24 27 30 32 34 37 40 41 43 47 51 53 56 53 54 58
10 8 5 3 7 8 9 11 12 16 20 20 21 19 17 18 20 19 17 17 17 17 17 17 19 21 22 24 26 29 31 34 36 38 40 43 47 49 53 53 52 53 57 62
14 10 6 5 6 10 12 12 14 16 17 18 19 19 18 17 15 15 15 14 14 15 17 17 19 21 24 27 29 31 33 35 37 40 43 45 48 52 50 49 53 57 61 66
17 15 15 11 8 9 10 11 14 13 15 15 14 13 13 13 13 12 12 12 13 15 18 20 21 23 26 29 31 32 35 37 39 41 43 47 49 47 48 52 56 61 66 69
16 14 14 13 13 10 12 12 11 10 11 11 11 10 11 11 11 9 10 11 12 14 17 20 23 26 29 31 33 34 35 37 39 42 46 46 45 48 51 55 59 64 68 74
17 16 14 12 8 10 13 11 13 9 11 13 12 12 12 11 11 10 11 12 13 15 18 22 25 27 29 30 31 33 36 37 42 44 44 44 47 50 53 58 62 67 74 81
13 15 13 13 14 14 19 18 15 13 15 14 11 9 9 10 9 10 11 12 14 19 22 24 26 26 27 30 32 34 37 40 42 43 43 45 48 52 56 60 66 74 80 85

GFSCGP_500_spd_033.txt.gz
Wind_Speed
41 43 41 41 43 46 50 53 57 57 56 55 55 54 50 46 46 46 41 42 41 40 38 40 34 32 31 30 31 29 28 24 24 29 28 26 25 25 26 27 28 30 31 28
43 42 43 43 44 47 50 52 54 57 57 60 58 59 55 53 49 48 45 43 45 43 38 40 37 31 31 32 32 29 27 26 27 30 32 28 26 27 27 27 29 30 30 29
46 45 46 47 49 51 51 52 56 56 56 58 61 63 60 54 52 51 48 45 46 47 39 38 38 33 34 32 33 29 27 26 24 25 30 31 30 29 28 29 30 31 31 30
49 45 45 48 49 52 53 53 57 59 60 60 60 65 59 56 52 48 50 48 49 45 41 36 38 33 33 32 32 30 28 25 25 25 26 28 28 30 31 31 32 33 33 34
45 45 45 49 48 51 55 55 57 59 61 62 60 65 62 57 52 47 46 49 49 46 40 34 36 33 34 33 32 31 30 28 28 26 26 27 30 32 33 34 35 35 36 38
41 43 45 45 48 53 55 57 57 55 56 64 61 64 65 55 49 48 47 46 49 45 39 37 37 35 36 32 30 31 30 29 27 28 29 30 33 34 35 36 37 37 40 41
38 26 24 23 28 37 48 50 50 50 54 67 65 63 63 54 47 49 46 43 48 48 40 38 35 32 33 30 28 30 30 28 27 28 29 30 32 33 36 38 39 41 41 42
25 19 24 26 28 32 33 40 44 49 53 58 54 62 55 47 41 42 43 42 45 47 43 37 35 32 34 32 30 30 29 28 27 28 28 29 32 34 37 39 40 41 42 44
25 23 24 28 35 35 33 35 29 38 45 41 51 51 47 44 41 42 40 34 36 38 39 37 36 33 34 35 32 31 29 28 27 29 29 31 34 35 37 38 39 41 44 46
27 29 27 30 36 35 36 34 34 40 35 34 27 46 44 42 40 37 30 27 30 35 37 36 38 36 34 34 32 29 28 27 28 30 30 32 34 35 35 37 40 43 45 45
31 35 26 25 29 26 31 38 39 39 44 39 31 41 38 40 34 36 31 26 30 34 36 36 35 35 33 32 30 29 28 27 28 29 29 32 33 34 36 39 41 42 45 46
20 25 21 25 16 7 22 26 41 39 32 38 38 40 34 36 31 31 26 27 34 33 37 35 33 32 30 29 29 27 27 26 27 29 29 30 32 35 36 38 41 44 46 46
18 25 23 18 20 24 20 11 29 28 34 29 37 30 34 29 26 30 30 28 31 35 36 33 31 30 28 27 25 24 25 26 26 28 29 31 33 35 37 40 43 44 45 47
25 24 24 23 17 17 25 25 15 19 36 28 37 22 28 34 34 37 34 32 32 29 29 28 28 25 25 24 24 23 23 25 27 29 30 32 34 37 39 41 43 45 46 49
25 24 20 13 10 17 7 8 7 13 22 29 27 36 40 38 43 39 36 33 32 26 27 26 25 23 21 21 21 22 23 25 27 28 31 33 36 38 40 42 43 46 49 52
14 17 16 12 8 8 4 9 11 7 11 9 36 38 33 35 35 32 27 24 27 27 26 23 20 18 19 20 21 21 22 25 28 30 32 34 37 39 40 41 45 47 48 50
11 12 7 12 13 10 11 7 18 15 25 34 33 34 32 32 32 28 26 26 26 25 23 22 21 18 18 19 20 23 25 28 30 31 33 36 37 38 40 43 46 47 49 53
9 7 5 10 9 12 11 11 19 22 14 24 32 36 30 28 26 26 26 26 24 22 20 18 18 18 19 20 22 24 27 29 29 31 34 35 37 40 42 45 47 49 53 56
8 10 5 4 5 6 4 3 4 10 13 15 25 27 24 26 22 22 22 21 20 22 22 20 20 20 21 22 23 24 25 27 29 31 33 36 38 42 44 45 48 52 55 60
3 9 7 1 2 3 3 1 2 5 4 9 9 11 13 13 16 18 18 20 21 20 18 18 19 20 22 22 22 24 26 27 29 32 35 38 40 41 44 48 50 54 58 55
9 8 8 5 1 2 3 2 1 4 4 9 14 14 15 17 18 21 19 17 15 17 18 19 20 20 20 22 24 25 26 29 31 35 37 38 40 43 46 49 53 54 53 55
10 4 4 2 1 4 6 8 8 8 10 12 13 13 12 14 19 19 18 16 18 18 18 17 18 19 20 21 24 26 29 31 34 35 37 40 42 44 47 52 51 51 53 55
13 10 7 6 6 5 8 7 8 8 8 9 10 12 12 13 15 16 17 16 15 15 15 16 17 19 21 22 25 28 30 31 34 36 38 41 43 47 49 49 49 51 54 57
20 18 15 15 14 11 9 10 10 12 12 13 14 14 15 16 15 14 14 13 13 15 15 15 17 19 22 25 27 29 31 32 34 36 39 41 45 47 47 48 50 53 56 61
19 17 17 17 15 16 13 13 10 12 12 13 14 14 15 14 14 15 14 13 12 12 12 14 18 21 24 26 27 29 30 33 35 38 42 43 46 46 47 49 52 56 62 67
16 17 18 16 13 10 12 14 11 14 11 13 14 14 15 15 14 12 11 11 11 12 14 17 20 22 23 25 27 29 32 34 38 40 43 44 44 45 47 50 55 61 67 73

GFSCGP_500_spd_036.txt.gz
Wind_Speed
33 34 35 36 39 42 45 45 46 46 47 50 53 53 51 49 52 48 44 42 40 38 38 40 40 40 41 38 33 30 33 29 27 26 25 27 29 28 26 25 26 27 29 31
37 38 39 44 48 47 48 49 49 49 48 51 52 54 56 54 54 50 47 44 39 39 40 41 39 34 42 39 36 32 33 31 28 28 27 27 31 31 28 28 28 29 30 31
41 41 43 46 48 51 50 51 52 54 54 54 55 53 56 58 57 54 51 47 44 43 43 45 41 35 37 41 36 35 34 32 28 28 26 26 30 33 32 31 30 30 31 32
42 40 43 46 47 50 51 52 55 57 60 58 57 59 53 54 60 57 53 50 49 46 45 47 42 36 33 41 39 37 34 34 30 26 24 26 29 31 32 34 33 32 33 34
40 42 43 46 45 50 51 53 55 57 59 62 59 67 54 52 51 57 56 53 51 50 48 49 42 38 34 39 40 38 35 34 31 26 24 27 27 28 29 31 32 34 35 37
38 42 43 43 44 48 51 52 55 58 60 68 62 66 59 56 48 46 52 51 51 50 50 48 43 40 37 37 37 36 36 34 31 28 28 28 28 28 30 32 33 36 37 38
39 40 40 40 35 34 36 35 41 44 47 56 63 70 65 57 57 48 49 50 49 50 49 48 43 39 36 36 36 35 35 33 31 30 29 28 28 29 31 32 35 37 38 41
38 34 28 29 29 33 38 39 42 51 50 48 48 59 71 63 62 52 48 48 48 48 47 45 41 40 38 38 37 36 33 33 31 29 28 29 29 29 32 34 36 38 40 41
33 24 25 29 34 36 39 44 44 54 48 46 50 45 51 61 63 51 43 48 48 47 44 44 41 39 39 39 37 35 34 31 28 29 29 30 29 31 34 35 36 38 39 40
23 28 29 33 39 38 38 40 42 48 50 48 44 39 43 36 43 40 45 41 42 41 40 39 41 40 41 39 38 36 35 30 29 30 30 31 31 32 34 34 34 36 38 40
25 32 27 29 30 37 37 42 41 44 45 48 43 31 25 27 34 36 41 42 38 33 33 35 39 40 40 40 38 37 35 31 30 31 31 31 31 31 31 32 34 37 39 42
25 21 25 24 32 38 40 36 35 42 42 38 34 27 35 20 26 34 40 37 38 32 30 34 39 41 41 38 37 37 33 31 31 31 31 31 30 29 30 33 35 38 41 44
22 21 29 32 34 35 36 40 36 28 32 29 33 21 29 15 23 35 44 34 30 29 29 35 38 39 38 35 36 34 32 32 30 30 30 29 29 30 32 34 37 39 42 45
24 25 34 42 27 34 36 31 35 31 21 21 27 5 23 20 29 36 39 33 31 36 35 34 37 35 33 35 34 34 33 30 28 29 28 29 30 31 34 36 38 40 43 45
23 29 26 17 19 19 22 18 7 15 14 19 16 23 29 24 36 38 34 32 32 34 32 31 31 32 32 32 31 30 28 27 28 28 28 29 31 32 34 37 39 41 44 46
23 10 16 15 14 16 17 15 12 8 13 13 28 28 33 39 39 35 33 31 30 32 30 28 28 28 28 28 28 28 28 27 26 25 26 29 32 33 35 38 40 42 45 47
10 8 12 13 18 16 26 16 14 13 13 18 25 21 26 32 34 28 36 31 28 27 29 27 27 26 26 26 27 25 23 22 22 25 28 31 33 34 37 38 41 44 46 48
3 3 8 13 18 18 21 18 15 20 17 29 19 32 30 29 29 37 34 32 27 25 22 21 23 24 23 21 19 19 20 22 24 27 29 31 33 35 37 40 43 46 47 50
4 4 4 10 12 12 12 17 18 14 15 19 20 27 31 32 32 37 31 28 25 24 22 22 21 19 17 16 17 19 22 24 26 27 30 32 33 36 38 42 43 46 49 52
3 2 1 2 6 8 6 8 12 12 18 19 22 23 21 25 26 25 23 21 21 21 20 18 16 17 17 19 21 23 24 24 26 28 30 32 34 38 41 42 45 48 50 54
5 2 4 3 4 5 7 7 8 9 9 10 13 16 18 16 13 21 19 16 15 16 15 16 17 19 22 23 22 22 23 24 26 28 31 34 37 38 41 43 46 49 53 55
8 2 1 5 6 3 6 7 6 10 10 11 13 13 14 13 11 9 11 11 13 13 14 16 19 20 20 20 20 21 22 25 28 31 33 35 37 40 42 45 48 51 51 51
13 9 6 6 6 6 5 4 4 2 8 12 11 9 10 9 11 15 12 10 14 14 15 17 17 17 17 17 20 22 25 28 30 31 34 35 38 40 43 47 49 50 50 52
15 12 12 12 12 9 7 6 5 5 5 6 8 9 10 10 10 11 12 11 13 13 14 15 15 16 17 19 22 24 26 29 30 32 34 36 38 42 44 48 47 48 50 53
19 17 17 18 15 11 10 8 7 7 8 7 7 9 11 12 12 12 13 13 12 12 12 12 14 15 18 21 23 25 27 29 31 33 35 38 41 42 45 45 47 49 53 57
21 20 18 18 12 9 8 9 10 8 8 8 9 8 9 10 12 13 14 14 11 9 11 12 14 17 20 22 23 25 27 30 32 35 38 39 42 44 44 46 49 53 57 62

GFSCGP_500_spd_039.txt.gz
Wind_Speed
25 26 24 26 30 32 34 37 39 42 44 45 44 44 44 39 40 46 51 52 49 45 42 39 39 42 40 33 39 42 36 34 34 37 33 30 29 31 31 32 29 27 27 28
27 27 29 30 33 37 41 45 48 51 52 54 54 54 51 45 41 45 49 51 52 48 46 43 41 43 44 36 31 41 38 36 36 35 34 30 31 30 31 31 29 31 30 29
29 31 32 36 41 45 46 48 50 53 55 57 57 57 52 50 48 46 50 52 50 49 47 43 42 43 45 38 33 38 40 38 36 35 35 30 32 32 30 31 34 34 32 33
32 33 38 41 42 42 46 46 49 52 54 54 55 61 56 53 50 50 49 53 53 49 49 47 43 43 46 39 36 37 41 39 36 34 34 31 31 32 32 30 33 37 37 36
34 35 37 40 40 42 44 48 51 53 56 58 57 64 54 57 51 48 52 53 53 52 51 49 45 43 45 40 38 37 38 41 37 35 34 31 32 31 30 29 32 36 37 37
34 37 38 37 39 44 48 49 49 50 51 58 53 56 55 55 57 54 52 53 52 54 54 52 49 46 45 40 42 40 35 39 38 35 33 33 32 31 30 31 32 34 35 36
33 33 35 36 41 44 43 38 40 42 45 46 41 44 49 50 53 61 58 54 54 52 56 55 51 49 46 40 41 41 35 36 36 34 35 35 35 32 30 32 34 36 36 36
31 31 32 36 38 33 33 36 39 45 48 50 50 43 36 40 45 49 58 60 53 54 50 53 51 50 46 41 40 41 37 37 36 35 34 36 35 32 31 32 32 34 35 36
30 30 31 30 27 32 33 37 40 50 53 57 53 51 45 37 42 48 52 49 55 55 51 49 50 48 43 41 40 42 39 38 37 34 34 35 33 31 31 32 33 33 35 37
29 31 22 23 25 27 31 36 39 47 55 57 57 47 39 35 32 34 37 36 53 47 52 49 45 44 41 40 42 44 41 40 37 34 32 31 31 31 31 32 33 34 34 35
31 29 18 16 18 24 31 41 45 44 49 52 52 44 35 26 27 25 25 29 48 45 51 48 44 41 39 39 42 44 40 40 37 34 31 31 32 33 32 32 33 33 33 34
27 23 11 13 23 30 37 41 42 51 55 51 47 36 23 24 19 26 19 34 47 46 47 44 41 38 40 40 43 43 39 40 38 33 33 33 32 32 33 34 33 32 33 35
18 14 17 18 24 29 30 31 36 36 38 43 39 24 17 18 26 33 18 32 46 40 41 39 37 36 40 44 43 41 39 40 38 34 34 33 33 33 34 32 32 32 34 38
10 13 22 24 19 25 28 26 29 23 25 22 20 2 10 24 27 28 21 37 40 41 38 34 37 40 43 44 42 39 37 38 36 34 33 33 34 34 31 31 32 34 37 40
7 15 17 16 18 20 17 19 15 17 13 3 2 10 21 27 8 17 35 40 41 36 34 36 38 39 40 39 36 35 36 36 34 33 32 33 33 30 30 31 34 37 39 43
7 10 9 9 11 20 18 18 12 3 13 8 9 14 12 3 25 31 33 34 33 37 36 35 34 33 32 30 33 34 33 33 32 31 32 29 28 29 30 34 36 38 41 43
7 5 4 11 14 17 22 27 12 9 3 1 8 20 26 30 39 27 26 27 27 31 30 29 28 29 30 31 30 28 29 30 30 28 26 26 28 31 33 35 37 39 42 45
1 1 3 7 10 14 22 21 12 14 7 7 18 21 26 29 24 25 23 28 29 29 28 25 24 25 26 24 24 24 23 22 23 24 26 28 30 32 33 36 38 41 43 47
2 2 2 6 11 13 13 13 17 7 3 1 10 16 18 24 19 22 21 18 20 24 26 26 27 26 24 22 19 17 19 21 23 24 26 28 30 32 35 37 40 43 45 47
3 3 2 4 8 10 11 9 12 9 7 9 12 14 18 17 20 25 17 14 15 19 25 23 23 21 17 16 16 17 19 20 22 23 26 28 31 33 36 39 42 43 46 48
6 3 4 3 7 9 10 8 8 8 9 9 10 15 16 19 19 18 23 22 21 19 17 15 15 16 17 16 15 17 19 20 22 24 27 29 32 35 38 39 42 43 46 49
10 5 3 3 6 6 7 7 5 7 12 12 10 11 11 14 20 19 17 16 14 16 17 14 13 11 11 14 16 18 18 20 22 25 28 31 34 36 38 40 42 45 49 50
14 10 6 4 6 9 7 3 5 3 9 10 10 10 9 10 11 12 11 10 9 10 10 10 10 11 13 14 15 16 18 21 24 27 29 31 34 36 39 41 45 46 48 49
15 11 9 8 8 12 9 6 2 4 5 6 8 8 10 9 13 14 10 12 9 8 9 9 9 11 12 14 14 16 19 22 24 27 29 32 35 38 40 43 44 47 48 49
15 16 15 11 12 14 11 6 3 3 7 8 5 7 9 8 9 12 11 9 9 10 8 7 9 9 10 12 15 18 20 23 26 29 32 34 37 39 40 43 45 47 48 51
21 21 18 15 13 10 8 5 5 4 5 7 5 5 7 9 10 11 9 7 7 8 6 4 6 9 13 15 18 21 23 26 29 32 35 35 36 38 41 44 46 47 50 53

GFSCGP_500_spd_042.txt.gz
Wind_Speed
29 28 25 25 25 26 27 28 31 31 32 37 37 39 40 38 36 36 39 39 43 48 47 46 45 39 39 41 42 38 43 43 42 40 36 34 34 36 36 37 35 35 36 35
28 27 26 25 26 27 28 31 34 38 39 42 44 42 48 49 49 48 46 46 45 47 52 52 50 45 40 40 44 40 38 45 45 42 38 36 35 37 36 36 33 34 35 37
27 27 25 25 27 28 31 35 39 43 46 49 53 51 57 57 55 51 49 49 50 50 52 53 54 53 46 44 43 45 40 41 47 46 40 37 37 36 36 36 34 33 36 39
26 26 26 27 29 32 35 38 44 47 49 50 51 58 55 54 50 49 50 52 54 54 54 55 55 54 51 44 45 47 41 41 43 44 41 39 37 36 36 36 37 36 36 39
29 27 28 29 32 36 38 40 44 46 48 50 52 57 49 53 52 53 55 56 56 59 58 56 56 54 53 48 44 46 41 42 41 41 43 40 37 36 36 35 34 35 37 37
28 28 29 32 34 36 39 41 42 46 49 53 51 52 51 51 56 57 56 59 60 60 60 59 56 57 55 52 47 46 39 41 43 39 43 41 37 36 36 35 33 35 36 36
28 30 31 31 34 35 37 39 44 45 47 50 44 42 27 24 32 35 39 42 52 62 61 60 56 57 57 53 49 45 39 42 42 39 40 41 38 37 38 36 35 35 37 38
30 27 28 29 32 34 36 39 33 41 41 41 44 42 34 40 39 46 53 51 43 55 61 59 58 55 58 54 50 44 40 41 41 39 38 39 38 38 38 38 37 37 38 37
25 25 26 28 28 33 32 33 37 39 40 46 50 49 49 45 43 50 56 55 54 45 54 58 56 54 58 56 51 45 41 41 41 39 38 38 37 37 37 38 38 36 37 38
24 25 22 24 26 28 32 32 31 35 45 52 54 55 56 50 40 46 51 52 53 49 50 51 53 53 55 57 52 45 44 44 42 40 40 39 37 36 37 37 37 36 36 38
24 24 19 22 25 27 28 27 34 39 43 47 51 48 44 42 39 37 41 48 46 48 44 47 51 53 52 56 50 44 44 45 44 40 39 38 36 36 36 36 37 37 37 38
23 20 16 17 21 23 30 32 34 37 39 44 44 44 39 37 37 34 36 35 33 35 39 49 50 51 48 50 46 43 44 45 43 40 39 37 37 36 36 36 37 38 38 39
19 18 10 13 20 23 23 23 30 34 38 36 38 40 36 26 28 26 30 32 33 36 47 47 51 48 44 45 43 43 44 44 43 39 38 37 37 37 38 38 38 38 39 38
19 13 10 10 15 15 16 17 25 35 36 31 29 29 32 22 22 25 29 27 31 39 52 47 49 43 40 42 43 44 44 43 40 38 38 37 38 38 38 38 39 39 38 37
15 12 6 10 5 8 16 19 25 27 25 27 26 27 26 26 22 18 26 23 26 35 44 47 42 39 38 40 42 43 41 39 38 39 38 36 36 36 37 37 38 38 37 38
14 8 7 3 5 10 12 17 24 22 18 22 22 19 17 17 11 4 14 16 32 37 39 40 37 37 38 39 42 41 36 35 37 37 35 34 33 35 34 36 36 36 38 40
12 8 7 7 6 10 14 14 22 19 11 13 11 7 1 9 14 13 24 25 27 31 29 33 36 36 36 35 34 32 32 33 34 33 32 32 32 32 33 33 35 36 39 43
9 8 10 4 6 7 10 15 19 16 11 5 14 15 15 9 8 16 19 24 25 26 27 28 28 28 29 28 28 29 29 29 29 29 29 29 29 30 31 33 36 39 41 42
8 10 7 3 4 6 7 10 16 12 14 2 6 6 7 4 5 9 21 24 26 26 23 24 23 22 22 22 22 23 23 22 22 24 26 27 27 29 32 33 35 38 40 44
8 5 3 4 2 4 7 9 11 11 9 4 9 5 5 2 5 13 24 25 25 23 21 20 20 21 21 20 20 20 19 20 22 23 23 25 26 27 30 32 35 39 43 46
8 6 7 5 3 6 8 9 11 9 5 7 5 9 8 2 4 7 13 15 21 24 22 22 23 22 22 21 19 19 19 20 20 18 19 22 25 28 31 35 38 42 43 45
12 9 6 6 5 4 5 6 5 4 2 8 9 4 5 2 3 4 14 12 12 11 16 19 20 19 18 18 14 10 9 11 15 18 21 24 27 30 34 36 38 40 44 47
13 9 7 6 2 4 2 4 4 2 4 3 2 6 12 5 15 13 10 9 7 11 12 5 4 2 5 6 6 6 10 14 17 20 23 26 28 31 34 37 40 43 45 47
14 13 10 7 5 5 3 1 4 5 6 9 4 2 5 3 17 11 9 13 7 6 7 7 5 5 6 6 7 10 13 15 17 19 23 26 30 33 36 40 41 43 46 49
14 14 13 11 8 8 5 3 4 4 7 6 6 4 5 6 8 11 7 5 6 5 4 5 7 7 5 5 7 10 13 16 19 23 26 29 33 36 37 38 42 45 47 48
16 14 14 13 12 11 5 2 4 6 3 9 4 4 5 5 7 7 8 8 8 6 5 5 5 4 4 7 11 13 17 21 24 27 30 32 33 34 38 41 43 45 46 47

GFSCGP_500_spd_045.txt.gz
Wind_Speed
36 36 34 35 38 39 36 33 31 30 30 32 33 33 33 33 32 34 36 37 38 39 40 39 38 40 43 42 40 39 41 42 44 45 45 44 41 38 33 36 39 37 36 37
33 31 31 31 31 31 30 30 30 30 31 34 35 35 38 37 39 41 42 43 43 43 45 46 45 42 44 46 44 43 42 43 44 43 46 48 47 39 37 38 38 38 36 37
30 28 26 26 26 28 28 30 31 34 35 36 40 39 41 43 44 48 50 52 55 55 55 53 54 51 47 48 48 45 44 43 44 44 44 49 47 41 43 40 38 39 38 39
27 24 23 24 24 27 28 31 33 36 38 40 41 45 42 47 50 53 55 56 59 60 57 56 57 57 55 50 51 50 48 47 45 46 46 44 46 46 43 41 40 40 39 40
26 25 23 23 25 27 31 32 35 38 41 44 45 52 43 50 51 53 54 56 56 54 57 57 57 58 58 56 54 55 53 51 50 45 45 45 43 42 42 40 41 40 42 40
25 24 24 26 27 30 31 34 36 40 44 47 48 52 44 50 51 51 53 49 52 58 58 59 60 58 60 59 56 55 55 51 50 47 45 47 43 38 39 40 40 41 40 40
26 24 26 27 28 30 33 35 38 42 43 45 48 52 49 47 35 41 44 47 44 44 51 59 61 62 60 60 57 54 54 52 50 47 45 47 42 40 39 41 42 39 39 39
25 26 26 27 29 31 32 34 34 40 44 45 50 51 41 42 39 47 49 51 51 50 51 51 52 59 62 60 57 54 55 52 51 45 44 46 43 41 39 41 41 40 39 40
27 28 27 28 28 29 30 32 35 39 40 45 45 44 47 50 49 46 50 54 55 58 57 56 53 47 57 58 58 54 56 53 50 45 44 45 44 42 40 40 40 39 40 40
26 27 27 25 25 28 32 30 32 35 40 44 46 51 53 54 49 54 54 53 58 58 54 57 56 51 43 48 57 54 56 53 49 45 46 46 44 43 40 37 38 40 39 40
27 26 21 22 27 27 27 26 29 35 41 45 51 50 52 46 46 48 50 53 54 57 58 56 56 56 45 45 53 52 55 54 49 46 44 46 44 42 39 38 38 39 39 40
25 22 19 22 25 25 23 22 29 34 36 43 46 46 43 41 42 42 40 42 46 50 42 46 53 50 43 47 51 51 51 52 48 46 46 45 45 42 38 38 38 38 38 39
21 18 17 21 23 20 19 21 23 29 35 37 41 38 32 44 42 34 36 32 39 38 38 37 38 41 42 51 49 47 47 49 47 46 45 45 44 40 38 38 38 38 39 41
19 16 18 18 19 17 14 16 20 29 35 36 29 42 31 40 35 37 38 36 27 27 24 33 34 38 44 50 44 42 45 48 47 44 45 44 42 40 37 35 37 39 41 42
16 15 16 19 18 13 11 14 19 29 31 31 25 34 38 35 36 39 39 34 28 28 28 30 40 41 41 44 39 42 44 46 44 42 43 41 40 37 33 35 37 39 41 41
14 16 17 18 11 11 14 17 22 26 21 19 25 25 26 29 25 17 11 9 9 13 18 21 28 32 39 37 40 42 42 40 39 39 38 39 37 32 32 35 36 38 38 41
16 18 15 15 12 16 15 15 17 16 12 12 12 19 28 29 22 13 10 5 1 9 19 27 27 33 33 33 35 37 38 38 37 34 33 32 30 31 33 34 35 35 41 40
17 17 14 15 12 14 12 12 14 11 11 13 15 17 18 29 15 18 17 18 20 20 22 24 27 28 28 28 30 32 32 30 26 24 24 28 29 33 32 30 36 38 37 38
16 15 15 13 11 9 8 8 10 12 13 16 16 13 18 17 28 1 9 15 18 21 22 23 23 21 21 22 24 21 20 20 20 19 24 27 31 28 32 32 32 34 38 39
18 14 10 11 8 7 4 6 10 12 12 12 13 14 15 22 9 12 23 20 21 22 20 19 19 18 17 15 13 13 14 21 22 27 25 30 26 27 28 31 34 33 35 38
18 10 12 10 7 4 5 7 8 9 9 8 9 11 10 11 13 9 9 10 17 19 18 20 21 21 21 23 22 24 25 25 26 25 24 23 25 28 27 27 30 34 38 40
15 12 12 8 4 2 5 6 7 7 9 4 10 12 4 6 5 4 11 9 9 12 14 12 16 18 18 18 19 20 20 20 20 20 20 19 19 21 25 30 32 35 38 41
16 16 14 7 4 3 6 7 5 7 7 5 6 8 5 5 11 15 10 7 9 9 7 9 13 13 12 13 13 14 14 12 10 11 13 17 21 24 27 30 34 38 41 43
19 18 13 10 9 6 8 9 8 6 8 8 10 5 7 3 4 3 5 8 5 2 5 6 7 9 8 7 6 5 5 6 9 11 15 19 22 26 30 34 37 39 40 43
19 19 15 14 11 9 10 11 9 6 8 7 5 5 2 2 6 7 2 7 3 2 2 4 4 3 3 3 1 2 5 8 11 15 19 23 27 30 33 34 36 39 42 44
20 20 16 13 12 12 12 12 9 6 6 4 4 5 3 4 4 4 4 3 3 3 3 2 2 2 2 1 4 6 10 13 17 21 24 27 30 30 32 36 38 41 42 42

GFSCGP_500_spd_048.txt.gz
Wind_Speed
35 36 36 36 37 37 40 41 40 40 40 39 40 38 35 34 32 31 33 34 33 34 35 36 35 34 34 35 38 41 43 38 38 38 37 36 41 42 40 37 36 34 36 36
32 31 30 34 37 36 38 35 33 36 38 40 40 39 37 34 34 35 34 35 36 38 41 41 41 41 40 38 38 41 45 45 39 41 38 39 43 37 39 39 40 37 36 37
29 30 31 31 32 31 32 32 31 33 34 34 37 38 35 36 34 35 38 41 43 45 47 48 49 50 49 48 46 44 45 48 49 43 46 43 40 37 40 40 42 41 38 37
28 28 29 28 27 28 28 29 27 29 30 33 34 38 34 36 38 41 44 47 50 52 53 55 56 57 58 56 53 52 50 50 54 49 49 45 42 40 42 42 40 40 40 40
25 24 26 24 24 25 25 24 26 27 29 32 32 38 36 38 42 46 52 54 54 55 57 58 60 61 61 61 59 55 55 54 55 54 51 47 44 40 42 44 40 40 41 43
25 24 23 21 22 22 22 23 26 28 30 33 35 39 34 40 46 51 53 53 52 54 56 58 59 58 58 59 60 59 58 55 53 56 54 50 45 45 43 44 43 40 40 42
24 21 22 22 22 22 23 25 27 30 31 33 40 41 36 41 47 50 48 46 49 48 46 46 49 49 51 57 60 60 59 56 54 54 54 52 49 49 47 44 44 42 40 41
22 21 21 20 22 22 23 24 27 32 35 37 40 40 38 43 46 46 45 47 47 49 52 52 50 48 46 42 40 52 61 59 55 52 51 51 50 51 48 45 45 44 40 39
23 21 21 20 20 21 21 25 28 32 33 38 39 39 41 44 46 47 51 54 55 50 52 50 48 46 49 52 49 47 47 58 54 52 52 51 48 48 48 46 45 44 43 39
23 21 20 19 20 23 26 26 27 29 34 35 38 38 43 43 43 46 50 55 53 49 46 46 45 45 46 47 52 51 50 49 54 52 51 50 47 46 47 44 44 44 43 40
22 22 19 18 21 24 23 23 24 28 29 34 35 37 37 38 43 44 45 46 47 50 55 53 47 48 47 49 50 50 44 47 52 52 48 47 45 46 45 43 43 43 42 41
23 22 17 22 21 21 20 22 24 26 29 30 32 38 36 37 40 46 47 48 45 49 49 46 42 39 43 52 58 56 51 44 49 47 44 46 45 45 44 43 40 41 41 39
21 18 18 19 21 19 21 23 23 26 28 23 35 35 36 40 39 41 43 37 37 42 45 40 29 30 33 42 46 50 53 44 42 42 43 45 46 43 41 41 40 40 40 38
20 17 18 19 18 19 18 19 21 25 25 31 28 33 23 31 38 37 30 23 32 35 39 25 20 27 25 35 37 39 42 36 41 39 43 45 43 40 40 40 40 39 37 36
16 14 15 18 22 17 15 19 20 22 23 29 24 25 25 34 43 42 38 31 29 24 27 21 17 16 21 29 28 31 31 31 38 40 44 42 39 38 40 39 38 34 33 35
12 14 15 20 16 14 13 17 19 21 22 23 24 19 30 32 31 45 36 28 25 21 14 10 7 14 21 24 18 22 24 33 37 40 40 35 35 38 36 34 31 32 33 34
13 16 14 15 15 16 16 18 19 18 20 21 22 24 27 32 39 39 24 18 18 12 1 5 6 12 16 17 21 22 30 32 33 34 33 31 32 30 30 30 29 28 35 34
17 15 13 16 18 16 13 16 15 17 20 19 20 17 22 27 18 13 17 16 18 13 10 11 14 17 19 21 24 25 27 27 28 28 29 29 28 27 26 26 26 32 32 33
15 14 13 17 16 13 11 13 13 14 11 15 14 17 19 21 20 10 17 16 13 17 16 19 22 24 24 22 22 23 23 25 26 23 22 23 23 28 20 23 28 30 35 37
15 14 14 15 12 11 10 10 9 7 10 12 13 14 15 17 20 12 14 9 9 17 20 20 18 16 17 18 18 19 18 18 18 19 20 21 22 21 27 28 29 31 34 36
13 14 13 13 10 11 10 7 7 8 8 8 12 14 12 13 16 13 8 12 15 12 18 19 19 18 18 14 22 21 21 21 19 19 22 33 20 22 25 25 29 30 31 35
15 14 13 10 11 11 9 8 8 6 6 10 10 11 9 13 11 10 4 7 5 10 10 12 5 12 14 16 18 21 18 25 19 21 21 19 19 22 23 23 27 30 32 34
16 16 12 12 10 6 7 9 9 8 7 7 10 12 7 11 6 4 11 13 12 3 8 8 7 6 7 10 10 11 10 12 16 18 18 18 16 18 22 25 27 30 34 37
19 18 17 14 12 9 10 12 12 10 9 8 7 7 1 7 4 3 5 8 8 7 8 4 5 7 5 4 4 5 7 9 8 7 8 13 16 20 23 26 30 33 34 37
21 18 19 18 13 12 13 14 14 9 10 10 6 3 1 2 2 3 2 2 5 4 3 5 6 6 6 6 6 5 4 5 6 8 12 16 19 23 26 28 30 33 36 39
22 23 21 19 14 15 15 15 14 10 9 9 5 3 3 4 2 1 4 3 1 1 2 3 4 6 7 5 3 3 3 6 9 13 17 20 22 24 27 30 34 36 38 38

GFSCGP_500_spd_051.txt.gz
Wind_Speed
39 41 37 34 36 39 41 43 42 41 42 42 41 42 36 35 34 34 33 33 33 30 31 32 32 32 34 34 33 32 33 34 33 35 36 35 38 40 36 27 31 30 31 36
37 36 30 34 37 39 39 39 37 37 39 41 39 40 39 36 37 37 36 35 35 36 36 36 36 37 37 38 38 38 37 36 37 38 39 39 39 42 40 32 33 30 31 36
33 28 30 33 32 31 34 34 33 34 35 37 37 40 39 38 38 38 37 39 38 38 39 39 40 41 41 41 42 42 42 41 40 42 41 42 43 43 43 35 36 36 34 34
32 31 31 31 27 27 30 30 26 27 29 32 34 39 36 37 37 37 38 39 39 41 42 43 45 47 48 49 50 51 51 52 50 48 46 47 48 48 47 41 42 38 36 35
27 27 27 26 25 25 24 22 22 25 27 29 30 36 33 33 35 36 38 39 43 46 48 50 52 53 54 56 57 58 59 58 58 58 52 50 52 52 51 45 44 40 40 39
27 25 26 25 23 21 20 21 21 22 24 28 26 30 34 32 34 38 42 46 47 50 52 54 56 57 59 59 60 60 59 57 58 58 55 52 51 52 53 49 47 43 42 42
21 21 22 22 21 19 18 18 19 21 21 24 26 26 27 33 37 41 45 48 50 50 48 50 50 49 49 50 52 53 54 56 56 57 56 53 51 48 50 53 50 47 44 43
22 23 23 21 19 18 18 18 20 21 22 23 25 24 26 34 40 40 40 40 43 46 48 49 47 48 49 49 49 49 47 48 50 56 56 52 51 47 50 54 52 50 47 46
23 22 20 19 18 17 17 18 18 21 23 24 25 27 29 32 36 40 42 44 44 43 44 46 48 48 48 52 56 55 52 49 46 39 44 48 48 52 51 52 50 50 51 47
21 19 20 19 18 16 16 18 19 20 24 26 27 28 29 30 33 37 42 45 47 50 52 50 45 43 47 50 52 55 55 56 51 47 40 40 47 53 51 49 47 49 49 46
21 19 17 16 17 18 17 16 18 19 22 25 25 26 25 27 33 37 38 42 45 48 53 57 57 53 45 49 48 47 50 55 54 50 44 39 44 49 50 46 46 48 46 45
19 18 16 19 17 16 15 14 15 19 23 24 28 20 22 31 31 30 37 36 41 43 45 52 50 47 42 39 42 46 51 52 49 47 47 41 43 48 47 44 46 46 44 41
19 18 17 17 16 13 12 16 19 22 23 16 23 23 27 26 23 33 41 46 50 49 40 41 38 41 35 42 42 42 47 50 46 50 47 44 44 48 45 44 44 42 40 38
18 16 15 14 12 11 16 19 21 18 18 17 18 23 23 21 25 33 40 42 46 45 42 37 21 27 31 37 33 36 39 48 52 50 49 40 44 46 42 42 40 38 36 34
14 13 12 12 12 15 16 20 18 15 17 20 15 24 23 25 27 34 35 40 47 41 38 25 23 23 24 24 23 21 23 30 35 38 38 38 42 41 39 38 34 34 29 34
12 11 12 15 15 15 12 15 15 15 19 18 23 18 22 19 26 24 29 33 38 32 29 16 11 11 14 11 12 17 18 25 28 31 33 35 38 35 33 31 29 25 34 31
12 10 13 16 15 10 11 12 13 17 16 18 19 19 17 19 23 16 23 28 29 30 21 12 2 6 12 14 17 16 18 20 24 30 32 32 31 26 25 22 26 33 28 27
11 12 12 14 12 11 10 13 13 14 11 13 13 14 13 11 12 13 19 25 23 22 17 9 2 9 15 16 18 20 24 24 26 27 27 24 20 29 25 24 28 22 24 23
13 16 14 14 12 10 10 10 10 9 9 9 7 10 10 12 12 16 20 23 16 17 15 12 9 9 10 11 15 18 19 22 24 24 24 21 25 24 26 25 20 22 26 28
18 15 13 12 9 11 11 7 8 7 7 5 7 8 11 11 15 17 12 17 17 11 13 13 16 13 13 15 17 18 17 18 17 15 23 21 18 22 22 31 27 29 32 30
15 13 12 10 9 11 8 7 9 8 8 7 5 11 11 11 11 13 11 10 13 13 9 7 12 11 15 15 19 21 20 13 16 19 13 13 18 24 33 32 29 27 32 34
14 11 10 10 11 12 8 6 7 8 10 9 5 6 8 6 8 10 14 11 9 11 12 14 7 2 8 4 9 12 17 13 8 13 16 18 16 16 20 26 29 26 28 31
15 13 13 12 12 8 6 3 6 8 11 11 6 5 6 4 5 7 10 9 14 11 10 9 13 15 12 11 8 4 5 5 5 5 9 12 12 12 14 18 22 25 29 33
15 15 15 14 12 9 7 6 10 12 10 10 8 3 2 1 2 2 6 7 7 10 11 11 7 5 3 3 4 6 7 8 6 5 5 4 7 13 17 21 25 28 31 33
16 17 17 16 13 11 9 9 12 13 11 12 9 6 5 2 2 5 4 0 4 5 6 7 5 5 4 4 5 5 4 2 2 5 7 10 14 18 22 25 27 29 32 34
18 21 20 18 14 13 12 12 13 14 10 10 5 2 6 6 3 1 3 4 3 2 1 1 1 1 3 3 2 1 2 3 5 9 12 16 20 22 23 25 28 31 33 34

GFSCGP_500_spd_054.txt.gz
Wind_Speed
39 39 40 42 39 34 43 46 47 45 44 46 45 46 37 38 42 42 40 37 33 32 32 34 34 35 36 37 36 36 36 32 31 31 31 33 35 37 33 34 33 30 29 30
38 37 36 35 37 36 41 44 41 42 44 45 44 44 39 38 41 42 41 37 33 34 36 36 37 38 38 38 39 39 38 38 37 36 34 35 38 39 37 37 34 30 31 32
33 32 32 30 32 33 34 34 36 38 40 41 41 43 39 35 38 40 41 40 38 37 38 39 40 40 41 41 41 42 43 42 41 40 40 38 37 40 40 40 39 35 35 37
29 29 29 29 30 31 33 32 33 34 35 38 37 40 33 35 35 37 40 39 38 40 41 40 41 42 42 42 42 44 45 45 45 45 45 46 42 41 44 46 47 44 43 40
32 27 28 28 27 28 28 26 27 30 32 33 31 37 26 29 31 33 35 38 38 40 41 41 41 42 45 46 48 49 50 51 53 52 52 52 52 50 48 49 52 50 48 45
28 27 27 27 27 25 23 22 23 24 25 29 26 32 26 26 27 31 33 36 38 40 41 43 45 47 49 52 54 56 57 57 58 58 58 58 57 57 55 54 55 54 52 50
24 24 25 26 25 22 21 21 20 21 22 21 20 26 24 22 29 32 35 38 41 43 45 48 50 53 55 57 58 60 62 62 62 62 62 62 61 59 56 54 55 56 54 52
18 22 24 24 23 22 23 22 20 18 18 17 18 22 25 26 28 32 35 38 41 44 48 50 51 51 51 53 55 57 57 57 59 61 62 62 63 61 56 52 55 55 55 53
23 25 25 24 24 23 21 20 18 16 18 19 20 22 25 28 28 29 32 35 38 41 44 46 48 50 52 54 54 57 61 62 60 57 53 51 52 54 57 52 52 56 57 53
23 22 23 23 21 20 18 17 17 16 19 20 21 20 23 26 29 30 31 32 35 39 43 46 49 51 50 53 57 59 60 62 63 63 58 53 49 46 47 51 50 54 56 53
23 23 20 19 18 19 18 16 16 16 18 19 18 16 17 20 24 28 30 34 35 39 43 47 52 56 55 54 52 56 61 62 61 62 62 58 53 46 42 43 51 53 52 50
21 20 19 20 18 16 13 12 12 15 16 16 19 16 17 21 23 25 26 29 35 41 46 49 52 54 58 50 50 49 48 56 55 56 56 58 58 52 47 43 46 48 49 49
19 18 19 17 15 12 11 14 14 16 16 15 14 12 19 23 23 24 26 30 36 39 42 47 53 54 48 47 49 49 40 44 50 47 49 51 53 54 51 43 41 43 46 47
19 17 16 13 12 11 13 14 15 15 14 12 14 8 23 21 21 21 25 32 35 38 45 48 51 44 38 32 30 33 34 38 45 42 44 45 48 50 47 45 43 45 45 43
15 14 12 11 11 11 14 16 15 13 14 9 15 17 17 21 22 19 25 26 30 35 42 44 35 32 26 24 27 28 29 34 40 39 38 40 43 43 41 42 44 44 42 37
13 12 11 10 12 14 13 15 13 11 13 13 13 16 18 18 16 19 17 23 27 31 35 32 30 24 16 11 22 20 22 26 27 30 36 39 39 39 36 37 40 39 34 30
13 12 11 11 13 12 13 12 11 11 13 11 11 12 13 10 9 11 16 20 22 24 27 27 23 19 15 12 10 10 13 15 14 16 26 33 33 33 30 33 31 31 29 31
13 13 13 12 13 12 11 9 10 10 11 9 10 9 8 9 12 17 17 14 20 21 23 22 20 14 9 4 3 8 15 21 19 18 18 28 29 29 29 31 30 28 33 29
15 13 15 13 12 10 10 8 7 8 8 6 7 10 9 7 8 13 9 12 17 18 20 20 18 13 7 5 6 9 11 10 10 22 24 26 27 27 27 24 23 33 22 18
16 17 14 13 12 9 8 7 5 4 5 6 8 9 13 11 10 8 9 11 13 17 21 15 15 15 11 6 9 9 11 14 18 20 21 22 26 25 23 24 16 14 20 28
19 18 13 11 11 9 7 5 4 5 7 6 5 9 9 7 4 6 10 6 9 16 18 11 12 14 13 12 14 16 18 18 3 12 17 14 6 6 12 13 16 24 30 38
18 14 12 12 13 10 7 5 4 4 3 5 7 11 11 8 4 5 7 9 8 9 11 12 12 15 9 10 6 7 5 10 12 11 10 8 6 3 10 18 21 21 23 24
14 12 12 13 11 10 10 7 2 3 6 6 6 9 11 9 7 9 4 5 7 10 8 7 8 9 12 10 11 9 6 11 9 4 9 7 8 6 7 11 14 18 22 27
14 14 13 13 11 11 11 8 5 5 7 7 7 8 7 9 7 5 5 4 7 7 7 7 6 7 7 5 3 4 4 5 5 3 2 3 5 6 10 15 20 23 26 28
17 15 15 16 13 15 13 9 7 7 10 9 8 9 9 10 8 11 7 4 5 6 5 5 4 3 2 3 3 4 5 6 4 2 2 5 9 12 17 19 21 24 27 30
22 18 17 21 17 17 15 13 9 8 9 8 6 5 6 8 9 6 6 5 7 6 7 6 6 3 1 2 2 2 3 3 4 6 11 15 17 20 21 23 24 26 28 30

GFSCGP_500_spd_057.txt.gz
Wind_Speed
34 40 38 32 39 47 47 49 48 46 45 46 44 47 42 44 45 45 45 43 41 40 38 39 39 34 36 39 39 38 37 37 38 38 36 36 33 35 34 33 34 32 30 32
45 41 31 40 30 29 42 47 46 44 46 49 46 46 41 41 43 46 47 43 41 41 42 40 40 36 36 40 41 41 41 41 40 38 38 38 37 37 35 35 35 33 32 34
43 45 41 34 38 36 31 32 32 35 40 45 44 45 41 37 40 43 45 44 41 40 40 41 41 38 38 40 41 42 44 44 44 43 41 39 39 39 38 38 36 37 38 39
40 37 37 33 35 36 34 31 29 33 37 39 39 43 35 37 37 39 41 42 40 38 39 40 42 40 39 41 42 43 45 46 47 47 45 44 42 41 40 41 43 43 42 42
34 34 33 33 31 30 29 27 27 30 32 35 34 39 25 31 34 35 38 40 39 38 39 39 40 41 43 42 42 44 46 47 48 49 49 48 48 45 44 46 46 47 47 45
32 27 32 32 29 26 25 23 23 26 29 33 29 34 22 27 28 30 32 35 37 37 37 39 40 42 44 44 46 47 48 48 49 50 52 53 53 53 54 54 54 53 53 54
34 30 28 27 28 25 22 22 22 23 26 28 24 28 21 23 23 24 27 29 32 34 35 37 39 42 44 46 48 51 53 55 56 57 58 59 60 60 60 61 59 61 58 55
22 25 26 26 25 22 23 23 22 22 22 19 19 25 20 17 21 24 27 29 31 35 39 41 42 44 47 50 52 55 58 60 62 62 63 64 66 66 66 67 67 64 60 56
21 23 25 25 26 26 25 23 20 19 19 18 19 19 19 19 23 25 28 31 33 34 37 39 43 46 49 51 53 56 58 61 63 65 66 66 67 67 67 67 66 66 63 58
23 22 22 22 23 25 24 23 22 20 20 20 19 18 17 20 23 24 26 29 29 31 35 39 42 45 48 52 55 58 60 60 63 66 67 69 68 67 66 63 61 58 57 58
22 19 17 19 20 21 22 21 20 20 20 18 15 15 18 20 22 23 24 24 28 32 35 39 42 44 48 50 53 55 57 58 59 61 65 69 70 70 68 62 56 53 52 51
18 18 18 19 22 21 20 18 16 16 14 14 15 14 18 20 22 23 25 28 29 32 35 38 41 43 46 53 58 61 64 65 61 58 61 67 69 69 68 65 59 56 51 45
19 18 19 19 18 16 14 15 15 15 13 13 12 15 17 21 21 24 28 29 31 33 34 35 40 44 47 50 51 56 58 57 56 54 59 61 63 65 63 61 60 57 52 46
19 19 18 16 14 14 15 15 15 15 14 14 13 15 23 19 19 22 25 30 28 27 31 35 39 41 41 40 45 46 42 39 36 40 43 44 50 51 51 54 53 56 54 46
17 15 13 13 13 14 14 14 15 13 17 12 16 15 20 21 21 22 21 22 23 25 28 32 33 34 36 35 40 35 28 24 25 34 37 34 32 38 41 46 42 44 49 45
16 14 13 12 13 14 15 15 13 14 15 11 12 17 15 19 19 17 14 11 17 17 22 26 28 33 29 31 29 25 18 19 18 16 19 24 26 29 30 30 30 34 40 42
14 13 13 14 15 14 13 13 12 12 11 11 12 12 14 15 13 12 13 17 11 17 19 26 27 29 29 23 22 22 15 12 13 12 11 13 16 21 24 23 25 28 34 34
15 15 15 13 11 10 11 11 9 9 10 10 9 10 8 9 11 7 10 11 15 14 17 19 25 22 25 21 18 14 11 7 2 5 12 17 16 20 20 23 20 25 24 23
15 14 14 13 11 9 9 9 6 8 8 6 7 5 4 6 10 10 10 11 14 14 14 12 19 21 17 18 16 12 6 6 10 1 16 9 17 17 19 18 22 21 24 31
16 16 15 13 11 9 9 7 7 6 5 6 7 8 9 9 7 6 9 6 10 14 10 8 10 14 19 13 12 15 13 12 9 3 1 6 13 15 16 17 19 19 19 26
19 19 17 15 12 10 8 9 9 7 7 7 8 9 9 7 4 5 8 6 9 9 9 11 12 6 10 11 13 14 10 12 8 4 6 6 11 16 10 13 19 25 18 14
20 20 19 14 12 11 10 10 8 6 7 7 6 9 11 10 6 6 7 7 9 9 5 6 9 14 7 6 11 13 11 9 9 6 2 10 7 9 4 3 11 10 14 18
15 16 15 13 13 11 11 10 7 4 4 7 8 10 10 10 8 10 10 5 6 6 7 8 8 7 7 8 9 13 12 12 10 7 9 8 3 3 1 2 5 9 13 18
16 14 15 13 14 14 14 15 11 7 7 8 9 9 11 10 6 4 8 8 6 7 8 7 7 7 7 6 6 7 9 10 9 8 6 5 5 5 7 10 13 17 20 22
17 16 16 14 17 16 17 17 11 9 8 9 8 10 11 12 10 8 8 8 9 10 10 8 7 8 8 7 6 7 8 9 9 8 7 8 10 12 14 16 18 19 22 24
23 16 14 16 19 18 19 16 12 10 9 8 6 8 6 8 9 10 4 6 7 8 9 8 7 6 4 3 4 4 4 5 7 11 13 15 14 15 17 18 20 22 25 25

GFSCGP_500_spd_060.txt.gz
Wind_Speed
31 40 37 35 43 46 47 48 47 46 44 45 44 47 43 43 43 43 45 46 47 45 43 43 43 42 40 39 39 39 40 39 39 38 39 40 38 36 36 35 36 36 34 31
34 42 37 38 36 42 45 45 44 44 45 45 43 44 40 39 41 43 46 47 47 46 44 42 43 43 42 41 41 41 42 39 38 38 39 41 40 39 38 39 39 36 35 35
45 31 39 36 32 30 38 42 40 42 44 46 44 44 39 35 38 39 42 44 47 45 43 42 44 45 44 40 42 42 44 43 40 40 40 42 43 42 41 40 41 39 40 39
40 40 39 30 37 32 31 32 35 37 42 44 43 44 36 38 39 38 41 42 43 43 42 43 43 44 43 41 41 43 42 44 43 41 42 44 44 44 43 43 44 44 44 44
31 40 28 34 33 35 36 32 28 26 31 37 37 40 27 35 38 38 39 38 39 40 38 38 40 42 44 43 42 43 45 44 45 47 47 46 47 46 44 44 46 47 47 45
31 31 31 33 30 25 23 25 25 26 28 31 30 34 25 30 32 31 33 34 36 36 35 35 37 38 40 41 40 41 42 44 46 48 50 52 52 52 51 49 47 47 48 49
29 30 30 26 29 25 22 23 24 24 26 29 26 28 24 25 28 27 27 29 31 33 34 35 36 37 38 40 41 42 45 47 48 50 52 54 55 56 57 57 57 55 54 55
31 30 28 27 27 25 24 22 23 26 26 23 19 24 22 20 23 24 26 27 29 31 31 31 31 33 36 38 42 44 46 48 51 54 56 58 60 61 62 63 63 63 62 61
22 29 26 24 27 28 29 28 25 21 21 18 19 20 18 18 23 25 27 27 28 29 29 31 34 37 39 41 44 46 49 52 55 58 61 63 66 68 69 70 70 69 68 67
20 26 25 26 28 28 28 27 24 21 20 18 18 18 16 18 22 23 25 26 25 27 31 33 34 35 37 40 44 48 51 54 57 60 64 66 69 71 72 73 73 72 70 69
20 18 19 21 24 24 26 23 22 21 20 19 16 15 15 18 20 20 20 22 25 27 29 31 34 36 39 43 47 50 53 55 57 58 61 64 68 71 72 73 74 73 72 69
18 17 17 18 21 23 23 22 22 20 16 13 13 15 18 18 19 18 20 23 26 27 29 31 33 37 40 43 45 47 49 53 55 56 57 59 62 65 70 71 69 67 68 68
17 17 18 18 18 18 17 17 16 15 14 12 13 16 17 19 18 21 22 25 27 29 30 31 33 32 33 36 41 43 47 49 51 55 57 54 56 59 62 62 64 61 62 62
17 17 17 14 13 13 14 14 13 13 12 12 14 15 18 18 17 19 22 24 24 25 26 28 29 28 32 33 35 39 38 42 48 48 42 42 43 41 45 55 50 55 57 56
15 13 12 11 13 13 14 14 14 13 15 11 16 16 21 18 17 18 19 19 19 20 17 19 23 24 26 26 35 31 30 36 45 36 34 31 29 33 29 29 25 33 39 43
14 12 12 12 13 13 14 13 12 13 12 13 16 18 17 18 18 19 18 17 16 16 15 20 20 22 18 24 30 27 29 32 36 27 22 18 18 19 15 13 17 21 20 29
14 13 12 12 12 11 11 11 12 13 13 13 14 15 17 16 16 16 15 15 16 12 17 17 18 17 14 19 29 23 23 25 28 24 14 10 7 5 9 5 8 10 16 17
13 13 13 12 10 9 11 12 12 11 11 12 13 14 13 14 13 10 9 10 12 10 14 17 9 13 14 15 19 23 21 21 21 20 11 3 3 5 8 14 7 12 14 15
13 13 13 11 9 8 9 12 13 12 11 12 12 11 8 6 8 10 10 9 9 8 12 11 8 11 16 15 14 16 23 21 21 17 14 5 3 7 8 5 6 11 12 8
14 14 14 13 10 10 10 11 12 13 11 10 11 9 8 5 6 6 4 4 6 8 10 6 10 9 11 15 13 15 16 19 17 15 17 10 2 5 2 2 6 9 14 12
16 17 17 15 13 11 10 12 13 12 8 8 8 9 7 8 7 7 3 4 6 7 7 7 9 15 7 7 14 16 12 12 15 12 16 11 6 4 2 3 4 9 8 9
19 19 19 19 17 14 12 12 13 12 9 9 8 7 8 10 10 8 7 5 7 7 8 9 12 8 5 10 10 12 12 13 11 11 14 15 9 7 3 2 7 8 6 6
20 20 19 18 17 13 13 13 13 11 8 8 10 10 8 8 8 10 12 9 6 5 7 10 10 9 7 7 8 9 7 7 9 7 7 9 8 9 9 8 6 7 9 13
18 16 16 17 16 14 16 16 16 13 9 8 8 9 9 10 8 8 8 8 8 7 9 10 10 10 9 9 8 7 8 9 10 9 9 8 8 7 7 8 9 11 12 14
18 16 17 16 17 17 18 18 19 14 10 9 9 8 8 10 10 10 11 10 8 8 9 8 7 7 6 5 4 3 4 5 6 9 11 12 12 11 11 13 14 16 17 19
22 18 15 17 19 17 19 19 20 16 12 11 9 7 7 6 6 8 10 5 7 9 7 5 4 5 4 4 3 2 3 6 10 13 13 14 15 16 16 16 17 18 20 21

GFSCGP_500_spd_063.txt.gz
Wind_Speed
36 42 36 35 42 48 49 48 46 43 40 43 43 41 37 41 41 43 44 44 44 43 43 43 40 38 38 40 40 40 41 42 45 45 46 45 44 45 42 42 42 40 38 36
36 33 33 34 38 42 46 47 46 45 44 42 44 46 41 40 39 41 43 46 47 47 44 41 41 40 39 39 40 39 39 40 44 46 47 46 45 44 44 42 43 41 39 37
37 33 40 31 36 37 42 44 43 42 41 42 41 43 38 39 40 41 43 43 45 45 44 43 42 42 43 42 41 40 41 42 41 43 45 45 44 43 45 43 43 42 42 43
34 30 30 33 34 30 37 42 41 40 40 42 44 44 38 37 39 41 42 41 42 43 42 42 42 42 43 43 42 42 42 44 45 44 43 43 44 43 44 45 45 46 46 46
30 31 25 35 37 33 31 29 35 38 39 40 40 42 37 39 40 40 40 38 38 38 38 37 39 40 41 42 42 41 41 41 43 45 44 42 45 45 44 45 46 47 48 49
27 19 27 28 37 34 36 31 33 35 39 40 39 40 34 36 36 36 37 38 37 37 37 36 35 35 36 38 40 41 41 41 42 43 44 43 42 43 46 48 49 50 50 51
24 21 19 23 28 33 29 26 33 31 32 31 31 32 30 30 32 31 31 31 32 34 36 36 36 34 35 36 37 38 39 40 42 43 44 46 47 47 48 48 49 51 53 54
24 24 24 18 22 27 23 27 26 25 24 24 23 27 25 24 28 28 29 29 30 30 31 33 32 32 33 34 35 35 36 38 40 42 44 46 49 51 52 54 56 57 57 57
21 22 22 23 19 24 26 21 23 22 23 19 20 22 21 23 24 26 27 28 27 28 29 29 30 31 30 31 32 33 35 38 41 43 47 50 52 55 58 61 63 64 65 66
18 24 20 21 21 24 25 25 21 19 20 17 19 19 18 19 22 25 27 26 26 26 27 28 30 30 30 31 33 35 38 42 45 49 52 55 58 61 63 65 68 70 71 72
17 24 22 22 21 22 24 24 23 24 21 20 19 18 19 20 21 22 24 25 25 26 28 28 27 27 29 31 34 38 41 44 47 50 54 58 61 63 65 67 69 71 72 73
16 18 20 18 19 22 25 26 23 23 20 18 17 18 19 17 19 21 20 21 23 25 25 25 27 28 30 33 33 34 37 39 42 46 50 53 56 57 59 61 65 69 71 73
16 15 15 17 19 19 19 21 21 19 18 17 17 18 20 20 21 15 20 22 23 25 26 28 29 30 29 29 29 30 30 32 40 46 49 46 46 48 49 51 58 63 66 68
13 13 14 15 15 17 19 21 19 18 17 16 18 19 19 17 15 22 23 21 21 24 25 25 24 25 26 26 24 23 26 30 34 37 42 43 49 47 39 39 42 48 53 54
15 12 13 14 14 16 16 17 17 17 17 16 18 17 17 16 18 19 17 18 20 19 18 19 18 18 19 22 21 18 21 30 31 35 39 37 36 32 30 31 33 33 35 32
15 14 15 15 16 15 15 14 14 14 13 16 14 16 16 15 15 14 15 17 16 15 14 17 14 15 20 19 13 19 19 24 26 30 32 32 18 18 17 19 21 24 20 18
17 16 14 13 13 12 11 10 11 11 11 12 16 16 14 13 15 17 17 16 15 14 15 15 15 15 12 11 12 14 14 19 23 29 21 16 15 15 16 10 4 4 7 15
13 13 13 12 11 9 9 9 10 11 12 15 16 14 13 14 14 15 13 12 14 16 16 15 15 11 10 9 12 12 12 15 17 22 16 13 12 9 6 6 9 8 8 7
14 14 12 10 10 8 7 8 10 11 12 13 13 13 13 11 12 13 12 12 13 12 13 11 8 10 15 11 10 10 12 11 12 13 13 11 7 7 9 8 9 6 4 3
14 13 12 10 9 8 8 8 10 12 13 12 13 12 12 12 9 9 11 8 8 9 12 9 5 9 10 4 7 10 8 10 10 10 8 9 8 7 8 8 2 12 7 5
14 14 13 12 11 10 10 11 12 13 13 10 11 11 13 12 10 7 9 7 7 5 5 5 4 8 3 3 8 8 8 8 9 12 10 7 14 11 9 9 10 9 7 2
16 16 16 16 15 14 12 13 13 14 13 11 11 11 12 12 11 10 9 10 8 6 6 3 2 4 5 8 7 8 4 4 4 5 8 7 10 10 10 9 9 10 8 6
19 20 19 18 18 18 15 15 15 14 14 13 10 11 11 9 9 9 12 12 11 10 7 4 4 5 5 7 7 7 5 5 3 3 6 9 10 10 10 10 10 10 11 13
20 19 19 18 19 18 17 17 17 17 15 13 8 6 8 9 8 8 7 8 11 11 10 9 8 7 6 5 4 0 1 2 4 5 7 8 9 9 9 9 10 11 11 12
18 18 18 18 19 19 18 18 19 19 17 13 8 8 9 10 10 10 10 11 11 9 7 7 7 6 4 2 1 2 1 1 3 8 9 8 10 11 11 12 12 13 14 16
16 16 17 17 20 18 20 19 20 20 20 16 10 9 10 8 5 6 8 9 9 8 7 6 5 4 4 4 5 5 4 5 8 11 12 13 14 13 14 15 16 16 18 20

GFSCGP_500_spd_066.txt.gz
Wind_Speed
44 45 45 36 28 56 59 56 52 48 46 47 43 42 43 46 42 42 44 47 46 46 44 42 40 38 38 37 36 37 39 40 42 42 43 43 44 45 45 47 47 46 45 44
44 40 35 34 34 42 59 55 52 50 45 42 45 42 40 42 42 41 41 42 43 43 41 40 39 39 38 38 37 37 38 38 40 41 41 43 44 46 46 46 47 47 47 47
39 35 35 34 31 39 53 51 50 48 46 44 43 46 46 41 39 39 40 40 39 40 41 41 41 40 39 38 39 39 39 39 40 41 43 45 46 46 47 46 45 47 49 50
36 36 32 33 33 34 46 48 47 44 43 45 43 44 44 44 40 39 38 39 39 40 41 41 42 41 41 41 41 41 41 41 40 42 44 45 45 45 45 48 48 48 49 50
33 32 29 28 34 36 32 41 42 40 41 43 43 43 41 39 39 40 41 40 39 38 39 40 41 41 42 42 40 41 42 42 41 41 43 44 45 44 43 45 48 50 50 51
23 21 34 17 29 34 33 32 35 37 39 41 42 43 42 40 38 38 39 41 40 40 39 40 40 40 40 39 40 41 41 42 43 43 44 44 45 44 43 41 43 47 49 51
19 19 12 25 28 36 34 30 30 35 37 40 40 41 42 38 38 37 37 38 38 38 39 39 39 39 39 38 37 37 37 39 41 42 42 42 42 44 44 44 44 46 48 51
23 15 22 25 25 29 37 37 35 36 38 42 40 42 41 37 37 36 35 36 37 37 37 37 38 38 38 37 36 35 35 36 37 39 40 40 42 43 45 47 49 50 51 53
19 17 16 20 15 27 30 33 33 36 30 29 34 35 32 32 32 33 33 33 33 32 32 32 32 33 33 33 34 34 33 33 33 35 37 39 42 44 47 50 54 56 59 60
24 16 19 14 15 20 26 25 24 27 25 23 22 24 24 25 27 29 30 30 31 30 30 30 31 32 32 31 31 30 31 31 32 34 37 41 44 48 51 55 58 61 63 65
20 16 15 16 18 20 26 26 22 23 21 19 21 20 21 23 25 27 28 28 27 27 28 29 29 28 29 30 29 29 30 31 33 35 37 41 44 48 53 58 62 65 67 68
13 14 19 18 19 21 23 25 25 25 21 19 19 19 21 22 24 25 27 26 26 27 29 28 27 28 28 27 29 30 31 31 31 33 34 36 43 49 54 60 63 63 63 63
13 12 21 18 18 19 20 22 23 22 23 21 21 23 22 24 27 26 21 22 25 25 26 25 25 26 27 29 30 31 30 28 29 26 27 30 36 42 52 54 53 52 54 57
14 11 14 17 16 18 19 22 23 22 20 20 23 25 24 23 19 19 22 24 23 25 26 26 26 28 29 28 27 27 26 27 23 23 24 28 32 36 42 40 38 39 43 44
13 11 10 12 14 14 15 15 18 20 21 24 25 24 22 18 19 21 23 24 24 24 24 26 24 24 25 26 25 24 25 22 21 19 21 25 29 29 30 34 33 36 35 36
14 12 12 12 11 12 12 13 15 17 20 22 21 23 20 21 21 21 22 21 20 20 21 24 24 22 22 21 21 23 22 23 19 15 18 20 23 19 22 24 25 24 28 28
14 16 16 16 15 16 16 16 17 19 21 21 22 21 19 18 18 18 18 17 18 20 23 23 19 18 21 20 21 18 20 20 17 13 13 12 15 15 15 15 16 20 16 15
17 15 13 13 14 14 15 16 16 16 16 18 17 17 17 15 15 15 16 16 18 20 20 20 18 19 21 18 14 16 17 18 16 12 9 9 9 11 12 12 10 14 15 13
15 14 13 12 13 12 12 12 14 15 16 17 17 17 16 14 13 14 16 16 16 14 15 15 17 17 16 19 18 16 14 14 14 10 10 9 8 8 7 7 12 15 13 11
15 14 13 13 12 12 10 9 9 12 15 15 15 15 14 14 13 12 13 13 12 12 13 15 16 14 12 13 11 8 10 11 11 6 8 11 9 9 9 11 11 12 12 7
15 15 14 14 14 12 11 9 8 10 13 12 12 13 15 15 15 13 10 11 10 10 9 11 14 14 11 9 8 11 10 9 8 8 5 5 5 7 7 9 10 11 9 8
16 16 16 15 15 14 11 11 10 10 12 12 13 13 14 16 15 15 12 13 11 9 11 10 13 11 9 13 12 10 10 11 10 10 9 8 6 4 6 8 10 12 12 12
16 17 17 17 16 16 16 14 14 13 14 15 14 13 14 13 15 16 16 15 15 14 12 12 12 10 9 11 12 13 13 12 10 10 8 4 7 10 11 12 13 15 16 15
19 20 21 20 20 19 18 18 17 16 16 16 14 12 12 14 13 14 14 14 16 16 15 13 12 10 10 10 10 10 9 7 7 7 7 9 9 11 13 14 14 14 14 14
18 19 20 20 21 19 19 19 19 18 18 17 15 14 11 11 14 14 15 15 14 13 13 13 12 12 12 10 10 10 10 10 10 9 10 10 11 12 13 13 14 14 14 16
15 16 17 20 22 20 21 21 21 21 21 21 18 16 11 9 10 13 14 15 15 14 14 15 12 11 11 11 12 12 12 11 11 11 10 12 14 14 14 16 15 16 17 18

GFSCGP_500_spd_069.txt.gz
Wind_Speed
51 62 51 44 41 28 45 54 53 54 51 47 46 44 50 50 48 47 49 49 48 47 47 45 42 40 38 38 38 38 38 37 37 39 38 40 39 41 40 41 41 41 41 43
52 41 45 43 39 35 42 55 57 55 50 46 47 45 42 44 45 47 48 46 44 46 46 43 42 41 39 39 39 38 38 37 37 39 39 40 43 43 41 42 42 42 42 43
50 46 44 43 44 36 31 48 60 59 50 46 48 46 41 39 41 44 45 43 42 40 42 43 43 41 38 38 39 39 38 38 38 40 42 39 44 44 43 43 44 46 46 45
47 43 44 39 32 31 31 35 54 60 50 47 46 44 46 41 39 40 43 45 42 36 36 37 38 38 38 38 39 39 39 39 40 41 41 42 42 44 44 45 47 48 49 47
41 41 37 35 28 30 36 29 48 48 47 49 46 45 46 42 38 36 36 39 41 43 42 40 38 36 35 36 36 37 38 39 41 42 43 44 45 43 44 46 46 47 47 48
33 37 34 32 30 32 28 34 40 41 45 45 46 44 48 40 40 42 41 38 38 38 38 37 36 36 36 36 36 37 38 39 40 42 43 44 44 44 45 46 47 47 46 47
29 30 30 24 26 34 29 26 33 36 38 41 44 43 49 41 39 38 40 43 40 39 39 39 38 37 37 37 37 37 38 38 38 39 40 42 43 44 44 45 46 46 46 46
23 30 19 25 25 26 30 33 33 36 39 41 43 43 48 41 43 39 38 38 38 38 39 40 40 40 38 38 38 38 38 38 38 38 39 40 41 42 42 44 45 47 48 49
22 24 20 19 26 24 32 38 28 31 38 41 40 41 40 39 40 39 39 38 38 39 38 38 38 38 38 38 38 38 38 37 37 36 36 36 37 38 39 41 44 46 50 52
11 10 16 18 18 24 33 34 36 38 27 30 36 40 43 40 39 38 38 38 38 38 37 37 37 36 36 35 35 35 35 35 33 32 32 33 34 35 38 41 43 46 50 54
12 11 13 15 14 19 27 34 34 34 37 32 28 30 37 35 33 33 34 35 36 36 35 34 34 35 35 35 34 34 32 31 31 31 31 31 32 33 32 34 37 41 48 55
18 13 13 14 16 16 22 27 29 23 22 22 20 20 22 27 28 31 31 32 32 32 32 33 34 34 34 33 31 30 30 30 29 29 29 30 29 28 30 33 36 45 49 50
12 13 15 18 18 18 19 25 24 20 20 21 21 18 21 21 25 28 31 31 31 32 32 32 32 31 30 29 28 29 30 29 30 31 30 28 27 28 28 33 36 36 39 43
11 11 16 18 14 15 16 20 23 25 24 23 24 19 21 22 23 24 26 27 29 32 30 30 28 28 27 28 29 29 29 31 31 30 28 26 25 25 23 27 30 31 35 35
12 10 11 16 17 17 18 19 22 22 22 26 27 26 26 24 22 23 24 27 27 26 28 27 26 26 27 27 27 27 29 28 27 26 27 25 24 23 20 22 26 30 31 31
13 11 11 13 14 16 16 18 18 22 24 24 26 26 24 22 21 23 25 26 26 26 25 25 25 25 24 23 24 25 26 26 27 28 26 24 24 20 18 16 17 19 24 30
12 13 13 12 13 12 13 15 17 21 27 27 23 22 18 21 22 23 24 23 23 24 25 24 23 24 25 24 23 24 26 26 25 23 25 26 23 21 18 15 16 16 19 23
14 14 13 12 13 14 13 15 16 17 17 21 21 19 20 19 21 21 21 22 23 23 24 24 26 26 23 21 20 21 21 18 19 22 24 23 22 19 18 18 16 19 23 27
14 14 13 13 13 12 15 15 16 17 17 19 19 19 19 19 19 20 21 22 23 23 23 22 21 21 22 22 21 19 19 19 21 21 20 20 21 19 19 17 15 16 16 18
16 16 14 13 14 14 13 14 15 16 18 18 18 18 18 18 18 17 19 18 18 19 18 18 18 20 20 18 15 20 21 17 18 18 19 18 18 18 18 16 16 17 17 17
15 15 14 15 14 13 12 12 12 13 14 16 17 16 17 18 18 18 16 14 14 15 14 14 16 18 16 15 17 18 17 17 16 15 16 16 16 16 17 16 15 16 16 17
15 16 16 16 15 15 13 12 11 11 10 13 17 17 17 17 18 17 16 14 13 13 14 12 11 15 14 15 15 17 15 14 15 17 17 16 16 17 13 14 15 16 19 20
15 16 17 17 17 16 15 14 14 12 11 13 16 16 15 16 16 18 18 16 15 16 14 11 12 12 14 14 16 18 17 18 18 19 18 16 12 14 15 14 17 18 19 20
19 19 19 19 19 18 18 18 18 18 15 15 17 17 17 15 15 15 16 18 18 18 18 16 14 15 14 16 17 18 18 16 16 15 13 13 14 15 15 16 17 18 19 17
20 22 23 23 24 23 22 22 20 20 18 17 17 18 16 14 14 17 16 16 17 16 17 17 17 18 19 18 16 16 15 14 14 14 16 18 17 15 15 16 17 18 17 17
16 19 21 23 24 23 23 22 22 22 21 19 19 19 17 16 14 16 16 16 17 18 17 17 17 17 18 16 16 16 16 16 17 18 18 18 16 16 17 18 17 18 18 18

GFSCGP_500_spd_072.txt.gz
Wind_Speed
56 56 54 41 32 39 37 34 36 45 50 53 47 47 50 49 49 48 42 44 51 44 39 39 40 41 40 37 35 36 36 36 37 36 34 35 34 35 36 36 37 37 38 38
59 59 49 44 40 37 37 36 34 40 45 52 48 45 47 46 47 48 44 44 44 49 46 43 43 40 40 39 38 37 37 37 37 37 36 35 38 37 39 39 37 40 41 43
52 47 49 46 42 39 37 31 32 39 43 52 48 46 46 45 42 49 47 45 42 41 43 40 40 41 41 40 39 39 38 38 38 39 41 37 38 39 40 39 40 42 43 44
41 47 46 44 33 36 32 37 28 34 44 48 44 43 43 39 40 35 48 42 44 42 42 39 36 39 40 41 40 40 39 40 41 41 40 42 39 38 40 42 42 43 45 45
38 42 49 49 38 40 34 36 27 29 39 48 46 44 42 41 39 33 33 42 47 45 43 40 38 37 39 40 39 39 39 40 39 39 39 40 42 40 40 42 44 45 46 46
50 41 36 40 40 34 38 38 29 32 36 42 47 43 44 39 36 36 34 32 35 33 36 41 38 35 34 33 34 35 36 38 39 38 39 40 41 43 43 42 43 46 47 46
45 42 37 34 33 36 30 31 34 31 33 34 39 49 45 41 37 33 34 33 34 34 34 36 37 38 36 36 36 34 33 34 36 37 38 38 39 41 42 43 44 44 44 44
35 39 34 31 32 31 26 25 29 32 31 31 38 46 44 43 39 34 39 33 34 35 36 35 35 34 34 33 33 33 34 35 35 36 36 37 38 39 40 41 41 41 41 41
24 28 28 27 28 20 25 31 31 30 25 26 35 43 44 45 41 35 36 36 35 36 40 40 38 37 37 36 37 37 37 37 37 37 37 38 38 38 37 37 37 37 38 39
22 23 29 19 21 24 19 28 31 22 23 23 29 37 42 39 37 36 38 38 39 36 36 37 37 36 36 37 37 38 38 38 37 36 36 36 35 34 34 33 33 34 35 36
16 18 21 14 15 19 21 25 34 32 25 21 25 29 34 38 35 36 38 38 38 38 38 38 38 38 38 39 39 38 37 36 35 35 35 33 32 32 31 31 32 31 31 34
6 11 15 13 12 15 19 29 31 33 33 27 26 21 23 32 35 37 36 37 38 38 38 38 38 39 38 37 36 35 34 34 35 34 32 32 31 30 30 30 28 29 27 33
9 7 8 10 11 12 17 22 28 28 26 27 29 24 21 18 24 30 35 34 33 35 36 36 37 37 36 36 35 34 34 33 32 31 31 30 29 30 28 27 27 27 30 30
9 12 14 15 14 14 14 19 21 24 24 17 19 17 16 16 18 23 25 28 31 32 32 32 31 32 32 32 31 31 31 30 29 29 29 30 31 28 27 26 27 27 27 25
10 12 13 14 18 18 18 19 20 21 22 22 21 18 18 19 19 19 20 22 24 27 28 28 27 30 28 29 28 29 29 28 28 29 31 30 27 26 25 25 26 26 24 23
11 12 10 10 17 19 18 18 18 21 24 25 24 24 23 22 20 19 19 22 24 25 25 26 27 28 28 29 27 26 26 27 29 30 27 26 26 24 25 25 27 28 26 24
11 12 12 12 13 15 17 18 19 20 23 26 26 25 24 20 18 19 21 22 23 23 24 25 26 25 25 25 25 25 26 26 25 24 25 25 23 24 25 27 26 26 27 25
11 11 12 13 13 15 14 16 17 19 21 23 23 23 18 17 19 21 21 21 22 22 22 24 23 24 24 25 25 25 22 21 21 21 20 19 19 23 25 26 26 26 24 23
13 12 12 11 10 10 12 12 14 16 16 17 21 21 19 20 21 20 20 21 22 22 22 22 22 24 25 25 23 22 22 21 20 19 18 20 21 23 25 26 26 24 21 23
13 12 13 11 11 12 10 12 13 13 14 15 15 16 18 18 18 17 18 19 20 20 21 22 23 24 24 21 21 21 20 18 20 19 19 20 21 23 23 25 23 22 24 25
14 14 15 13 12 10 12 11 12 13 12 16 16 16 18 18 18 19 19 19 18 18 18 20 20 20 20 19 20 18 19 18 16 17 17 17 18 18 20 21 21 22 21 20
14 14 14 13 13 12 11 11 11 9 10 11 14 16 17 17 17 18 18 16 16 14 14 14 13 14 16 18 17 17 16 14 14 15 15 16 18 19 19 19 18 18 19 20
13 13 13 14 13 14 13 13 14 11 9 10 12 15 16 16 16 16 17 17 17 15 15 15 15 14 12 14 14 12 15 18 18 17 18 18 18 19 16 17 17 18 19 20
14 14 14 15 15 16 16 15 16 15 14 12 12 14 15 15 16 17 17 16 17 16 16 16 15 14 14 14 14 14 15 17 19 19 17 15 14 14 16 17 17 17 18 20
18 19 19 19 19 18 18 17 18 17 18 17 16 16 17 17 18 16 17 16 16 17 17 19 19 18 17 17 17 17 17 17 17 17 15 14 15 17 18 17 17 19 19 20
13 17 18 21 21 23 20 21 22 21 21 20 20 19 19 18 17 15 17 17 17 16 17 17 16 16 16 17 18 18 18 18 17 17 17 17 18 18 18 17 19 20 19 20

GFSCGP_500_spd_075.txt.gz
Wind_Speed
52 57 51 41 36 36 36 37 37 34 40 42 46 47 46 51 43 44 43 41 47 49 42 44 42 41 41 41 40 37 34 32 33 35 34 32 32 33 33 31 32 30 32 34
51 51 49 44 39 30 31 35 35 33 37 41 40 45 47 47 47 40 42 46 43 50 50 45 44 43 41 40 38 35 36 35 34 35 35 36 35 35 33 33 33 34 35 34
48 46 43 42 43 35 28 33 30 29 31 33 36 43 45 45 47 45 40 44 43 42 47 49 44 41 38 36 35 36 39 38 36 36 36 36 37 36 36 36 36 36 37 36
48 47 44 43 39 33 30 29 30 33 27 24 29 34 45 42 41 45 41 41 46 43 41 44 50 45 42 40 41 39 38 39 39 39 38 37 37 37 38 39 40 39 40 40
47 44 38 42 39 34 31 27 32 28 24 26 31 35 39 46 43 39 39 35 43 44 40 40 40 44 47 44 45 43 42 42 42 40 40 40 40 40 39 39 40 42 43 45
39 46 40 38 36 34 31 31 29 30 27 30 30 31 35 43 37 37 33 35 35 47 44 42 40 40 42 39 39 44 44 42 42 42 42 41 41 40 40 40 40 41 44 45
38 41 40 39 37 34 31 34 30 29 32 27 29 32 29 41 41 37 34 35 30 35 45 44 42 41 43 40 33 33 36 38 39 41 41 40 40 40 40 41 40 40 42 43
41 41 39 43 42 33 30 27 31 33 33 30 29 27 25 37 41 37 34 32 30 31 32 32 33 35 40 42 39 35 36 37 36 38 37 38 39 40 40 40 40 40 40 39
37 35 31 32 35 30 32 34 28 38 37 33 30 29 26 37 42 39 34 33 34 31 31 33 31 31 32 34 37 36 34 35 34 35 36 37 38 38 39 40 41 39 37 36
28 25 22 22 23 29 27 30 28 23 25 30 25 19 24 29 38 38 36 34 32 37 30 30 31 33 34 33 34 35 37 38 37 38 38 39 40 40 39 38 36 35 35 34
19 21 23 23 21 26 25 27 30 28 26 33 23 16 15 26 30 36 36 36 37 35 36 34 33 34 35 37 37 37 38 38 38 39 39 39 38 36 35 34 35 35 33 32
18 19 21 20 18 22 27 23 27 31 32 22 18 15 13 18 25 30 32 35 34 39 37 37 37 37 37 37 38 38 38 39 38 38 36 35 34 34 34 34 34 32 32 31
17 17 19 14 12 17 20 23 24 23 26 27 33 25 23 17 19 26 31 35 36 38 38 38 37 38 39 38 38 38 37 36 35 34 33 33 33 33 34 33 32 33 31 29
10 9 10 8 9 11 13 17 18 21 25 26 28 26 25 25 16 20 29 32 35 35 33 36 37 37 37 37 36 35 34 33 32 32 31 32 33 33 32 31 31 29 29 29
5 6 9 12 14 17 16 16 19 21 24 25 26 17 15 13 11 14 17 23 25 30 33 34 33 31 31 32 31 30 30 29 30 30 31 31 30 30 31 30 27 28 28 28
8 8 10 13 16 20 21 20 18 20 21 20 22 18 14 16 15 10 12 16 19 21 24 26 25 25 26 26 27 27 27 28 28 28 28 29 30 30 28 26 27 27 27 28
12 12 12 12 12 19 22 21 19 20 21 22 22 19 21 19 17 13 17 20 19 19 20 21 22 23 24 24 25 24 25 26 27 27 28 28 27 26 25 26 26 27 28 27
13 12 12 15 15 15 17 20 20 20 23 22 22 24 20 17 16 22 22 21 20 20 19 20 22 22 22 23 24 24 25 26 26 24 23 22 22 22 22 22 26 26 27 25
13 13 13 14 12 12 14 16 16 17 18 18 19 20 18 19 23 19 19 19 19 19 20 21 21 21 22 23 23 23 23 23 22 21 21 20 19 20 21 24 23 25 24 24
15 12 12 12 11 10 12 15 13 13 14 12 13 15 20 23 19 21 20 21 21 21 21 21 21 22 22 22 22 22 21 20 21 22 22 21 20 20 22 21 22 22 22 22
14 14 13 14 11 10 12 12 12 13 9 11 13 15 16 18 20 19 19 20 20 20 19 18 19 20 21 21 21 21 20 19 20 19 19 20 18 17 18 17 18 19 21 22
13 13 13 15 13 12 9 10 10 10 9 10 12 16 18 19 18 20 20 20 19 18 17 16 17 17 17 18 18 18 18 17 19 19 16 16 16 16 17 17 18 20 20 20
11 12 12 13 13 13 11 11 11 10 8 9 10 11 15 18 17 17 16 16 18 17 16 15 16 15 14 13 16 18 17 16 16 16 15 16 16 17 16 16 16 16 19 20
12 12 12 13 13 13 12 13 13 13 12 11 10 11 11 14 15 15 15 15 16 18 18 17 17 15 14 14 14 15 15 15 16 17 17 17 17 16 14 14 15 18 19 19
18 16 15 14 14 13 12 14 14 13 14 14 13 14 14 14 16 16 16 17 17 18 19 18 17 18 17 16 15 16 16 14 15 16 16 16 15 14 14 16 18 19 19 19
16 19 18 19 17 17 17 18 18 17 18 18 18 17 18 17 18 18 18 16 16 17 18 19 18 19 20 19 18 18 18 17 17 16 16 16 17 17 17 18 19 20 20 20

GFSCGP_500_spd_078.txt.gz
Wind_Speed
49 62 56 48 42 45 45 42 40 40 41 39 37 40 41 47 43 44 43 42 43 49 49 51 49 48 50 50 45 43 41 39 41 40 38 36 33 35 33 31 31 29 30 32
48 58 56 42 41 36 38 39 38 34 35 38 37 37 45 48 48 43 38 44 43 46 52 51 51 48 48 46 45 41 39 38 37 39 39 37 35 34 31 31 31 33 34 34
51 53 60 43 42 38 35 36 32 35 36 34 35 41 41 45 49 46 46 38 42 42 44 49 48 48 46 45 44 42 40 38 40 40 40 38 34 32 33 33 34 35 35 35
51 52 53 53 40 36 30 30 32 34 34 33 32 35 40 38 43 49 45 43 38 42 40 40 46 48 49 46 44 43 44 44 43 39 37 36 35 34 34 34 36 36 37 37
46 49 47 41 39 37 30 26 28 28 28 27 29 33 38 41 40 41 43 42 41 39 38 38 38 45 49 50 49 43 43 43 42 41 38 35 35 36 38 38 39 39 40 40
46 50 49 36 35 38 33 25 25 27 26 30 26 28 32 34 35 38 41 38 45 42 40 40 38 40 45 51 47 49 52 47 42 42 42 43 41 41 41 42 42 41 42 43
48 51 41 38 39 38 34 29 28 31 30 27 27 30 24 24 34 40 43 38 38 43 38 38 42 41 40 42 49 52 50 50 53 53 52 45 43 42 42 42 41 41 42 43
45 49 39 29 38 34 32 32 34 32 30 26 26 21 18 20 26 39 45 42 40 37 37 37 43 43 42 41 42 44 46 42 41 44 47 48 47 44 42 41 39 40 41 41
39 46 40 40 36 37 33 31 30 28 25 28 23 15 16 18 24 34 44 41 38 34 33 35 38 45 47 43 42 41 45 41 37 35 37 39 40 39 39 40 40 40 41 42
38 41 39 35 34 35 34 25 24 22 19 26 30 23 15 13 26 33 41 40 37 39 36 35 32 35 39 39 40 41 43 44 43 39 39 39 39 39 40 41 41 42 42 42
24 22 23 26 31 32 35 25 30 27 28 27 24 26 17 19 25 32 40 37 37 36 39 38 34 34 36 36 36 37 37 38 39 38 38 38 40 41 41 42 42 42 41 39
24 20 16 15 20 22 29 26 27 30 27 31 26 22 15 12 17 25 36 39 37 36 37 39 37 33 34 35 36 36 37 37 38 39 41 40 40 41 41 41 40 39 37 36
22 22 22 23 22 22 27 28 24 28 30 32 30 20 17 12 9 20 27 32 36 35 36 38 39 41 35 33 35 36 39 40 40 40 39 40 39 39 38 36 36 35 35 36
16 15 15 14 14 16 19 25 28 26 27 28 30 27 25 26 23 19 26 33 33 34 35 34 37 34 40 35 36 37 37 38 39 38 37 35 34 34 33 34 34 35 35 35
11 12 16 14 14 15 16 21 26 26 25 30 27 24 22 23 24 24 23 28 33 35 35 34 34 36 36 38 37 36 36 34 34 33 32 31 31 31 32 33 34 34 34 34
11 10 11 13 14 16 18 19 20 21 21 21 21 21 21 19 17 14 14 19 25 28 30 33 34 35 35 35 35 32 30 29 29 29 29 30 29 29 31 32 33 32 32 31
13 11 11 13 14 16 19 21 22 22 21 23 23 19 19 17 13 16 15 15 16 18 19 23 26 29 31 32 28 27 26 26 27 27 27 28 29 29 30 31 30 30 29 29
16 14 14 15 17 17 15 20 22 22 23 21 22 21 19 19 17 15 17 16 15 16 17 18 19 22 24 25 25 25 25 25 26 27 26 26 28 28 27 27 27 26 26 27
17 15 16 15 15 15 15 17 18 19 21 21 22 23 18 17 18 20 18 19 19 18 19 19 19 20 21 23 24 25 25 26 26 26 26 26 25 24 24 23 23 23 24 24
16 16 16 14 15 15 15 14 14 15 15 15 18 19 19 18 21 22 19 17 17 18 20 21 21 22 22 23 24 25 25 24 24 24 25 24 25 25 24 22 22 22 21 23
19 19 17 16 15 15 14 13 14 13 13 12 14 14 17 20 22 18 18 18 19 20 22 22 22 22 22 24 23 23 23 23 23 23 23 23 24 23 20 20 20 20 19 19
17 18 17 16 17 16 13 14 14 13 14 15 14 13 16 18 18 19 20 21 22 21 21 21 20 19 20 20 21 22 22 22 22 21 21 22 20 18 20 20 18 18 18 19
16 16 17 16 18 16 16 15 15 14 14 13 11 11 15 17 18 18 19 20 19 19 20 20 19 18 18 17 17 19 20 20 21 20 21 21 19 19 19 17 18 18 18 20
17 16 16 17 17 15 16 16 15 13 14 11 11 11 11 14 17 19 19 17 16 17 19 19 19 17 17 17 16 16 17 19 19 20 20 19 17 18 18 18 18 18 19 20
19 17 17 17 17 15 16 17 16 15 15 13 14 14 14 13 14 16 17 17 16 17 18 19 20 18 18 17 16 15 16 18 18 19 20 20 18 18 19 19 18 18 19 21
23 22 20 19 16 17 17 18 16 16 16 16 16 16 16 16 16 16 18 20 18 18 19 19 20 21 21 21 20 18 18 18 18 17 17 17 17 18 19 19 19 19 21 23

GFSCGP_500_spd_081.txt.gz
Wind_Speed
42 45 60 44 56 53 50 46 45 42 46 44 40 43 37 53 55 64 62 37 45 51 51 48 49 52 52 50 49 48 46 45 43 41 41 40 38 38 36 35 34 31 30 31
45 43 52 52 47 54 48 46 44 39 38 42 45 42 40 40 51 58 58 44 38 34 49 47 51 51 53 52 48 48 47 47 45 45 45 44 42 40 38 37 35 33 33 34
41 41 45 48 42 54 50 43 39 36 34 35 36 43 43 38 42 47 42 44 41 40 41 43 42 47 52 50 47 45 45 46 47 47 46 45 44 41 38 37 37 36 36 36
43 47 47 50 46 45 49 40 39 38 36 32 38 38 42 38 42 41 42 31 38 39 43 39 41 47 47 50 47 47 48 47 45 45 46 46 45 41 38 38 38 36 36 36
45 49 45 46 47 40 37 35 36 37 37 36 34 32 38 42 39 39 41 41 38 35 35 40 39 43 50 52 53 49 47 47 47 46 45 45 44 42 39 38 37 37 38 39
48 59 47 40 38 38 34 33 32 32 32 35 32 32 30 33 39 38 36 42 46 45 40 38 41 39 41 49 51 54 49 47 48 46 45 45 43 41 39 38 39 40 41 42
43 56 46 37 40 38 37 30 29 30 33 35 31 29 17 30 31 38 40 38 43 49 48 47 41 41 42 41 48 51 53 53 52 47 47 48 46 42 39 39 40 43 45 45
38 48 56 35 35 35 38 32 34 35 36 32 31 28 20 21 28 31 34 39 41 45 49 51 47 49 46 43 43 45 52 51 51 52 53 54 55 54 54 53 47 46 45 46
41 43 36 29 36 34 39 36 32 32 32 28 27 19 18 21 27 27 32 38 42 43 45 47 49 45 47 48 46 44 44 48 54 56 55 53 53 50 47 47 48 48 47 43
45 47 35 35 39 34 34 31 30 28 27 25 24 19 18 15 17 27 32 37 42 43 43 43 43 45 44 45 47 46 44 45 46 47 49 47 42 41 41 41 42 42 42 41
31 43 32 33 40 39 39 35 34 29 28 26 25 23 24 21 20 26 32 35 41 44 45 45 43 41 39 39 45 48 45 46 45 44 43 47 44 42 42 42 42 42 42 42
26 40 29 28 27 31 33 31 27 24 24 26 25 17 14 19 22 27 27 28 39 45 44 43 46 46 41 37 36 40 43 45 44 44 44 46 47 43 43 43 42 43 44 44
19 18 21 23 24 28 28 32 33 23 29 27 27 20 18 19 21 17 18 20 30 41 43 38 38 37 43 35 34 34 37 38 40 41 41 41 43 44 44 43 45 44 43 42
21 21 16 14 14 15 18 20 31 34 31 26 24 22 23 24 28 28 23 22 25 37 35 35 35 37 40 35 32 33 33 34 36 38 42 42 42 42 42 42 41 41 40 38
19 19 19 20 20 21 24 28 32 33 29 29 21 26 24 27 28 23 23 20 30 35 39 37 35 34 34 38 41 39 38 32 31 36 38 41 42 41 39 38 37 36 35 36
18 18 19 20 19 17 18 21 23 25 27 23 24 25 24 23 23 23 22 22 24 32 34 35 36 36 35 38 37 34 43 45 36 36 36 38 38 36 35 35 34 33 34 34
15 15 15 17 18 19 20 19 21 22 25 26 29 22 24 22 21 18 20 20 22 25 32 35 33 34 35 34 36 35 36 36 36 35 36 34 33 33 33 33 33 32 32 30
19 16 15 14 16 18 16 17 19 20 22 22 18 18 17 18 19 17 18 20 16 16 21 25 28 31 33 35 36 36 33 30 33 33 33 32 32 32 32 31 30 29 30 31
21 18 17 18 17 15 17 15 15 17 19 22 21 20 16 17 19 18 17 18 21 25 22 19 20 22 25 27 29 33 32 32 32 30 30 30 30 30 30 29 28 29 30 30
18 18 18 17 17 15 15 16 15 15 17 19 21 21 17 17 18 21 24 20 15 16 18 19 21 21 23 24 24 26 28 29 29 29 30 30 29 29 28 27 27 26 24 24
20 19 18 18 17 15 15 15 14 15 15 15 16 17 16 18 22 23 20 20 18 18 18 19 20 21 22 22 23 24 26 27 27 28 28 28 27 27 28 27 27 25 25 23
20 21 20 21 17 18 17 15 16 15 14 15 15 17 19 18 18 20 22 21 20 20 21 22 22 21 21 22 23 24 24 24 25 25 26 26 26 26 25 26 25 23 23 22
19 18 19 20 20 18 19 17 16 16 15 14 17 17 17 17 18 18 18 20 21 21 21 21 20 20 20 20 21 21 22 24 24 24 25 25 25 24 23 22 22 22 21 20
20 19 18 19 19 19 20 18 18 17 16 20 16 16 12 13 15 17 18 19 19 18 19 20 20 21 20 19 19 19 19 20 22 23 23 23 23 23 23 22 21 20 20 21
21 20 20 19 20 19 19 19 19 18 13 13 17 12 12 12 11 13 16 19 19 18 19 19 19 21 20 20 18 19 18 18 19 21 21 22 22 22 20 21 21 22 22 21
22 23 21 20 19 19 20 19 19 19 18 16 15 15 15 15 15 15 15 17 19 19 20 20 20 21 21 22 20 20 17 17 18 19 20 20 21 22 22 22 22 22 22 22

GFSCGP_500_spd_084.txt.gz
Wind_Speed
36 41 38 49 56 53 55 54 51 46 42 42 40 39 43 49 56 55 58 62 49 54 57 56 58 56 64 60 50 45 44 44 44 42 40 38 37 38 37 35 32 30 32 32
43 39 33 44 40 50 55 51 44 42 40 40 39 39 42 45 53 49 52 49 60 51 52 55 60 62 58 59 57 53 50 48 44 42 42 42 41 41 38 37 35 35 34 35
41 39 37 47 48 49 55 49 43 41 40 39 37 40 39 43 51 57 48 54 49 41 52 54 60 57 49 53 56 54 54 52 49 47 46 45 43 42 40 39 40 40 39 37
38 40 40 47 37 38 51 45 37 39 39 36 33 41 38 42 46 48 43 45 44 52 44 52 57 55 48 48 49 57 54 52 50 49 48 47 46 44 43 44 42 40 41 41
41 40 43 44 32 34 43 46 38 39 40 38 34 33 38 43 43 41 38 36 44 56 52 41 39 50 51 46 46 50 52 54 53 53 51 50 49 48 46 45 43 43 43 43
41 41 46 41 34 32 36 46 43 37 37 37 34 29 27 35 39 40 38 39 35 40 39 50 46 41 43 44 43 46 48 48 50 52 51 49 50 50 48 46 45 44 44 44
42 46 44 43 33 33 31 32 43 38 38 40 34 32 25 29 33 37 39 35 35 39 40 40 44 44 45 41 39 43 49 51 50 49 50 51 51 50 48 47 47 47 46 44
34 48 40 39 39 33 31 28 34 40 41 38 33 33 25 24 32 29 31 35 36 31 38 41 38 39 40 41 41 39 44 49 51 53 51 48 48 49 48 46 45 44 43 44
33 44 42 40 39 37 34 30 30 30 35 36 33 33 22 22 21 28 30 28 32 37 35 40 45 49 49 46 40 41 43 45 50 53 52 53 53 51 49 47 47 48 50 54
31 44 40 32 36 35 34 31 29 28 32 34 33 31 24 23 27 31 30 30 32 35 40 42 45 48 51 55 52 52 50 49 48 50 54 54 52 52 53 54 54 52 53 50
26 43 43 19 26 26 31 35 31 28 27 28 29 29 24 23 27 27 29 34 36 36 37 42 47 47 50 52 55 52 50 51 52 52 51 51 53 56 56 55 53 49 44 42
33 38 36 22 26 32 31 32 33 31 29 28 27 26 20 18 25 27 24 25 28 33 42 41 45 48 48 47 46 50 48 50 51 52 49 48 48 49 48 44 47 47 44 44
33 38 29 22 32 38 32 30 32 32 30 27 26 26 23 14 17 25 26 23 16 23 30 37 40 46 49 46 42 47 48 45 46 49 51 49 48 47 46 45 46 49 45 44
24 27 32 21 22 21 27 27 26 27 27 25 27 23 22 22 23 20 25 25 26 26 25 32 37 43 44 43 44 46 43 38 38 41 44 45 44 42 41 39 40 41 46 47
19 21 27 21 18 19 23 26 29 33 33 34 25 29 22 25 24 25 26 29 28 25 26 30 33 39 39 35 38 41 39 35 29 30 34 36 38 38 39 40 39 40 41 43
17 22 20 19 23 24 23 25 28 28 27 33 30 28 26 27 26 23 27 27 28 28 28 32 35 34 35 35 33 31 31 41 32 35 34 30 30 33 37 39 43 45 42 40
18 18 18 19 20 20 19 19 22 25 28 29 31 28 30 26 23 26 26 27 26 25 27 30 36 38 38 37 36 36 35 35 34 42 40 39 36 36 36 35 39 40 40 38
17 19 18 16 20 20 16 19 19 21 22 25 21 22 24 21 21 22 22 21 20 24 25 24 29 36 31 34 37 36 37 36 39 36 36 42 46 44 44 40 40 37 35 34
19 21 19 18 17 15 17 17 17 17 19 23 20 21 18 18 19 18 19 21 19 21 19 23 23 25 30 34 35 35 35 37 39 36 35 35 36 38 37 36 36 34 33 32
18 20 20 17 16 15 14 15 16 15 17 17 17 19 17 18 15 18 21 23 20 19 21 25 21 21 22 26 28 29 32 33 36 37 39 36 37 35 34 33 34 32 31 30
18 18 19 18 16 15 15 16 16 18 15 14 14 15 15 18 21 24 24 22 19 18 18 15 16 21 26 22 22 24 26 29 31 32 33 34 33 32 31 31 31 29 30 30
17 18 18 19 18 17 16 16 17 15 13 13 14 15 16 17 19 21 22 20 19 18 17 17 20 20 21 23 24 25 26 25 26 29 30 30 31 31 32 32 30 29 28 27
18 19 19 21 22 20 18 17 17 15 14 13 13 15 16 15 17 18 19 20 22 21 21 22 24 24 23 23 23 23 24 25 26 26 27 29 29 29 29 27 26 26 25 26
18 18 17 18 19 20 19 18 18 17 15 15 17 19 18 18 17 16 18 20 20 21 22 23 22 21 22 22 21 21 21 22 22 24 26 26 25 25 24 25 25 24 24 24
18 17 18 18 19 18 19 18 19 18 18 18 17 20 19 18 14 11 14 16 19 20 20 21 20 21 21 22 22 21 20 20 19 19 20 22 23 23 23 23 23 24 24 24
17 20 19 20 20 18 19 19 19 19 19 20 16 16 18 18 15 16 14 14 15 17 19 20 20 20 20 20 22 22 21 20 19 18 19 20 21 22 22 23 23 23 24 24

GFSCGP_500_spd_087.txt.gz
Wind_Speed
41 39 41 39 29 35 52 54 59 51 49 47 45 42 38 39 41 53 63 66 60 53 56 52 52 55 57 56 50 52 52 52 48 48 46 44 40 39 38 36 35 34 33 33
42 33 35 48 34 33 50 54 56 49 45 44 42 38 37 38 40 47 53 61 62 59 52 52 47 49 56 59 59 52 51 49 48 49 48 46 43 41 38 38 37 37 37 35
38 36 34 37 45 35 44 49 52 45 43 42 37 36 37 36 38 44 49 53 60 59 64 57 46 52 51 54 58 61 60 50 52 50 47 45 45 42 41 41 42 41 38 35
36 35 37 41 32 44 39 46 50 43 43 43 38 35 34 34 35 38 42 49 52 54 54 51 52 48 57 52 52 57 57 67 60 52 51 47 46 43 43 42 43 42 42 41
35 38 37 42 31 32 31 40 44 44 41 41 39 36 30 32 31 37 37 42 48 41 43 51 57 50 51 55 59 55 56 63 65 64 54 49 49 47 46 46 45 45 45 45
34 35 34 44 39 29 26 32 38 39 42 45 38 35 26 31 34 30 34 36 41 35 48 47 45 52 53 51 52 48 50 56 58 61 57 54 49 48 48 47 46 46 45 45
32 39 38 44 34 25 31 33 38 39 41 44 37 34 23 25 28 33 34 35 36 34 36 47 49 40 48 57 57 52 54 49 45 49 56 56 51 49 49 48 48 48 47 48
33 37 39 47 29 29 31 30 32 42 41 40 35 36 28 24 19 24 28 33 36 32 32 34 32 40 45 46 47 46 45 43 46 47 48 49 51 54 57 57 52 51 51 50
33 34 47 40 30 27 26 25 25 32 37 34 32 35 25 21 25 23 25 24 30 35 34 33 35 40 47 55 51 47 45 44 46 49 48 48 49 49 50 50 50 49 49 48
24 32 40 34 40 29 32 24 24 23 33 34 30 32 25 21 26 25 23 24 25 26 32 37 37 38 48 42 47 48 46 48 47 45 47 50 51 51 51 51 51 48 47 46
15 38 32 35 37 33 29 25 23 24 27 29 28 34 23 24 27 28 27 25 24 23 25 28 34 39 39 42 44 44 45 45 44 45 45 46 47 50 51 51 51 51 52 53
10 30 31 31 34 29 24 26 24 23 23 23 24 26 25 24 29 30 31 28 24 22 24 27 30 34 38 45 47 49 51 51 51 51 49 51 53 53 51 52 53 54 55 54
11 32 31 24 27 28 30 28 28 26 25 24 23 23 20 20 22 23 29 26 23 21 21 21 30 37 37 39 46 48 49 51 49 47 48 50 56 57 53 51 50 47 46 48
15 27 32 20 20 28 25 23 22 25 26 24 21 15 17 21 25 27 23 27 29 33 33 28 26 26 33 37 41 46 48 47 45 47 51 49 46 51 52 52 50 48 45 46
19 20 29 24 18 19 22 24 24 25 25 27 23 21 17 20 30 23 23 28 30 33 33 34 28 26 27 35 39 42 44 45 44 42 44 46 42 38 42 46 48 45 42 39
17 25 31 24 16 20 19 22 24 28 26 27 26 23 24 24 27 26 26 29 29 31 31 30 29 29 29 31 33 36 34 38 40 39 38 37 36 32 32 35 36 39 39 39
15 19 26 30 21 20 20 21 23 24 24 28 28 24 31 26 26 27 27 29 29 29 27 28 30 30 30 31 31 34 35 32 32 33 32 33 39 33 32 30 32 34 35 38
14 15 19 19 21 21 19 20 21 21 23 26 24 22 29 26 28 28 28 26 27 26 26 24 22 27 31 31 34 34 36 36 36 34 31 29 35 33 39 40 38 37 36 37
17 17 18 17 15 15 17 18 19 18 20 21 18 20 24 22 23 22 21 23 26 22 21 21 19 21 27 29 32 32 33 34 36 36 36 36 35 34 36 39 45 48 48 44
13 14 16 14 13 12 13 15 17 17 19 17 15 18 21 20 20 22 22 25 25 19 20 23 22 19 22 25 27 33 35 34 35 34 35 36 35 40 39 39 39 38 37 36
15 16 16 19 16 15 15 16 16 17 16 14 14 16 18 21 24 25 25 23 21 17 16 17 20 23 23 21 22 21 23 27 28 31 33 34 36 36 38 38 36 35 33 33
14 16 17 18 17 17 13 14 16 15 13 14 14 15 16 19 21 23 23 22 21 19 18 18 19 19 21 20 23 28 26 24 24 25 28 31 30 32 34 35 34 32 29 29
13 14 16 17 17 17 17 18 18 16 15 14 14 15 16 15 15 18 19 19 19 19 20 19 20 20 20 19 21 23 24 26 28 29 29 26 29 31 31 30 29 29 32 33
14 14 16 17 18 18 18 20 19 16 17 15 14 14 14 15 16 17 16 18 20 20 20 22 23 23 24 24 24 24 24 24 23 24 25 26 28 28 29 31 31 30 28 27
14 14 16 18 18 17 16 16 17 17 18 17 16 17 17 18 17 16 14 17 19 19 20 20 21 22 21 22 21 22 22 22 22 23 23 22 23 24 25 26 26 26 26 27
15 15 16 19 17 17 18 16 16 16 18 17 18 17 16 18 16 18 17 15 13 15 17 20 20 21 21 20 20 21 21 21 22 22 21 20 20 21 22 23 24 26 26 26

GFSCGP_500_spd_090.txt.gz
Wind_Speed
47 47 43 46 35 35 44 45 43 54 60 61 55 50 48 47 48 44 40 38 59 66 62 60 59 54 50 50 52 50 49 47 47 49 49 58 50 45 42 42 41 38 36 34
43 43 39 44 44 39 41 41 45 53 57 54 51 49 44 47 46 44 39 36 50 68 65 62 60 55 53 51 54 57 52 50 47 49 44 48 55 50 47 46 42 40 40 39
42 45 41 40 38 41 40 42 46 46 49 53 49 45 43 45 46 42 40 37 42 56 67 52 61 55 54 53 51 52 59 55 53 46 50 53 47 48 50 48 48 46 42 39
40 39 42 39 36 30 35 44 44 46 45 46 44 42 39 39 42 41 38 39 41 48 56 66 52 55 56 54 54 50 51 57 56 49 53 58 54 50 57 54 51 47 43 41
38 37 41 48 36 25 23 35 37 37 44 44 45 41 39 39 39 40 38 37 40 45 50 56 59 59 54 58 54 54 45 50 52 55 52 56 54 52 50 50 46 42 41 43
39 39 40 48 39 22 23 26 31 28 40 44 43 47 42 37 36 36 35 31 35 39 43 51 53 56 60 53 46 47 52 49 49 50 51 56 58 53 55 48 49 45 46 43
36 35 41 38 41 32 27 28 35 38 36 43 44 44 40 38 36 33 30 31 34 38 41 44 49 45 55 54 57 50 47 50 53 50 49 62 61 68 63 59 53 49 48 45
32 32 39 42 41 31 36 30 33 39 43 40 41 41 40 34 33 28 25 31 30 33 35 36 42 40 41 48 53 50 54 50 52 52 54 56 55 55 62 64 54 48 47 46
25 31 38 42 42 19 38 28 27 31 34 36 37 40 34 30 28 23 22 23 31 34 34 36 42 34 38 50 45 53 63 56 54 59 54 51 52 53 49 48 50 48 47 50
27 31 35 42 35 37 37 27 27 29 30 31 30 34 29 27 27 27 23 20 21 26 32 34 35 36 35 32 34 41 45 57 61 61 56 54 52 48 48 47 50 53 53 53
22 30 31 41 27 41 31 26 27 25 26 28 30 30 26 24 27 25 23 22 18 21 24 27 34 35 34 34 38 45 51 54 52 52 51 49 48 49 50 51 53 53 53 52
9 8 34 33 34 31 29 24 19 20 19 25 27 26 22 24 28 28 27 26 23 19 17 17 19 23 30 37 36 35 45 45 58 57 53 50 50 50 50 47 48 49 51 51
4 15 33 33 28 24 30 20 18 18 19 21 21 21 18 25 27 29 31 30 27 23 19 16 16 18 21 27 33 38 40 43 44 44 49 48 49 48 49 51 51 51 50 49
10 28 26 27 26 23 19 15 17 20 20 19 17 14 16 20 29 32 33 31 29 24 20 21 20 21 22 24 27 37 41 43 44 44 48 49 52 52 53 52 54 53 51 51
17 21 27 25 24 26 21 21 17 19 21 21 19 18 21 26 28 32 31 29 24 25 25 27 30 31 32 33 30 30 38 42 44 45 47 47 49 50 47 49 51 52 52 50
9 19 26 23 14 16 22 23 21 21 19 17 19 19 23 27 24 26 29 28 27 26 30 29 29 31 34 34 31 32 33 38 44 43 42 42 42 43 43 43 40 43 47 44
10 18 28 28 20 16 17 17 19 21 23 24 20 20 24 23 23 22 25 31 27 28 30 31 31 32 32 32 35 34 32 32 38 37 34 37 38 41 39 37 35 38 38 38
11 14 20 24 26 19 15 17 18 19 19 19 19 20 23 24 24 28 26 27 29 28 29 31 32 30 30 30 30 30 30 31 33 36 34 34 36 38 38 40 38 38 36 37
11 13 16 18 23 21 19 19 19 18 17 17 16 17 20 21 20 21 25 28 29 29 30 28 26 28 25 23 23 28 32 33 34 35 37 37 37 36 35 34 40 41 43 43
12 14 15 15 17 17 19 19 17 17 19 18 17 17 19 20 19 23 22 24 23 23 25 24 26 26 24 24 22 20 25 32 34 35 34 36 36 37 39 39 39 39 36 39
12 14 15 16 18 18 18 18 16 17 17 16 17 17 19 21 22 22 23 23 21 22 21 22 23 22 22 24 26 24 22 23 29 35 38 38 41 41 38 38 39 37 39 34
11 14 16 18 20 22 18 17 18 18 17 17 18 19 20 21 21 22 24 24 22 23 23 23 24 25 23 24 25 29 26 26 23 23 24 27 28 30 32 34 34 35 34 36
13 14 15 15 17 19 19 19 19 18 17 17 18 18 19 19 19 20 21 21 22 22 23 25 26 26 25 23 20 20 18 22 26 29 29 30 30 28 27 32 30 32 30 33
14 14 16 17 17 18 18 18 19 20 19 18 19 18 17 17 17 18 17 17 20 22 21 22 23 24 23 24 24 24 25 26 26 27 27 27 26 27 28 28 30 34 32 30
14 14 15 17 18 19 18 18 18 19 21 19 20 19 18 18 17 19 20 19 21 21 21 22 22 23 24 25 26 26 25 24 25 25 24 24 24 26 25 26 26 27 28 30
16 17 17 17 17 19 18 17 17 17 18 20 20 20 20 20 18 19 19 21 20 20 21 21 22 19 25 25 24 25 24 24 24 24 25 25 24 24 23 23 23 24 25 26

GFSCGP_500_spd_093.txt.gz
Wind_Speed
49 58 54 36 36 49 53 43 40 48 49 50 54 55 52 53 55 54 53 50 46 41 41 46 46 54 54 53 54 54 53 50 46 44 44 43 44 49 44 44 45 45 43 41
43 52 47 42 35 37 42 49 40 36 44 50 44 56 51 54 53 53 52 50 45 41 39 46 46 50 55 55 53 54 55 55 53 49 43 44 44 44 48 48 51 50 48 46
37 46 44 40 40 34 41 40 48 37 36 44 39 44 56 52 51 52 52 48 44 42 41 47 48 50 60 56 56 53 52 49 56 54 50 47 44 46 48 51 56 55 51 47
35 44 42 44 48 31 36 36 40 41 41 43 51 40 49 51 51 50 49 45 43 42 41 45 43 54 60 61 58 57 55 48 40 52 55 50 51 49 43 43 49 58 55 57
33 44 41 39 42 29 31 32 37 38 39 38 45 48 42 44 47 48 44 45 45 43 43 44 42 47 62 58 58 59 55 52 47 51 51 54 56 50 49 47 53 54 51 54
37 42 38 34 37 36 27 27 27 28 34 33 36 46 41 43 45 44 44 44 43 43 42 42 40 41 49 63 55 59 58 53 55 53 47 51 43 53 54 57 53 58 56 57
35 36 37 36 37 34 25 25 31 34 33 32 32 44 48 43 46 43 41 40 43 43 39 39 40 39 42 48 58 55 56 55 55 56 53 49 50 48 55 54 48 53 53 57
32 26 37 36 39 34 29 29 29 31 29 32 37 41 46 47 38 37 35 38 39 39 35 34 38 39 42 44 50 54 57 54 56 60 49 52 53 47 47 48 53 58 60 57
27 25 36 30 41 29 28 28 32 34 29 26 35 41 41 45 38 36 32 30 30 33 32 30 33 33 36 39 44 47 54 57 57 54 49 49 52 50 52 53 62 55 52 51
20 24 29 32 37 31 27 27 29 26 32 29 26 37 35 36 38 35 32 30 27 23 25 30 30 32 30 36 36 36 42 50 53 56 53 54 53 51 54 54 50 47 48 45
12 17 29 37 37 25 28 29 24 24 22 18 21 27 32 26 29 31 28 25 21 19 21 26 32 33 32 36 37 34 32 42 41 51 59 61 60 59 56 56 57 51 53 47
9 14 24 37 40 26 34 28 22 21 18 20 18 24 23 27 28 27 28 25 22 20 18 24 25 31 34 33 33 36 35 34 41 43 55 52 50 60 60 50 51 52 49 48
8 10 17 24 26 24 34 26 20 22 17 16 16 20 20 26 30 28 26 25 26 25 21 19 18 20 24 28 31 33 35 36 40 46 49 45 44 53 51 54 53 53 51 51
14 11 15 24 22 28 24 15 14 16 16 16 15 15 18 24 31 30 31 31 29 27 24 20 17 19 21 22 21 21 22 26 34 40 43 45 44 47 53 60 59 57 54 52
13 11 25 24 19 17 26 17 15 14 14 15 17 18 22 25 25 31 33 32 31 30 27 24 19 19 19 21 25 26 28 30 32 33 41 46 47 47 48 47 50 55 53 49
16 18 16 24 18 17 19 14 14 11 13 14 16 17 20 23 27 28 30 33 31 28 27 23 19 22 24 25 28 30 32 36 35 35 36 39 46 47 48 47 47 44 43 45
7 12 20 20 14 13 13 15 15 16 15 14 14 19 22 21 22 23 25 27 28 28 27 25 25 27 28 29 30 32 35 37 38 41 40 38 40 44 45 45 43 41 42 39
5 12 19 22 17 15 11 13 14 13 15 16 17 18 20 21 21 19 25 24 23 26 30 27 27 29 30 31 33 33 34 35 37 37 36 36 36 37 35 36 40 40 41 40
9 10 13 18 20 22 18 15 14 15 15 14 13 14 17 18 20 23 26 26 27 26 27 31 30 29 30 30 29 31 31 30 31 33 32 35 34 36 36 35 37 41 41 41
12 13 13 14 17 24 26 25 23 19 18 15 14 15 16 17 19 19 23 26 27 30 30 32 31 29 28 28 28 30 30 28 28 30 32 32 37 35 37 37 36 35 39 39
13 14 15 15 17 20 22 23 21 20 18 16 17 17 18 19 20 20 22 24 26 27 27 27 26 25 26 27 27 28 27 28 28 25 26 31 33 36 40 40 38 39 39 39
13 14 16 18 18 21 21 20 20 20 18 18 18 18 19 19 21 22 23 25 26 27 28 28 26 26 27 26 27 29 28 28 28 26 23 24 23 24 27 30 32 35 40 44
13 15 15 18 20 21 21 23 22 21 19 19 20 20 19 20 21 20 21 23 24 25 26 28 29 29 28 29 30 31 29 25 24 24 24 25 30 33 32 31 29 27 28 33
13 13 15 16 18 20 21 23 24 24 23 22 22 22 22 21 21 21 22 21 22 23 22 24 25 25 26 28 29 28 28 27 25 26 27 28 28 29 30 29 29 30 31 32
17 16 16 17 17 19 20 21 21 22 23 22 23 24 24 23 22 21 20 20 22 23 24 23 23 24 25 27 28 28 29 30 29 28 27 26 25 26 25 26 27 27 27 28
21 19 20 19 19 20 21 22 22 21 21 19 21 24 25 25 23 24 22 21 23 23 23 24 26 27 27 27 26 27 27 28 28 28 28 28 27 28 27 26 27 26 26 25

GFSCGP_500_spd_096.txt.gz
Wind_Speed
26 47 40 41 44 46 43 51 53 68 68 55 53 55 60 49 59 62 57 57 58 54 49 45 41 42 42 43 45 46 45 46 47 45 45 44 40 38 38 37 39 41 42 42
24 51 41 40 40 50 46 40 45 52 65 61 53 54 57 52 51 56 56 55 56 52 48 45 41 42 42 41 44 47 48 48 48 47 49 47 45 44 42 41 38 37 47 46
16 50 48 37 43 41 47 43 37 33 44 45 53 50 43 51 54 46 60 56 57 54 48 46 44 38 42 43 43 44 50 50 50 51 49 51 50 46 42 41 40 41 39 42
16 50 57 34 40 45 41 49 37 28 28 28 42 42 42 42 54 49 57 60 59 52 49 46 44 41 39 41 46 47 48 52 50 52 54 52 49 54 52 48 44 43 38 38
17 44 45 39 37 34 37 44 36 35 29 38 29 36 38 28 49 51 48 52 51 53 48 45 44 40 38 36 42 49 49 51 53 52 49 46 47 48 55 53 52 50 48 45
16 37 37 38 31 31 37 33 32 36 31 32 30 26 23 31 42 48 49 45 49 49 46 46 46 39 36 40 45 48 55 55 54 54 52 51 49 44 44 47 52 49 51 50
22 36 35 32 29 28 36 37 30 27 40 38 34 30 34 37 32 44 44 45 44 44 47 46 42 37 35 39 42 44 50 57 55 57 57 55 53 50 54 47 50 45 53 46
34 32 30 26 30 27 25 34 33 27 35 33 27 27 29 41 39 42 49 49 49 47 46 43 40 36 38 40 41 45 46 52 58 54 56 59 60 51 49 53 53 44 48 46
27 26 28 24 27 29 23 27 27 29 24 26 29 29 31 37 40 41 42 42 40 38 38 36 37 38 39 41 42 41 43 47 52 57 58 58 60 60 57 56 47 48 47 46
13 21 27 26 29 28 28 28 22 25 25 20 25 28 28 32 36 32 37 34 32 34 33 32 33 36 37 37 37 35 35 37 41 45 48 55 58 57 56 50 51 52 51 50
6 10 23 23 34 28 25 33 21 29 26 26 19 13 24 30 33 33 28 27 27 26 25 23 27 30 34 28 28 31 29 28 31 35 42 43 49 52 53 56 52 51 53 52
5 5 18 17 30 27 28 24 23 20 20 18 14 16 17 21 25 33 33 25 23 27 28 29 26 24 21 23 31 30 30 33 34 33 32 39 41 48 55 56 56 58 56 56
5 2 12 24 29 27 16 21 19 18 17 17 9 10 17 28 28 27 27 32 31 26 28 25 22 21 19 20 26 31 30 29 32 32 35 36 41 45 49 51 57 53 54 63
10 7 6 20 26 22 14 20 17 17 11 14 8 19 18 22 26 29 27 29 29 28 27 25 22 20 18 18 19 22 27 30 30 29 29 32 39 44 44 49 49 47 48 47
11 7 6 12 18 21 12 17 15 10 18 13 12 12 23 25 27 28 31 27 29 29 27 24 24 22 19 18 20 21 21 20 22 25 27 28 30 33 35 41 43 45 47 49
11 7 10 15 11 12 19 11 9 10 11 12 14 16 19 24 24 27 32 29 27 27 26 24 21 19 19 21 22 22 25 28 30 31 32 34 35 35 36 38 41 45 48 47
7 11 12 13 11 9 15 11 8 8 9 8 11 18 18 18 20 24 25 26 29 28 28 25 22 19 18 24 25 25 25 27 30 32 34 35 38 39 41 42 41 42 44 46
4 5 9 14 13 10 10 10 11 11 11 10 12 12 14 17 19 18 21 25 26 27 27 26 26 25 24 25 26 26 26 29 33 35 35 37 37 40 39 38 39 39 42 43
3 6 11 16 19 17 14 11 8 9 7 9 12 15 15 16 17 19 20 20 25 25 23 23 24 28 28 29 28 27 28 30 33 35 35 36 36 36 36 36 36 35 37 40
12 11 10 13 17 22 18 20 18 14 12 12 12 13 14 15 17 17 20 23 25 25 26 26 26 27 30 32 31 30 31 32 34 33 34 33 33 32 36 35 35 34 36 37
13 14 14 14 17 17 20 21 21 23 20 17 16 16 17 17 18 18 21 23 25 28 29 29 30 33 32 32 32 32 32 33 33 30 31 30 31 29 30 33 34 33 37 37
13 15 16 17 18 19 18 18 19 19 17 18 19 18 18 19 20 21 22 24 25 26 27 28 29 29 29 30 31 31 31 32 32 30 31 31 30 26 27 27 24 24 27 31
12 15 16 17 18 19 18 19 22 21 21 20 20 20 18 19 20 22 23 23 24 26 28 27 29 29 30 32 32 32 32 33 34 33 30 27 24 24 26 27 30 32 31 31
16 14 15 17 18 18 20 21 22 24 24 23 21 20 20 20 20 22 22 22 23 23 24 25 26 27 29 29 30 32 32 32 33 31 30 29 28 29 31 30 29 28 28 28
18 17 16 17 17 20 19 21 21 23 23 23 23 23 23 24 23 22 22 21 21 21 22 23 23 25 28 28 30 29 30 30 29 29 30 31 32 30 29 29 28 27 26 25
18 21 21 18 19 19 19 21 22 23 24 23 23 24 25 26 26 25 24 23 23 22 22 25 26 26 28 29 29 29 29 29 29 27 27 28 29 28 30 28 28 28 28 27

GFSCGP_500_spd_099.txt.gz
Wind_Speed
25 43 51 43 22 40 49 51 57 56 58 63 56 67 56 60 44 55 42 53 49 49 56 55 53 50 47 42 42 42 42 38 36 41 41 39 37 38 38 36 34 32 34 35
24 42 55 48 33 35 46 51 34 56 58 61 59 54 38 64 55 49 51 43 62 59 54 54 52 48 44 40 40 39 40 40 39 39 39 39 40 40 44 43 39 35 37 38
15 38 50 48 36 31 42 54 38 40 58 61 65 57 49 47 66 59 57 46 39 53 54 54 53 48 45 41 38 39 41 40 42 41 43 44 44 45 44 46 45 43 42 40
13 38 44 47 36 30 36 34 40 42 40 51 58 64 54 48 51 65 63 60 50 42 50 54 52 47 44 42 40 39 40 41 41 41 44 47 48 48 47 43 45 48 45 44
8 40 40 37 33 34 37 36 32 36 32 34 44 42 52 45 40 43 44 47 52 54 50 53 51 44 43 41 39 37 36 36 38 43 46 50 52 51 52 46 48 49 47 49
19 42 39 35 37 35 40 32 30 27 23 27 29 29 37 46 36 36 38 46 46 52 56 48 48 46 44 41 39 37 37 38 40 43 47 52 53 53 51 48 49 48 49 52
20 25 28 23 37 30 42 33 37 32 24 31 27 26 21 35 39 33 40 40 46 43 53 50 49 48 46 43 41 38 37 40 44 46 48 49 50 52 54 52 52 46 49 43
22 25 25 23 31 27 30 34 39 31 28 30 25 24 17 20 37 35 35 43 46 42 47 51 52 47 47 46 43 37 38 40 43 47 48 48 53 58 55 56 56 53 47 56
22 23 22 22 34 35 33 33 32 39 30 22 26 27 22 20 30 33 32 43 49 44 45 48 51 47 46 42 39 38 40 42 42 43 44 46 49 57 61 62 62 58 52 48
21 19 14 19 22 30 39 29 32 27 26 31 29 26 25 21 26 33 34 42 40 40 39 35 35 38 42 40 38 37 41 43 44 45 46 43 46 51 53 57 53 59 61 62
16 16 14 10 19 19 28 30 20 29 23 19 26 29 27 26 24 27 35 35 46 39 38 37 39 39 36 34 35 38 42 44 46 45 42 43 45 47 46 46 48 57 56 56
8 12 16 14 21 20 25 24 18 26 25 24 23 20 16 18 24 22 32 27 32 31 29 29 29 31 33 35 33 35 39 40 37 33 34 33 33 36 38 39 45 46 52 57
12 11 16 21 24 21 18 24 19 21 20 24 20 17 17 18 27 27 27 30 32 32 34 35 34 30 28 30 31 26 26 32 30 30 30 33 31 30 36 36 39 46 44 51
14 10 12 17 21 17 17 13 17 17 18 18 11 20 21 28 26 30 35 32 30 30 30 30 29 30 31 29 27 22 20 20 27 31 30 29 30 31 33 34 38 42 42 43
9 6 4 10 14 17 16 6 19 16 12 13 9 15 18 24 31 29 27 32 38 34 30 32 30 28 27 26 24 22 21 20 21 23 25 25 25 27 28 31 33 36 38 39
7 5 4 3 11 14 14 9 14 12 16 15 14 14 18 18 24 29 35 29 31 34 36 34 28 27 27 25 23 24 23 22 22 23 25 28 30 30 32 34 35 36 38 39
5 1 4 8 9 5 15 13 9 8 14 15 17 17 14 19 24 27 28 31 30 29 30 30 29 26 26 26 26 27 28 26 26 27 28 28 30 32 34 35 37 39 41 43
4 7 5 6 9 7 7 14 6 8 10 9 8 9 12 16 17 18 19 23 25 29 29 27 26 25 26 29 30 31 31 31 30 29 29 30 32 35 36 37 39 42 42 42
1 6 9 9 10 11 9 10 8 8 10 11 11 12 12 13 15 18 21 22 24 26 27 28 27 26 29 29 31 31 32 32 30 31 31 32 34 36 36 37 37 37 37 37
8 8 9 11 14 17 17 16 13 12 13 10 8 10 13 15 16 17 20 22 25 24 26 26 25 26 27 29 33 33 33 33 34 33 32 33 34 36 37 37 37 35 34 37
12 11 11 13 13 12 15 20 22 23 19 16 15 14 15 18 18 19 20 22 24 26 27 28 29 30 31 31 31 33 35 36 36 36 34 33 34 34 36 35 35 36 34 32
14 15 14 13 15 16 15 16 19 21 22 22 23 21 20 21 20 20 20 22 23 25 26 26 28 32 33 33 35 34 34 36 37 35 34 33 33 34 35 34 32 31 32 31
13 14 15 16 16 16 18 19 20 21 21 20 20 20 22 22 22 21 21 22 22 22 23 25 27 28 29 29 30 31 32 34 35 34 34 34 34 35 34 32 29 28 29 30
14 16 14 14 16 18 17 20 21 21 21 22 22 22 21 21 22 22 21 22 22 23 23 24 25 26 27 28 30 31 32 33 33 34 34 33 35 34 33 33 33 32 31 30
14 15 15 14 16 15 17 17 19 22 23 23 23 24 24 24 24 24 23 23 22 22 23 24 24 25 25 26 27 29 30 31 32 32 32 32 33 33 33 34 33 32 30 30
12 16 16 16 19 17 17 19 19 21 21 22 23 24 25 26 26 26 26 26 25 25 26 25 25 25 26 28 29 31 31 31 31 31 31 31 32 31 31 31 30 30 29 29

GFSCGP_500_spd_102.txt.gz
Wind_Speed
13 32 41 35 31 34 39 56 62 63 73 62 52 47 44 65 66 64 54 50 57 60 59 55 54 51 49 46 46 43 41 38 40 46 36 36 42 34 40 32 31 33 34 32
12 31 41 38 23 33 42 49 55 56 53 57 65 47 52 61 64 66 53 48 63 61 65 58 57 55 52 49 46 42 41 38 35 38 32 36 34 40 38 35 34 35 36 36
9 27 45 48 22 24 35 50 53 48 47 44 55 54 57 55 65 54 49 39 65 54 50 64 61 57 53 50 47 45 41 37 35 36 35 37 41 41 42 42 38 36 37 38
8 32 53 44 25 24 33 44 36 36 43 43 48 59 68 43 62 63 52 43 43 49 46 48 54 57 54 50 48 45 43 39 36 35 34 39 40 38 40 40 38 40 42 40
6 35 46 40 28 19 30 37 40 33 40 46 40 60 56 44 43 50 56 45 45 46 47 44 44 49 51 49 46 45 45 43 39 37 36 39 37 37 38 38 39 47 47 44
13 34 27 31 31 23 26 36 35 27 22 30 43 54 58 50 45 44 40 50 43 33 33 32 52 53 51 49 46 45 44 42 40 35 37 39 37 37 37 41 45 47 48 48
21 30 25 29 27 19 28 29 29 27 27 24 21 37 50 52 48 35 34 39 51 44 41 36 38 47 47 44 44 43 43 41 40 38 39 38 37 37 39 43 47 49 52 52
19 33 22 20 21 20 26 27 27 27 25 20 21 19 26 42 44 40 34 31 28 35 46 42 42 41 42 45 44 45 44 43 41 39 38 36 38 41 45 47 49 51 53 56
16 16 33 31 26 29 27 29 23 35 27 22 23 24 18 18 26 34 33 35 30 36 38 37 35 45 46 46 46 46 46 44 41 39 39 38 39 43 46 47 50 54 54 58
17 18 25 21 27 31 32 34 34 26 20 27 23 20 19 15 14 29 35 34 32 34 38 37 40 41 51 46 44 43 44 45 42 39 39 41 44 46 50 52 52 50 53 56
10 11 15 20 22 21 20 21 26 25 25 21 13 21 18 21 17 22 29 36 40 33 37 42 42 44 52 51 48 46 43 44 44 40 43 47 48 49 52 55 53 51 52 53
8 4 6 13 22 33 24 27 25 21 23 24 22 21 22 23 24 28 34 34 34 36 36 42 40 39 45 44 41 42 43 43 43 44 44 47 50 53 53 47 44 44 44 45
9 5 5 7 15 31 21 17 19 26 27 25 22 22 24 25 27 28 25 37 39 36 37 37 39 40 38 36 39 41 40 38 39 39 44 45 45 42 40 37 35 35 35 38
10 6 6 6 11 20 23 17 14 15 20 21 22 27 28 27 28 27 32 33 37 38 39 42 37 40 41 40 40 41 41 37 38 40 35 32 32 31 30 31 34 34 36 39
9 12 11 9 10 9 12 7 13 17 17 17 18 15 30 25 27 27 29 28 34 33 35 35 43 38 40 43 43 39 36 37 34 31 28 28 29 30 30 31 32 32 32 34
9 9 12 14 13 13 11 5 15 17 16 15 7 15 14 25 30 31 34 33 31 31 33 36 40 43 45 42 40 36 34 34 34 31 30 30 29 28 27 28 31 32 34 36
6 6 4 4 9 12 13 10 13 14 15 17 15 15 17 18 30 31 34 35 32 32 33 33 33 33 35 35 33 33 35 35 34 33 33 31 31 30 31 32 33 35 36 36
2 5 7 7 7 7 7 14 14 14 16 18 19 18 16 17 17 25 34 38 36 36 36 36 36 37 34 34 34 35 36 35 35 35 34 32 32 33 34 35 35 34 35 37
2 5 6 9 9 9 9 11 13 9 14 14 15 14 14 15 18 18 18 19 22 36 33 33 35 34 35 37 38 37 35 35 35 37 37 36 36 36 36 36 35 34 36 38
10 11 11 12 14 16 15 15 14 13 14 15 15 14 14 15 16 17 18 21 22 23 25 30 40 38 35 35 36 36 37 38 38 38 38 38 39 38 39 37 36 36 38 38
13 13 15 16 15 15 18 22 22 21 17 16 16 16 17 16 15 16 19 20 22 25 26 27 27 29 30 32 37 38 39 41 41 41 40 40 41 41 40 39 38 37 38 38
14 15 15 16 16 17 17 17 20 24 27 26 24 24 22 20 20 21 21 21 22 23 25 28 30 30 31 35 36 36 37 37 39 42 43 43 44 42 39 39 38 38 38 38
8 15 16 14 16 16 16 19 19 20 23 27 29 29 28 26 26 25 23 23 24 24 24 25 27 29 30 30 32 33 34 35 37 37 37 37 38 38 38 38 39 38 38 38
9 10 14 13 14 14 15 16 18 20 21 23 24 27 27 26 26 26 25 25 25 24 24 25 25 26 28 29 31 31 32 33 33 34 35 36 37 37 37 38 38 37 38 38
23 11 9 13 14 16 16 16 18 19 20 21 23 25 27 29 28 27 25 25 25 25 25 25 26 27 28 29 30 31 31 31 32 34 36 36 36 36 34 33 34 34 35 35
32 24 8 12 15 16 18 18 17 19 19 20 21 23 26 26 27 28 28 28 28 27 27 27 28 28 29 29 29 29 30 31 32 33 34 33 34 33 32 33 34 35 35 36

GFSCGP_500_spd_105.txt.gz
Wind_Speed
14 13 28 40 33 19 31 50 53 41 59 71 52 45 42 70 71 73 51 66 63 61 57 51 46 51 57 50 43 47 42 40 38 35 35 34 29 26 30 24 26 26 27 27
13 12 30 42 26 20 31 43 52 49 47 60 60 46 39 56 65 65 72 59 59 54 56 58 58 51 41 55 46 42 41 41 39 38 44 39 39 39 37 36 31 33 33 30
9 9 29 44 23 20 30 34 44 47 46 59 63 46 47 52 73 47 62 69 63 57 55 54 55 53 55 41 41 42 43 44 42 35 32 31 33 35 44 38 33 33 35 34
1 14 39 33 22 24 28 27 40 40 49 52 37 56 46 44 52 71 55 68 64 65 63 62 61 56 49 45 41 37 39 36 35 34 31 34 34 29 28 29 27 31 34 35
3 22 36 26 23 19 28 29 29 43 19 42 44 45 50 45 37 67 66 50 50 53 57 56 53 61 60 52 47 42 38 38 41 38 37 37 34 35 36 30 29 28 31 34
15 32 31 24 25 17 22 32 26 30 36 34 37 36 48 42 23 41 61 61 56 48 57 52 57 58 55 53 52 50 46 44 39 41 41 40 40 39 37 35 31 32 31 33
26 19 27 17 26 24 21 30 33 30 29 30 36 29 43 48 34 32 50 51 50 49 49 46 48 46 53 58 54 50 48 47 45 44 42 41 41 40 36 33 35 35 36 39
18 21 25 20 16 28 24 37 32 28 21 16 27 36 28 47 42 31 48 58 54 31 41 45 42 41 43 44 50 52 50 48 45 44 42 41 40 38 37 33 35 37 38 41
14 14 14 21 16 9 28 22 21 22 13 15 15 26 29 33 38 39 35 39 46 44 41 34 39 33 33 39 44 46 47 47 47 46 45 43 41 39 36 35 36 39 42 45
17 13 11 8 8 2 27 25 19 22 19 16 19 18 24 24 32 40 41 32 27 23 39 43 38 38 32 37 42 48 47 46 48 47 46 43 39 38 39 39 39 41 45 47
13 11 17 10 13 10 10 20 15 26 21 26 27 25 24 18 21 26 37 31 29 24 23 23 31 30 33 35 40 43 45 45 44 46 47 45 43 44 43 41 40 45 49 53
12 9 15 19 16 10 19 16 16 22 15 23 16 17 20 21 20 20 19 19 22 24 24 25 30 32 33 35 38 44 46 44 47 49 47 48 45 43 41 43 44 47 53 56
9 11 7 10 16 14 16 15 16 18 13 15 15 14 17 19 21 19 18 21 29 34 35 33 33 40 41 40 43 47 43 46 48 48 45 47 45 43 43 42 46 53 54 51
2 7 9 9 12 10 16 15 17 18 17 15 16 17 17 20 22 24 24 26 25 30 30 35 38 39 42 42 40 41 44 48 51 53 50 49 46 44 42 44 49 49 38 31
4 4 6 6 8 15 13 8 9 13 17 23 20 18 20 20 21 22 24 25 28 28 37 38 36 38 40 44 42 42 45 49 48 49 50 46 44 45 44 46 37 32 31 30
7 4 1 3 8 9 12 9 9 11 13 14 17 19 22 22 27 28 28 28 28 29 34 42 43 41 41 41 44 46 45 44 45 44 43 43 44 44 43 37 33 33 31 31
5 7 6 4 10 10 11 11 11 13 16 17 17 16 25 18 29 29 28 29 30 28 35 37 42 43 43 39 41 44 45 44 45 47 46 47 44 45 41 38 37 34 34 34
9 10 12 10 12 13 14 15 15 14 16 17 18 14 14 13 14 19 28 30 32 34 34 37 35 38 41 41 39 39 39 39 41 41 41 44 47 44 41 40 37 37 38 38
6 6 9 11 10 9 9 8 9 11 14 15 16 18 17 17 17 18 22 29 31 32 38 35 35 32 33 34 35 37 38 42 43 42 43 44 43 43 43 41 40 40 39 40
13 13 10 10 12 14 13 12 13 11 10 12 15 18 18 18 19 20 21 22 26 31 40 40 39 40 36 36 37 39 36 36 39 40 42 42 42 44 45 44 43 42 42 41
11 15 14 14 14 15 17 19 18 17 15 15 18 18 17 18 18 18 19 20 22 25 26 28 33 39 39 43 45 39 39 41 42 41 42 43 44 45 45 44 44 44 45 44
6 10 13 15 15 17 19 19 22 24 23 23 21 22 21 19 19 19 19 19 19 20 23 26 27 29 30 36 43 42 43 46 43 42 43 44 45 46 45 45 46 46 46 45
10 10 6 10 16 19 16 19 22 22 24 27 29 29 29 27 26 25 23 23 23 22 23 24 25 25 28 30 30 31 34 34 34 37 39 42 42 41 43 44 46 45 44 44
27 23 5 4 10 15 17 18 20 21 23 24 26 27 30 30 31 30 29 28 27 26 25 25 27 27 28 29 31 32 33 34 37 38 38 38 39 42 43 44 42 42 42 42
31 30 25 11 6 12 16 17 18 19 20 21 23 25 27 29 29 30 29 29 27 27 28 27 27 28 29 30 31 32 33 34 35 36 37 37 38 38 39 40 40 40 40 39
30 30 30 23 16 6 10 17 20 21 21 19 20 21 23 25 25 27 28 29 31 29 28 28 28 29 29 30 31 32 33 34 34 35 35 36 36 37 38 38 39 39 38 37

GFSCGP_500_spd_108.txt.gz
Wind_Speed
28 18 15 17 28 30 25 19 22 32 34 55 67 74 49 35 59 67 72 73 66 72 64 63 64 51 48 43 39 40 43 47 47 38 29 35 28 28 26 26 27 25 25 25
19 12 10 17 28 27 17 23 30 32 29 40 68 64 48 41 64 71 71 74 62 65 62 65 64 51 49 49 46 48 43 50 49 40 41 38 33 32 30 28 31 28 25 27
6 6 8 22 27 12 22 18 30 32 34 43 65 57 44 49 49 71 80 75 74 60 59 53 50 52 52 49 52 46 38 40 41 43 44 48 44 42 37 34 34 31 32 31
5 4 12 23 11 13 21 18 28 32 39 32 44 58 52 28 48 67 68 69 69 63 61 50 47 45 36 39 51 49 50 37 36 39 43 44 36 46 37 37 37 38 38 35
10 14 25 21 18 15 16 22 28 31 37 35 21 39 43 35 61 61 69 68 62 58 58 58 55 51 53 50 39 39 42 40 31 47 39 44 26 27 33 33 31 20 31 20
22 29 20 23 16 10 15 20 29 30 29 27 37 27 35 37 31 47 62 72 57 62 60 60 58 54 52 51 49 43 45 49 47 36 31 31 30 31 26 27 23 24 25 25
16 17 13 13 19 9 12 15 21 28 18 22 24 28 26 35 26 22 64 50 70 60 56 53 51 51 49 49 47 52 33 32 34 34 32 31 34 33 32 28 25 28 28 29
13 19 11 12 13 20 12 15 15 13 22 20 23 18 19 26 30 14 35 52 45 65 60 56 52 52 54 54 47 49 52 43 43 40 39 33 34 33 33 32 31 33 33 33
12 7 6 16 15 11 20 25 16 21 12 18 24 24 21 22 29 26 11 46 53 45 44 55 50 44 54 54 50 48 46 51 51 49 46 45 45 39 39 37 36 37 33 32
7 2 7 13 16 18 21 21 18 14 9 13 11 16 26 20 22 30 18 26 53 47 47 40 46 44 47 45 45 47 53 55 54 51 48 47 45 44 42 41 39 38 35 35
4 9 2 6 8 9 16 14 12 13 10 7 12 14 17 17 20 27 30 18 19 34 39 41 48 42 42 47 46 49 54 57 54 50 49 48 47 45 43 43 42 41 38 37
7 6 4 8 11 12 10 13 16 20 14 16 15 14 14 17 22 19 19 20 26 20 27 30 33 35 39 42 37 37 44 48 47 46 45 45 45 44 44 44 42 42 40 42
13 8 6 2 2 6 5 3 20 20 16 18 17 14 13 16 18 16 16 15 20 21 27 21 22 30 38 42 40 35 37 39 38 38 43 45 43 43 43 46 47 44 43 43
14 16 10 9 3 2 6 5 5 9 9 14 9 8 10 13 16 19 21 23 22 17 18 24 24 25 36 37 38 37 37 35 37 40 44 45 47 47 48 45 45 43 44 43
13 13 16 8 9 9 11 6 4 8 9 9 10 11 12 15 17 18 17 18 19 23 26 28 31 34 33 33 34 34 34 36 40 41 46 45 46 46 43 41 41 43 43 45
5 7 11 8 6 5 2 1 0 3 6 16 18 14 14 16 17 17 22 25 24 25 27 29 29 32 38 39 38 40 43 46 45 46 46 46 50 51 48 48 51 51 48 46
1 4 3 3 5 4 6 6 5 7 9 11 15 18 20 22 23 24 27 26 24 25 26 29 30 32 36 37 37 41 43 44 44 44 46 48 49 49 49 51 50 51 47 48
7 5 6 6 5 8 9 10 10 11 11 9 13 16 13 18 19 18 21 28 29 27 28 32 32 32 38 39 41 42 43 44 44 46 47 46 47 48 47 45 48 50 50 48
5 8 12 11 10 10 11 10 9 10 12 14 15 15 15 13 16 15 16 19 28 28 28 28 28 34 31 37 40 41 41 42 42 42 44 46 46 45 47 50 49 46 49 47
11 12 8 8 13 13 12 11 9 8 8 12 14 15 16 19 20 21 21 19 20 23 26 26 25 30 33 35 32 37 41 41 37 34 36 40 41 41 42 42 44 48 48 47
10 8 12 14 12 13 15 15 15 15 15 13 14 15 16 19 20 21 21 20 21 21 22 26 30 33 34 37 40 39 37 36 36 38 40 38 39 40 38 40 45 48 46 47
26 13 7 7 13 14 17 16 17 19 19 19 19 19 19 20 20 19 19 19 19 20 22 26 28 28 30 30 34 40 43 48 46 43 42 44 44 44 44 46 47 45 44 45
29 29 20 14 7 8 16 16 18 20 22 23 24 25 26 26 25 24 23 21 21 21 22 23 24 24 25 27 29 34 37 42 44 41 45 46 44 46 50 48 49 48 45 42
30 31 29 28 23 13 9 12 17 20 21 22 25 27 28 30 33 34 32 31 30 29 28 26 25 27 28 28 28 28 29 30 33 37 42 46 48 44 41 40 41 42 43 45
27 29 28 26 28 25 19 7 11 15 19 20 21 23 27 30 31 32 34 35 35 33 32 31 31 30 30 31 31 31 31 32 33 34 35 37 37 38 39 40 40 41 41 42
26 26 27 25 24 25 24 21 14 9 15 18 20 21 23 25 28 29 30 32 33 34 34 32 32 33 32 32 33 33 34 34 35 36 37 37 38 38 39 39 40 41 41 41

GFSCGP_500_spd_111.txt.gz
Wind_Speed
30 27 20 16 16 13 18 20 15 19 31 29 43 51 49 53 59 26 57 69 71 68 67 68 51 50 54 40 44 46 46 44 44 34 49 46 40 35 32 30 29 28 27 26
24 14 8 7 4 6 16 4 14 22 27 28 36 32 46 60 56 33 62 67 70 65 64 64 64 45 44 54 49 51 49 46 41 47 41 37 34 35 37 34 31 30 28 27
11 6 12 11 12 7 14 3 15 24 13 17 32 26 38 59 62 28 53 70 69 65 63 63 62 61 48 52 54 52 56 55 52 44 44 45 46 48 44 41 35 34 32 28
10 22 23 14 7 6 13 9 25 15 17 16 22 41 39 52 73 30 49 65 67 67 60 60 60 55 58 44 65 48 44 49 56 50 55 53 47 45 44 42 38 37 34 30
26 22 27 17 16 5 15 14 16 19 15 22 27 28 39 49 56 34 28 66 68 66 60 59 56 57 50 62 49 35 46 60 63 64 61 51 53 53 53 49 44 40 37 34
21 16 15 12 14 10 13 22 22 21 18 7 13 27 36 46 46 30 30 51 67 68 64 61 61 50 46 48 47 48 46 42 43 40 46 50 43 47 36 36 42 34 34 27
12 14 14 10 3 12 14 17 22 17 20 15 16 23 25 44 34 10 41 51 70 65 62 62 51 51 40 46 37 41 33 31 43 41 42 49 38 52 42 32 34 41 37 29
10 10 24 26 6 5 9 17 19 17 13 3 12 12 6 21 30 13 43 39 55 59 63 58 54 45 46 46 33 31 37 41 29 38 32 28 33 40 39 35 22 27 25 24
14 14 25 19 11 16 17 16 19 12 10 6 6 5 6 3 4 10 38 43 58 59 60 60 55 55 48 52 48 38 40 41 45 28 34 22 36 25 21 24 19 25 23 19
16 15 28 29 21 22 22 24 22 17 14 10 4 6 6 3 3 8 39 48 52 56 56 55 57 55 55 53 51 47 44 43 39 39 48 48 40 40 34 39 33 28 22 24
14 16 19 23 16 18 18 14 16 14 13 17 9 6 3 4 6 6 12 34 34 49 53 49 50 51 49 49 49 43 45 47 44 43 40 43 47 46 42 42 41 36 32 31
6 12 12 18 14 21 10 13 15 12 16 11 10 11 9 8 3 13 6 7 30 38 47 50 59 53 52 47 44 41 42 46 45 46 47 47 48 48 46 45 42 39 38 37
6 4 11 16 16 19 16 14 15 15 16 16 13 15 14 11 12 8 8 7 15 25 44 41 49 42 31 37 35 40 37 39 42 45 46 46 48 49 50 47 44 42 40 40
19 11 10 9 11 14 18 18 16 13 15 19 15 14 12 12 12 13 11 8 8 18 20 31 35 34 34 43 41 44 40 35 35 37 38 40 43 44 44 43 41 40 40 39
18 20 11 10 14 17 16 11 8 7 8 8 8 9 9 10 12 13 13 15 12 11 23 22 21 24 30 33 35 39 39 37 36 37 37 39 43 42 41 41 41 41 43 42
10 14 13 13 10 12 11 10 8 6 4 4 3 2 3 4 6 8 8 10 14 18 15 14 15 18 18 20 21 26 34 35 35 39 38 35 34 33 36 39 41 41 42 42
5 7 9 8 8 7 5 4 3 2 2 1 3 8 11 11 9 11 13 16 17 17 18 19 22 24 25 27 30 30 32 31 32 33 34 35 36 41 41 43 46 47 45 44
3 1 2 3 2 1 1 3 2 3 5 4 5 6 10 14 16 18 18 20 21 21 22 22 27 28 30 32 35 38 40 42 42 42 43 44 45 44 42 44 46 46 45 45
3 4 6 6 5 4 5 5 7 7 8 7 6 7 10 13 11 16 18 21 25 25 26 29 31 31 31 35 37 38 41 43 44 46 47 49 49 47 46 46 46 46 48 48
16 6 4 5 7 8 8 6 6 5 6 8 9 12 13 13 15 15 17 18 21 21 24 28 30 32 31 33 36 36 43 45 47 48 49 50 49 48 50 50 51 51 51 47
27 20 11 3 6 9 10 10 10 10 9 9 10 10 11 13 16 19 21 22 23 22 23 24 29 32 31 31 31 31 35 34 37 42 42 44 46 44 44 44 45 46 44 42
30 29 25 19 9 1 6 10 12 14 12 15 16 16 16 16 17 18 21 22 23 23 23 24 26 27 30 31 30 32 34 38 41 38 37 37 37 41 44 46 47 46 45 47
28 29 27 27 22 19 10 2 8 14 15 17 18 20 21 22 23 23 23 23 23 23 24 24 24 26 28 30 30 33 34 34 37 44 45 46 48 48 44 45 45 45 47 48
26 27 27 27 25 23 22 17 10 2 11 16 20 21 22 24 25 27 29 30 30 30 29 28 27 27 28 28 29 29 30 30 33 37 40 42 46 48 43 43 48 49 49 49
24 25 25 24 25 23 22 21 19 13 8 5 11 18 21 22 25 27 29 29 30 31 32 33 34 34 33 32 32 33 33 32 32 33 33 34 35 36 37 40 41 43 44 44
23 23 23 23 23 22 21 19 17 15 14 11 7 9 15 21 23 24 25 27 29 29 30 31 32 33 34 35 36 36 36 36 36 38 37 37 35 41 39 34 44 42 42 42

GFSCGP_500_spd_114.txt.gz
Wind_Speed
36 25 24 19 12 9 8 10 12 19 21 26 25 32 36 42 45 51 75 80 87 81 72 78 82 54 50 46 65 49 50 58 62 62 59 58 55 51 46 43 41 38 36 34
13 9 12 15 14 10 4 4 6 10 16 22 20 18 36 39 44 53 62 78 80 77 73 74 69 72 41 52 50 56 61 52 60 65 61 62 55 50 48 43 39 35 34 34
25 21 19 17 13 7 1 4 5 12 11 20 13 11 32 36 42 49 61 60 75 76 70 66 70 53 43 47 38 40 49 64 45 61 68 69 63 56 47 41 38 38 35 35
24 17 14 16 12 8 4 5 14 20 15 11 18 13 18 28 35 51 59 63 62 68 65 63 62 64 49 42 42 39 42 44 44 59 57 51 49 49 45 41 39 38 38 41
21 16 12 12 15 4 13 7 11 13 15 18 26 16 13 25 53 59 53 55 60 73 60 59 65 62 42 35 54 46 44 43 55 60 49 49 52 50 47 43 43 44 45 44
13 14 8 15 9 11 12 11 9 11 16 29 19 19 12 16 50 45 48 27 58 68 63 54 57 53 46 36 48 50 41 49 39 49 47 49 51 50 50 51 50 51 53 47
14 20 7 6 11 9 7 10 9 22 30 31 23 14 9 9 41 39 24 25 57 70 61 54 55 52 49 42 47 38 49 43 40 44 44 40 57 58 53 49 48 55 54 50
24 25 15 9 8 9 10 14 13 24 25 34 32 20 18 17 37 27 14 27 56 70 63 57 55 50 46 50 45 38 41 53 41 49 54 62 54 58 57 57 59 41 45 41
24 24 20 15 13 18 12 13 10 14 16 29 30 25 14 18 30 18 21 30 37 56 55 51 55 48 43 37 39 34 30 26 47 41 38 48 42 67 40 59 55 56 52 55
23 31 22 16 18 25 24 19 9 10 18 24 22 21 15 12 23 22 29 37 38 43 48 58 54 46 42 33 36 32 23 28 22 31 28 31 21 25 37 51 39 44 29 31
18 24 20 16 12 21 19 17 17 20 18 24 26 22 17 6 10 21 38 44 37 44 59 53 50 49 47 44 41 31 25 24 22 28 31 36 39 32 30 25 23 23 23 27
13 18 19 22 13 17 22 22 21 24 21 15 17 22 19 14 8 18 31 36 38 35 50 51 49 49 47 42 44 37 29 30 30 34 34 36 35 31 32 34 24 26 30 33
15 15 17 24 17 15 19 23 24 26 23 18 16 21 19 15 7 6 5 19 37 44 45 47 46 48 45 45 43 42 42 40 35 29 31 35 34 31 32 32 32 35 34 36
18 20 18 20 22 19 21 20 23 22 21 21 19 19 17 13 11 7 7 4 15 30 29 42 43 44 46 46 42 42 40 40 38 33 33 29 29 28 30 32 32 32 35 37
17 16 20 23 24 20 18 17 19 15 18 13 20 17 16 13 12 8 6 6 8 5 17 37 42 45 45 41 44 37 35 39 34 29 30 31 31 31 30 29 31 34 35 37
16 15 15 14 17 19 17 16 15 14 13 14 16 15 13 12 10 8 8 6 2 6 5 16 18 32 34 43 44 43 41 42 40 36 27 32 30 30 31 32 34 36 36 34
11 13 12 12 12 12 13 12 11 10 9 7 5 5 6 7 6 6 5 6 6 7 7 8 12 20 19 16 19 30 31 33 36 36 37 37 36 37 36 32 31 35 36 38
3 6 7 8 7 5 6 6 6 4 4 4 2 2 2 2 6 7 6 6 7 9 10 12 14 15 18 21 23 24 24 24 27 28 31 32 33 36 37 36 35 37 39 41
7 2 3 4 3 4 3 5 6 3 4 4 1 1 3 4 6 8 13 16 16 15 17 17 19 22 24 25 26 28 31 33 34 36 38 38 41 41 42 45 45 43 42 43
22 12 8 4 4 4 3 2 1 4 1 5 4 5 6 6 7 7 10 15 18 21 21 25 29 29 30 31 32 32 36 38 39 41 41 42 44 44 43 44 45 46 45 45
32 29 22 17 11 4 5 7 8 4 3 5 5 5 6 5 8 13 15 16 17 18 21 23 25 27 34 39 39 40 39 40 42 43 44 45 46 46 44 43 44 44 44 45
31 32 31 27 19 13 14 3 5 4 10 10 11 12 12 13 13 14 14 19 23 24 24 25 28 28 29 30 36 41 42 43 44 46 44 43 42 43 44 44 44 43 43 44
29 30 29 29 27 27 24 18 10 2 7 13 16 18 19 20 21 21 21 22 23 24 26 26 27 29 31 31 31 32 38 44 46 47 46 45 46 45 42 41 41 41 42 45
26 27 26 26 26 25 25 22 19 17 11 3 9 15 22 26 28 28 29 30 31 32 32 31 31 31 32 32 32 33 34 36 38 40 42 42 44 47 50 51 50 51 52 52
21 23 23 25 25 23 22 20 19 17 13 11 9 8 5 7 13 21 27 30 31 32 32 33 34 36 38 39 38 37 35 34 36 38 38 39 41 43 44 46 49 51 52 53
17 18 20 20 22 21 20 18 17 15 11 9 7 6 6 7 9 11 14 20 25 29 32 34 34 33 34 36 39 39 40 40 40 41 40 41 43 41 37 34 37 44 44 47

GFSCGP_500_spd_117.txt.gz
Wind_Speed
32 22 13 7 8 8 9 11 11 13 15 22 18 18 25 32 31 35 44 58 61 87 70 80 80 79 81 85 48 46 57 53 79 76 67 62 56 52 50 49 47 46 43 42
18 19 14 12 10 10 12 12 8 2 7 14 13 16 21 27 25 33 41 57 60 83 73 80 77 83 81 75 50 57 52 36 70 73 61 61 56 53 51 49 49 46 45 45
16 16 12 14 14 10 13 11 10 10 7 12 10 4 16 21 25 31 40 51 52 76 76 74 77 78 76 62 42 45 46 59 58 68 61 60 58 57 55 55 53 49 47 40
13 11 12 15 13 15 5 7 7 10 10 14 7 4 6 16 20 30 37 45 48 70 73 72 74 71 82 75 50 44 45 44 65 60 62 61 58 54 57 55 52 48 46 44
11 11 8 15 13 4 4 2 9 10 11 10 13 10 12 9 15 25 31 35 44 66 67 67 72 67 65 61 57 42 48 49 48 61 62 63 62 62 60 56 55 54 50 48
19 11 7 11 9 7 8 7 9 1 10 10 5 11 11 9 6 16 21 25 40 56 58 70 67 73 75 61 43 43 48 49 53 54 59 64 65 63 60 61 62 56 52 49
21 11 4 8 9 8 10 11 15 10 16 12 8 12 15 11 16 14 25 25 28 39 57 72 68 68 79 62 48 44 34 53 60 56 61 62 60 58 61 63 61 58 54 53
17 11 3 9 8 7 10 15 26 25 19 14 9 13 18 18 13 14 20 17 24 35 52 69 62 57 48 66 40 40 43 55 57 40 63 58 53 62 52 63 60 58 60 55
15 8 8 15 8 10 10 16 22 32 24 20 20 22 25 23 8 16 27 12 22 28 49 57 52 44 49 63 51 25 28 46 46 45 62 58 56 53 47 58 59 49 47 47
18 12 7 21 21 10 17 14 16 25 29 30 29 28 27 10 12 15 10 7 28 34 47 48 48 44 47 52 51 35 25 35 35 40 49 52 59 47 58 58 55 56 54 48
20 12 19 17 18 12 15 19 19 23 24 28 33 30 24 20 22 22 19 14 27 41 44 52 42 37 37 56 37 29 25 22 27 30 37 44 51 52 67 53 49 47 45 58
18 15 16 17 19 16 17 21 18 20 23 24 30 31 24 17 12 19 24 26 26 21 43 52 49 43 43 46 43 21 27 21 21 23 29 24 23 39 30 22 40 21 24 22
16 18 16 13 16 21 25 25 20 18 17 22 22 29 28 15 14 31 27 26 35 40 39 36 34 47 44 39 36 30 27 22 17 19 18 15 15 20 20 21 12 14 23 19
14 19 18 18 21 22 27 26 20 13 17 19 23 24 20 22 21 23 26 21 27 34 31 43 44 37 31 36 29 36 32 35 25 24 19 17 22 22 22 19 17 18 19 21
16 17 19 20 17 19 24 25 23 18 19 16 22 18 20 21 21 22 20 18 20 19 24 33 38 41 37 38 38 34 32 29 30 27 28 29 26 29 24 21 21 21 24 26
17 17 15 16 16 18 21 22 21 20 21 19 21 18 18 16 17 16 15 15 9 9 16 20 27 26 29 29 32 30 29 29 30 31 32 32 30 31 30 27 27 27 31 34
12 14 14 13 14 15 17 17 16 16 15 15 16 15 16 15 13 13 13 10 8 9 9 2 15 21 18 20 28 33 34 32 34 28 30 30 33 32 30 29 29 30 31 33
8 8 10 11 11 11 11 11 10 11 14 14 12 11 9 8 7 6 6 5 4 3 1 7 10 10 13 15 19 19 20 26 32 34 33 35 32 29 30 31 31 33 34 34
6 4 5 6 8 7 9 9 9 10 13 12 10 7 4 3 4 5 6 6 5 5 6 10 12 14 17 19 21 21 20 21 22 22 23 25 29 31 32 31 33 35 37 38
16 12 7 1 1 2 6 7 10 10 11 7 6 5 3 3 4 7 10 12 13 14 15 17 17 20 21 22 23 24 26 28 29 31 32 34 35 37 39 40 40 41 42 45
29 26 21 17 13 13 8 4 8 12 10 5 3 1 1 3 3 7 10 12 12 15 17 19 22 23 25 28 31 32 33 34 34 36 37 39 41 43 46 47 48 49 49 49
33 31 30 26 24 21 30 22 22 22 11 5 2 4 7 9 10 11 12 13 14 17 20 22 23 25 27 28 30 32 34 37 41 42 43 42 43 46 47 49 49 49 50 49
28 30 29 30 30 31 31 30 29 25 23 19 14 8 7 10 14 16 19 22 25 27 26 25 25 28 31 34 34 35 36 37 38 40 43 45 45 45 45 46 46 45 43 44
24 25 26 27 26 27 27 27 27 26 24 23 21 20 17 12 8 7 9 15 21 27 31 34 37 37 37 37 37 38 39 39 41 41 41 42 46 47 47 48 48 46 46 44
20 22 22 23 22 22 21 22 22 21 20 19 17 15 14 13 8 5 4 7 10 14 19 23 29 37 42 43 45 45 44 44 42 40 40 41 42 42 42 42 43 45 47 48
16 17 18 18 19 20 19 19 18 16 15 14 13 12 10 8 6 3 1 5 10 14 18 20 25 29 30 31 39 44 44 46 46 45 45 45 45 45 45 43 41 37 36 37